[[{"header":{"parameterUnit":"m.s-1","parameterCategory":1,"la1":30.6,"la2":28.766,"lo1":-90.7593,"lo2":-88.6598,"dx":0.0162,"dy":0.0183,"nx":116,"ny":114,"refTime":"2023-02-10T18:00:00:Z","depth":0,"parameterNumber":2,"parameterNumberName":"U-component_of_WINDS"},"data":[0.0,0.0,0.0,0.0,0.0,0.0,0.0,0.0,0.0,0.0,0.0,0.0,0.0,0.0,0.0,0.0,0.0,0.0,0.0,0.0,0.0,0.0,0.0,0.0,0.0,0.0,0.0,0.0,0.0,0.0,0.0,0.0,0.0,0.0,0.0,0.0,0.0,0.0,0.0,0.0,0.0,0.0,0.0,0.0,0.0,0.0,0.0,0.0,0.0,0.0,0.0,0.0,0.0,0.0,0.0,0.0,0.0,0.0,0.0,0.0,0.0,0.0,0.0,0.0,0.0,0.0,0.0,0.0,0.0,0.0,0.0,0.0,0.0,0.0,0.0,0.0,0.0,0.0,0.0,0.0,0.0,0.0,0.0,0.0,0.0,0.0,0.0,0.0,0.0,0.0,0.0,0.0,0.0,0.0,0.0,0.0,0.0,0.0,0.0,0.0,0.0,0.0,0.0,0.0,0.0,0.0,0.0,0.0,0.0,0.0,0.0,0.0,0.0,0.0,0.0,0.0,0.0,0.0,0.0,0.0,0.0,0.0,0.0,0.0,0.0,0.0,0.0,0.0,0.0,0.0,0.0,0.0,0.0,0.0,0.0,0.0,0.0,0.0,0.0,0.0,0.0,0.0,0.0,0.0,0.0,0.0,0.0,0.0,0.0,0.0,0.0,0.0,0.0,0.0,0.0,0.0,0.0,0.0,0.0,0.0,0.0,0.0,0.0,0.0,0.0,0.0,0.0,0.0,0.0,0.0,0.0,0.0,0.0,0.0,0.0,0.0,0.0,0.0,0.0,0.0,0.0,0.0,0.0,0.0,0.0,0.0,0.0,0.0,0.0,0.0,0.0,0.0,0.0,0.0,0.0,0.0,0.0,0.0,0.0,0.0,0.0,0.0,0.0,0.0,0.0,0.0,0.0,0.0,0.0,0.0,0.0,0.0,0.0,0.0,0.0,0.0,0.0,0.0,0.0,0.0,0.0,0.0,0.0,0.0,0.0,0.0,0.0,0.0,0.0,0.0,0.0,0.0,0.0,0.0,0.0,0.0,0.0,0.0,0.0,0.0,0.0,0.0,0.0,0.0,0.0,0.0,0.0,0.0,0.0,0.0,0.0,0.0,0.0,0.0,0.0,0.0,0.0,0.0,0.0,0.0,0.0,0.0,0.0,0.0,0.0,0.0,0.0,0.0,0.0,0.0,0.0,0.0,0.0,0.0,0.0,0.0,0.0,0.0,0.0,0.0,0.0,0.0,0.0,0.0,0.0,0.0,0.0,0.0,0.0,0.0,0.0,0.0,0.0,0.0,0.0,0.0,0.0,0.0,0.0,0.0,0.0,0.0,0.0,0.0,0.0,0.0,0.0,0.0,0.0,0.0,0.0,0.0,0.0,0.0,0.0,0.0,0.0,0.0,0.0,0.0,0.0,0.0,0.0,0.0,0.0,0.0,0.0,0.0,0.0,0.0,0.0,0.0,0.0,0.0,0.0,0.0,0.0,0.0,0.0,0.0,0.0,0.0,0.0,0.0,0.0,0.0,0.0,0.0,0.0,0.0,0.0,0.0,0.0,0.0,0.0,0.0,0.0,0.0,0.0,0.0,0.0,0.0,0.0,0.0,0.0,0.0,0.0,0.0,0.0,0.0,0.0,0.0,0.0,0.0,0.0,0.0,0.0,0.0,0.0,0.0,0.0,0.0,0.0,0.0,0.0,0.0,0.0,0.0,0.0,0.0,0.0,0.0,0.0,0.0,0.0,0.0,0.0,0.0,0.0,0.0,0.0,0.0,0.0,0.0,0.0,0.0,0.0,0.0,0.0,0.0,0.0,0.0,0.0,0.0,0.0,0.0,0.0,0.0,0.0,0.0,0.0,0.0,0.0,0.0,0.0,0.0,0.0,0.0,0.0,0.0,0.0,0.0,0.0,0.0,0.0,0.0,0.0,0.0,0.0,0.0,0.0,0.0,0.0,0.0,0.0,0.0,0.0,0.0,0.0,0.0,0.0,0.0,0.0,0.0,0.0,0.0,0.0,0.0,0.0,0.0,0.0,0.0,0.0,0.0,0.0,0.0,0.0,0.0,0.0,0.0,0.0,0.0,0.0,0.0,0.0,0.0,0.0,0.0,0.0,0.0,0.0,0.0,0.0,0.0,0.0,0.0,0.0,0.0,0.0,0.0,0.0,0.0,0.0,0.0,0.0,0.0,0.0,0.0,0.0,0.0,0.0,0.0,0.0,0.0,0.0,0.0,0.0,0.0,0.0,0.0,0.0,0.0,0.0,0.0,0.0,0.0,0.0,0.0,0.0,0.0,0.0,0.0,0.0,0.0,0.0,0.0,0.0,0.0,0.0,0.0,0.0,0.0,0.0,0.0,0.0,0.0,0.0,0.0,0.0,0.0,0.0,0.0,0.0,0.0,0.0,0.0,0.0,0.0,0.0,0.0,0.0,0.0,0.0,0.0,0.0,0.0,0.0,0.0,0.0,0.0,0.0,0.0,0.0,0.0,0.0,0.0,0.0,0.0,0.0,0.0,0.0,0.0,0.0,0.0,0.0,0.0,0.0,0.0,0.0,0.0,0.0,0.0,0.0,0.0,0.0,0.0,0.0,0.0,0.0,0.0,0.0,0.0,0.0,0.0,0.0,0.0,0.0,0.0,0.0,0.0,0.0,0.0,0.0,0.0,0.0,0.0,0.0,0.0,0.0,0.0,0.0,0.0,0.0,0.0,0.0,0.0,0.0,0.0,0.0,0.0,0.0,0.0,0.0,0.0,0.0,0.0,0.0,0.0,0.0,0.0,0.0,0.0,0.0,0.0,0.0,0.0,0.0,0.0,0.0,0.0,0.0,0.0,0.0,0.0,0.0,0.0,0.0,0.0,0.0,0.0,0.0,0.0,0.0,0.0,0.0,0.0,0.0,0.0,0.0,0.0,0.0,0.0,0.0,0.0,0.0,0.0,0.0,0.0,0.0,0.0,0.0,0.0,0.0,0.0,0.0,0.0,0.0,0.0,0.0,0.0,0.0,0.0,0.0,0.0,0.0,0.0,0.0,0.0,0.0,0.0,0.0,0.0,0.0,0.0,0.0,0.0,0.0,0.0,0.0,0.0,0.0,0.0,0.0,0.0,0.0,0.0,0.0,0.0,0.0,0.0,0.0,0.0,0.0,0.0,0.0,0.0,0.0,0.0,0.0,0.0,0.0,0.0,0.0,0.0,0.0,0.0,0.0,0.0,0.0,0.0,0.0,0.0,0.0,0.0,0.0,0.0,0.0,0.0,0.0,0.0,0.0,0.0,0.0,0.0,0.0,0.0,0.0,0.0,0.0,0.0,0.0,0.0,0.0,0.0,0.0,0.0,0.0,0.0,0.0,0.0,0.0,0.0,0.0,0.0,0.0,0.0,0.0,0.0,0.0,0.0,0.0,0.0,0.0,0.0,0.0,0.0,0.0,0.0,0.0,0.0,0.0,0.0,0.0,0.0,0.0,0.0,0.0,0.0,0.0,0.0,0.0,0.0,0.0,0.0,0.0,0.0,0.0,0.0,0.0,0.0,0.0,0.0,0.0,0.0,0.0,0.0,0.0,0.0,0.0,0.0,0.0,0.0,0.0,0.0,0.0,0.0,0.0,0.0,0.0,0.0,0.0,0.0,0.0,0.0,0.0,0.0,0.0,0.0,0.0,0.0,0.0,0.0,0.0,0.0,0.0,0.0,0.0,0.0,0.0,0.0,0.0,0.0,0.0,0.0,0.0,0.0,0.0,0.0,0.0,0.0,0.0,0.0,0.0,0.0,0.0,0.0,0.0,0.0,0.0,0.0,0.0,0.0,0.0,0.0,0.0,0.0,0.0,0.0,0.0,0.0,0.0,0.0,0.0,0.0,0.0,0.0,0.0,0.0,0.0,0.0,0.0,0.0,0.0,0.0,0.0,0.0,0.0,0.0,0.0,0.0,0.0,0.0,0.0,0.0,0.0,0.0,0.0,0.0,0.0,0.0,0.0,0.0,0.0,0.0,0.0,0.0,0.0,0.0,0.0,0.0,0.0,0.0,0.0,0.0,0.0,0.0,0.0,0.0,0.0,0.0,0.0,0.0,0.0,0.0,0.0,0.0,0.0,0.0,0.0,0.0,0.0,0.0,0.0,0.0,0.0,0.0,0.0,0.0,0.0,0.0,0.0,0.0,0.0,0.0,0.0,0.0,0.0,0.0,0.0,0.0,0.0,0.0,0.0,0.0,0.0,0.0,0.0,0.0,0.0,0.0,0.0,0.0,0.0,0.0,0.0,0.0,0.0,0.0,0.0,0.0,0.0,0.0,0.0,0.0,0.0,0.0,0.0,0.0,0.0,0.0,0.0,0.0,0.0,0.0,0.0,0.0,0.0,0.0,0.0,0.0,0.0,0.0,0.0,0.0,0.0,0.0,0.0,0.0,0.0,0.0,0.0,0.0,0.0,0.0,0.0,0.0,0.0,0.0,0.0,0.0,0.0,0.0,0.0,0.0,0.0,0.0,0.0,0.0,0.0,0.0,0.0,0.0,0.0,0.0,0.0,0.0,0.0,0.0,0.0,0.0,0.0,0.0,0.0,0.0,0.0,0.0,0.0,0.0,0.0,0.0,0.0,0.0,0.0,0.0,0.0,0.0,0.0,0.0,0.0,0.0,0.0,0.0,0.0,0.0,0.0,0.0,0.0,0.0,0.0,0.0,0.0,0.0,0.0,0.0,0.0,0.0,0.0,0.0,0.0,0.0,0.0,0.0,0.0,0.0,0.0,0.0,0.0,0.0,0.0,0.0,0.0,0.0,0.0,0.0,0.0,0.0,0.0,0.0,0.0,0.0,0.0,0.0,0.0,0.0,0.0,0.0,0.0,0.0,0.0,0.0,0.0,0.0,0.0,0.0,0.0,0.0,0.0,0.0,0.0,0.0,0.0,0.0,0.0,0.0,0.0,0.0,0.0,0.0,0.0,0.0,0.0,0.0,0.0,0.0,0.0,0.0,0.0,0.0,0.0,0.0,0.0,0.0,0.0,0.0,0.0,0.0,0.0,0.0,0.0,0.0,0.0,0.0,0.0,0.0,0.0,0.0,0.0,0.0,0.0,0.0,0.0,0.0,0.0,0.0,0.0,0.0,0.0,0.0,0.0,0.0,0.0,0.0,0.0,0.0,0.0,0.0,0.0,0.0,0.0,0.0,0.0,0.0,0.0,0.0,0.0,0.0,0.0,0.0,0.0,0.0,0.0,0.0,0.0,0.0,0.0,0.0,0.0,0.0,0.0,0.0,0.0,0.0,0.0,0.0,0.0,0.0,0.0,0.0,0.0,0.0,0.0,0.0,0.0,0.0,0.0,0.0,0.0,0.0,0.0,0.0,0.0,0.0,0.0,0.0,0.0,0.0,0.0,0.0,0.0,0.0,0.0,0.0,0.0,0.0,0.0,0.0,0.0,0.0,0.0,0.0,0.0,0.0,0.0,0.0,0.0,0.0,0.0,0.0,0.0,0.0,0.0,0.0,0.0,0.0,0.0,0.0,0.0,0.0,0.0,0.0,0.0,0.0,0.0,0.0,0.0,0.0,0.0,0.0,0.0,0.0,0.0,0.0,0.0,0.0,0.0,0.0,0.0,0.0,0.0,0.0,0.0,0.0,0.0,0.0,0.0,0.0,0.0,0.0,0.0,0.0,0.0,0.0,0.0,0.0,0.0,0.0,0.0,0.0,0.0,0.0,0.0,0.0,0.0,0.0,0.0,0.0,0.0,0.0,0.0,0.0,0.0,0.0,0.0,0.0,0.0,0.0,0.0,0.0,0.0,0.0,0.0,0.0,0.0,0.0,0.0,0.0,0.0,0.0,0.0,0.0,0.0,0.0,0.0,0.0,0.0,0.0,0.0,0.0,0.0,0.0,0.0,0.0,0.0,0.0,0.0,0.0,0.0,0.0,0.0,0.0,0.0,0.0,0.0,0.0,0.0,0.0,0.0,0.0,0.0,0.0,0.0,0.0,0.0,0.0,0.0,0.0,0.0,0.0,0.0,0.0,0.0,0.0,0.0,0.0,0.0,0.0,0.0,0.0,0.0,0.0,0.0,0.0,0.0,0.0,0.0,0.0,0.0,0.0,0.0,0.0,-6.1978,-6.1978,0.0,0.0,0.0,0.0,0.0,0.0,0.0,0.0,0.0,0.0,0.0,0.0,0.0,0.0,0.0,0.0,0.0,0.0,0.0,0.0,0.0,0.0,0.0,0.0,0.0,0.0,0.0,0.0,0.0,0.0,0.0,0.0,0.0,0.0,0.0,0.0,0.0,0.0,0.0,0.0,0.0,0.0,0.0,0.0,0.0,0.0,0.0,0.0,0.0,0.0,0.0,0.0,0.0,0.0,0.0,0.0,0.0,0.0,0.0,0.0,0.0,0.0,0.0,0.0,0.0,0.0,0.0,0.0,0.0,0.0,0.0,0.0,0.0,0.0,0.0,0.0,0.0,0.0,0.0,0.0,0.0,0.0,0.0,0.0,0.0,0.0,0.0,0.0,0.0,0.0,0.0,0.0,0.0,0.0,0.0,0.0,0.0,0.0,0.0,0.0,0.0,0.0,0.0,0.0,0.0,0.0,0.0,0.0,0.0,0.0,0.0,0.0,0.0,0.0,-6.1978,-6.1978,0.0,0.0,0.0,0.0,0.0,0.0,0.0,0.0,0.0,0.0,0.0,0.0,0.0,0.0,0.0,0.0,0.0,0.0,0.0,0.0,0.0,0.0,0.0,0.0,0.0,0.0,0.0,0.0,0.0,0.0,0.0,0.0,0.0,0.0,0.0,0.0,0.0,0.0,0.0,0.0,0.0,0.0,0.0,0.0,0.0,0.0,0.0,0.0,0.0,0.0,0.0,0.0,0.0,0.0,0.0,0.0,0.0,0.0,0.0,0.0,0.0,0.0,0.0,0.0,0.0,0.0,0.0,0.0,0.0,0.0,0.0,0.0,0.0,0.0,0.0,0.0,0.0,0.0,0.0,0.0,0.0,0.0,0.0,0.0,0.0,0.0,0.0,0.0,0.0,0.0,0.0,0.0,0.0,0.0,0.0,0.0,0.0,0.0,0.0,0.0,0.0,0.0,0.0,0.0,0.0,0.0,0.0,0.0,-6.1978,-6.1978,-6.1978,-6.1978,-6.1978,-6.1978,-6.1978,-6.1978,-6.1978,-6.1978,0.0,0.0,0.0,0.0,0.0,0.0,0.0,0.0,0.0,0.0,0.0,0.0,0.0,0.0,0.0,0.0,0.0,0.0,0.0,0.0,0.0,0.0,0.0,0.0,0.0,0.0,0.0,0.0,0.0,0.0,0.0,0.0,0.0,0.0,0.0,0.0,0.0,0.0,0.0,0.0,0.0,0.0,0.0,0.0,0.0,0.0,0.0,0.0,0.0,0.0,0.0,0.0,0.0,0.0,0.0,0.0,0.0,0.0,0.0,0.0,0.0,0.0,0.0,0.0,0.0,0.0,0.0,0.0,0.0,0.0,0.0,0.0,0.0,0.0,0.0,0.0,0.0,0.0,0.0,0.0,0.0,0.0,0.0,0.0,0.0,0.0,-6.1978,-6.1978,0.0,0.0,0.0,0.0,0.0,0.0,0.0,0.0,0.0,0.0,0.0,0.0,0.0,-6.1978,-6.1978,-6.1978,-6.1978,-6.1978,-6.1978,-6.1978,-6.1978,-6.1978,-6.1978,-6.1978,-6.1978,0.0,-6.1978,-6.1978,0.0,0.0,0.0,0.0,0.0,0.0,0.0,0.0,0.0,0.0,0.0,0.0,0.0,0.0,0.0,0.0,0.0,0.0,0.0,0.0,0.0,0.0,0.0,0.0,0.0,0.0,0.0,0.0,0.0,0.0,0.0,0.0,0.0,0.0,0.0,0.0,0.0,0.0,0.0,0.0,0.0,0.0,0.0,0.0,0.0,0.0,0.0,0.0,0.0,0.0,0.0,0.0,0.0,0.0,0.0,0.0,0.0,0.0,0.0,0.0,0.0,0.0,0.0,0.0,0.0,0.0,0.0,0.0,0.0,0.0,0.0,0.0,0.0,0.0,0.0,0.0,0.0,0.0,0.0,0.0,0.0,0.0,0.0,0.0,0.0,-6.1978,-6.1978,-6.1978,-6.1978,-6.1978,0.0,0.0,0.0,0.0,0.0,0.0,0.0,0.0,0.0,-6.1978,-6.1978,-6.1978,-6.1978,-6.1978,-6.1978,-6.1978,-6.1978,-6.1978,-6.1978,-6.1978,-6.1978,-6.1978,-6.1978,-6.1978,-6.1978,-6.1978,-6.1978,-6.1978,0.0,0.0,0.0,0.0,-6.1978,-6.1978,0.0,0.0,0.0,0.0,0.0,0.0,0.0,0.0,0.0,0.0,0.0,0.0,0.0,0.0,0.0,0.0,0.0,0.0,0.0,0.0,0.0,0.0,0.0,0.0,0.0,0.0,0.0,0.0,0.0,0.0,0.0,0.0,0.0,0.0,0.0,0.0,0.0,0.0,0.0,0.0,0.0,0.0,0.0,0.0,0.0,0.0,0.0,0.0,0.0,0.0,0.0,0.0,0.0,0.0,0.0,0.0,0.0,0.0,0.0,0.0,0.0,0.0,0.0,0.0,0.0,0.0,0.0,0.0,0.0,0.0,0.0,0.0,0.0,0.0,0.0,0.0,0.0,-6.1978,-6.1978,-6.1978,-6.1978,-6.1978,0.0,0.0,0.0,0.0,0.0,0.0,-6.1978,-6.1978,-6.1978,-6.1978,-6.1978,-6.1978,-6.1978,-6.1978,-6.1978,-6.1978,-6.1978,-6.1978,-6.1978,-6.1978,-6.1978,-6.1978,-6.1978,-6.1978,-6.1978,-6.1978,-6.1978,-6.1978,-6.1978,-6.1978,-6.1978,-6.1978,-6.1978,-6.1978,0.0,0.0,0.0,0.0,0.0,0.0,0.0,0.0,0.0,0.0,0.0,0.0,0.0,0.0,0.0,0.0,0.0,0.0,0.0,0.0,0.0,0.0,0.0,0.0,0.0,0.0,0.0,0.0,0.0,0.0,0.0,0.0,0.0,0.0,0.0,0.0,0.0,0.0,0.0,0.0,0.0,0.0,0.0,0.0,0.0,0.0,0.0,0.0,0.0,0.0,0.0,0.0,0.0,0.0,0.0,0.0,0.0,0.0,0.0,0.0,0.0,0.0,0.0,0.0,0.0,0.0,0.0,0.0,0.0,0.0,0.0,0.0,0.0,0.0,0.0,0.0,0.0,0.0,0.0,-6.1978,-6.1978,0.0,0.0,0.0,0.0,-6.1978,-6.1978,-6.1978,-6.1978,-6.1978,-6.1978,-6.1978,-6.1978,-6.1978,-6.1978,-6.1978,-6.1978,-6.1978,-6.1978,-6.1978,-6.1978,-6.1978,-6.1978,-6.1978,-6.1978,-6.1978,-6.1978,-6.1978,-6.1978,-6.1978,-6.1978,-6.1978,-6.1978,-6.1978,-6.1978,-6.1978,0.0,0.0,0.0,0.0,0.0,0.0,0.0,0.0,0.0,0.0,0.0,0.0,0.0,0.0,0.0,0.0,0.0,0.0,0.0,0.0,0.0,0.0,0.0,0.0,0.0,0.0,0.0,0.0,0.0,0.0,0.0,0.0,0.0,0.0,0.0,0.0,0.0,0.0,0.0,0.0,0.0,0.0,0.0,0.0,0.0,0.0,0.0,0.0,0.0,0.0,0.0,0.0,0.0,0.0,0.0,0.0,0.0,0.0,0.0,0.0,0.0,0.0,0.0,0.0,0.0,0.0,0.0,0.0,0.0,0.0,0.0,0.0,0.0,0.0,0.0,0.0,0.0,0.0,0.0,-6.1978,-6.1978,0.0,-6.1978,-6.1978,-6.1978,-6.1978,-6.1978,-6.1978,-6.1978,-6.1978,-6.1978,-6.1978,-6.1978,-6.1978,-6.1978,-6.1978,-6.1978,-6.1978,-6.1978,-6.1978,-6.1978,-6.1978,-6.1978,-6.1978,-6.1978,-6.1978,-6.1978,-6.1978,-6.1978,-6.1978,-6.1978,-6.1978,-6.1978,-6.1978,-6.1978,-6.1978,0.0,0.0,0.0,0.0,0.0,0.0,0.0,0.0,0.0,0.0,0.0,0.0,0.0,0.0,0.0,0.0,0.0,0.0,0.0,0.0,0.0,0.0,0.0,0.0,0.0,0.0,0.0,0.0,0.0,0.0,0.0,0.0,0.0,0.0,0.0,0.0,0.0,0.0,0.0,0.0,0.0,0.0,-6.5804,0.0,0.0,0.0,0.0,0.0,0.0,0.0,0.0,0.0,0.0,0.0,0.0,0.0,0.0,0.0,0.0,0.0,0.0,0.0,0.0,0.0,0.0,0.0,0.0,0.0,0.0,0.0,0.0,0.0,0.0,0.0,0.0,0.0,0.0,0.0,-6.1978,-6.1978,-6.1978,-6.1978,-6.1978,-6.1978,-6.1978,-6.1978,-6.1978,-6.1978,-6.1978,-6.1978,-6.1978,-6.1978,-6.1978,-6.1978,-6.1978,-6.1978,-6.1978,-6.1978,-6.1978,-6.1978,-6.1978,-6.1978,-6.1978,-6.1978,-6.1978,-6.1978,-6.1978,-6.1978,-6.1978,-6.1978,-6.1978,-6.1978,-6.1978,-6.1978,-6.1978,-6.1978,0.0,0.0,0.0,0.0,0.0,0.0,0.0,0.0,0.0,0.0,0.0,0.0,0.0,0.0,0.0,0.0,0.0,0.0,0.0,0.0,0.0,0.0,0.0,0.0,0.0,0.0,0.0,0.0,0.0,0.0,0.0,0.0,0.0,0.0,0.0,0.0,0.0,0.0,0.0,0.0,0.0,0.0,-6.5804,0.0,0.0,0.0,0.0,0.0,0.0,0.0,0.0,0.0,0.0,0.0,0.0,0.0,0.0,0.0,0.0,0.0,0.0,0.0,0.0,0.0,0.0,0.0,0.0,0.0,0.0,0.0,0.0,0.0,0.0,0.0,0.0,0.0,-6.1978,-6.1978,-6.1978,-6.1978,-6.1978,-6.1978,-6.1978,-6.1978,-6.1978,-6.1978,-6.1978,-6.1978,-6.1978,-6.1978,-6.1978,-6.1978,-6.1978,-6.1978,-6.1978,-6.1978,-6.1978,-6.1978,-6.1978,-6.1978,-6.1978,-6.1978,-6.1978,-6.1978,-6.1978,-6.1978,-6.1978,-6.1978,-6.1978,-6.1978,-6.1978,-6.1978,-6.1978,-6.1978,-6.1978,-6.1978,0.0,0.0,0.0,0.0,0.0,0.0,0.0,0.0,0.0,0.0,0.0,0.0,0.0,0.0,0.0,0.0,0.0,0.0,0.0,0.0,0.0,0.0,0.0,0.0,0.0,0.0,0.0,0.0,0.0,0.0,0.0,0.0,0.0,0.0,0.0,0.0,0.0,0.0,0.0,0.0,0.0,0.0,-6.5804,0.0,0.0,0.0,0.0,0.0,0.0,0.0,0.0,0.0,0.0,0.0,0.0,0.0,0.0,0.0,0.0,0.0,0.0,0.0,0.0,0.0,0.0,0.0,0.0,0.0,0.0,0.0,0.0,0.0,0.0,0.0,0.0,-6.1978,-6.1978,-6.1978,-6.1978,-6.1978,-6.1978,-6.1978,-6.1978,-6.1978,-6.1978,-6.1978,-6.1978,-6.1978,-6.1978,-6.1978,-6.1978,-6.1978,-6.1978,-6.1978,-6.1978,-6.1978,-6.1978,-6.1978,-6.1978,-6.1978,-6.1978,-6.1978,-6.1978,-6.1978,-6.1978,-6.1978,-6.1978,-6.1978,-6.1978,-6.1978,-6.1978,-6.1978,-6.1978,-6.1978,-6.1978,-6.1978,0.0,0.0,0.0,0.0,0.0,0.0,0.0,0.0,0.0,0.0,0.0,0.0,0.0,0.0,0.0,0.0,0.0,0.0,0.0,0.0,0.0,0.0,0.0,0.0,0.0,0.0,0.0,0.0,0.0,0.0,0.0,0.0,0.0,0.0,0.0,0.0,0.0,0.0,0.0,0.0,0.0,0.0,-6.5804,-6.5804,-6.5804,-6.5804,-6.5804,-6.5804,-6.5804,-6.5895,0.0,0.0,0.0,0.0,0.0,0.0,0.0,0.0,0.0,0.0,0.0,0.0,0.0,0.0,0.0,0.0,0.0,0.0,0.0,0.0,0.0,0.0,0.0,0.0,-6.1978,-6.1978,-6.1978,-6.1978,-6.1978,-6.1978,-6.1978,-6.1978,-6.1978,-6.1978,-6.1978,-6.1978,-6.1978,-6.1978,-6.1978,-6.1978,-6.1978,-6.1978,-6.1978,-6.1978,-6.1978,-6.1978,-6.1978,-6.1978,-6.1978,-6.1978,-6.1978,-6.1978,-6.1978,-6.1978,-6.206,-6.2087,-6.2087,-6.2141,-6.2168,-6.2168,0.0,0.0,0.0,0.0,-6.2277,-6.2512,0.0,0.0,0.0,0.0,0.0,0.0,0.0,0.0,0.0,0.0,0.0,0.0,0.0,0.0,0.0,0.0,0.0,0.0,0.0,0.0,0.0,0.0,0.0,0.0,0.0,0.0,0.0,0.0,0.0,0.0,0.0,0.0,0.0,0.0,0.0,0.0,0.0,0.0,0.0,0.0,0.0,0.0,-6.5899,-6.5836,-6.5804,-6.5804,-6.5804,-6.5804,-6.5804,-6.5836,0.0,0.0,0.0,0.0,0.0,0.0,0.0,0.0,0.0,0.0,0.0,0.0,0.0,0.0,0.0,0.0,0.0,0.0,0.0,0.0,0.0,0.0,0.0,0.0,-6.1978,-6.1978,-6.1978,-6.1978,-6.1978,-6.1978,-6.1978,-6.1978,-6.1978,-6.1978,-6.1978,-6.1978,-6.1978,-6.1978,-6.1978,-6.1978,0.0,0.0,0.0,-6.1978,-6.1978,-6.1978,-6.1978,-6.1978,-6.1978,-6.1978,-6.1978,-6.2005,-6.2005,-6.2033,-6.2168,-6.2212,-6.2212,-6.2344,-6.2443,-6.249,-6.2177,-6.2105,-6.2205,-6.2304,-6.2785,-6.3365,0.0,0.0,0.0,0.0,0.0,0.0,0.0,0.0,0.0,0.0,0.0,0.0,0.0,0.0,0.0,0.0,0.0,0.0,0.0,0.0,0.0,0.0,0.0,0.0,0.0,0.0,0.0,0.0,0.0,0.0,0.0,0.0,0.0,0.0,0.0,0.0,0.0,0.0,0.0,0.0,0.0,0.0,-6.6294,-6.5927,-6.5804,-6.5804,-6.5804,-6.5804,-6.5836,-6.6083,-6.6207,-6.63,-6.6608,0.0,0.0,0.0,0.0,0.0,0.0,0.0,0.0,0.0,0.0,0.0,0.0,0.0,0.0,0.0,0.0,0.0,0.0,0.0,0.0,-6.1978,-6.1978,-6.1978,-6.1978,-6.1978,-6.1978,-6.1978,-6.1978,-6.1978,-6.1978,-6.1978,-6.1978,-6.1978,-6.1978,-6.1978,-6.1978,-6.1978,-6.1978,-6.1978,-6.1978,-6.1978,-6.1978,-6.1978,-6.1978,-6.1978,-6.1978,0.0,-6.1978,-6.2114,-6.2168,-6.2195,-6.2291,-6.2344,-6.2344,-6.2407,-6.2798,-6.3308,-6.2609,-6.2719,-6.3301,-6.3328,-6.3757,-6.4366,0.0,0.0,0.0,0.0,0.0,0.0,0.0,0.0,0.0,0.0,0.0,0.0,0.0,0.0,0.0,0.0,0.0,0.0,0.0,0.0,0.0,0.0,0.0,0.0,0.0,0.0,0.0,0.0,0.0,0.0,0.0,0.0,0.0,0.0,0.0,0.0,0.0,0.0,0.0,0.0,0.0,0.0,-6.7109,-6.6618,-6.6476,-6.6446,-6.6202,-6.6146,-6.6146,-6.6052,-6.6083,-6.6207,-6.6488,-6.6608,-6.6668,0.0,0.0,0.0,0.0,0.0,0.0,0.0,0.0,0.0,0.0,0.0,0.0,0.0,0.0,-6.1978,0.0,0.0,-6.1978,-6.1978,-6.1978,-6.1978,-6.1978,-6.1978,-6.1978,-6.1978,-6.1978,-6.1978,-6.1978,-6.1978,-6.1978,-6.1978,-6.1978,-6.1978,-6.1978,-6.1978,-6.1978,-6.1978,-6.206,-6.206,-6.1978,-6.206,-6.206,-6.1978,-6.206,-6.2114,-6.2114,-6.2248,-6.2291,-6.2291,-6.2423,-6.25,-6.2537,-6.3053,-6.3481,-6.3847,-6.3847,-6.3988,-6.421,-6.43,-6.4758,-6.5304,0.0,0.0,0.0,0.0,0.0,0.0,0.0,0.0,0.0,0.0,0.0,0.0,0.0,0.0,0.0,0.0,0.0,0.0,0.0,0.0,0.0,0.0,0.0,0.0,0.0,0.0,0.0,0.0,0.0,0.0,0.0,0.0,0.0,0.0,0.0,0.0,0.0,0.0,0.0,0.0,0.0,0.0,-6.7904,-6.7523,-6.7277,-6.7081,-6.6707,-6.6595,-6.6476,-6.6146,-6.6052,-6.6146,-6.633,-6.6452,-6.6608,-6.6727,-6.6677,0.0,0.0,0.0,0.0,0.0,0.0,0.0,0.0,0.0,-6.1978,-6.1978,-6.1978,-6.1978,-6.1978,-6.1978,-6.1978,-6.1978,-6.1978,-6.1978,-6.1978,-6.1978,-6.1978,-6.1978,-6.1978,-6.1978,-6.1978,-6.1978,-6.1978,-6.1978,-6.1978,-6.1978,-6.1978,-6.2005,-6.2033,-6.2033,-6.2168,-6.2195,-6.2033,-6.2195,-6.2195,-6.2033,-6.2195,-6.2212,-6.2238,-6.237,-6.2423,-6.2459,-6.2761,-6.291,-6.2984,-6.3929,-6.442,-6.464,-6.5301,-6.5464,-6.5377,-6.5374,-6.576,-6.6309,0.0,0.0,0.0,0.0,0.0,0.0,0.0,0.0,0.0,0.0,0.0,0.0,0.0,0.0,0.0,0.0,0.0,0.0,0.0,0.0,0.0,0.0,0.0,0.0,0.0,0.0,0.0,0.0,0.0,0.0,0.0,0.0,0.0,0.0,0.0,0.0,0.0,0.0,0.0,0.0,0.0,0.0,-6.8432,-6.8346,-6.7826,-6.7073,-6.7045,-6.6881,-6.6684,-6.6809,-6.6661,-6.6482,-6.6668,-6.6727,-6.6757,-6.6786,0.0,-6.5736,-6.5736,-6.4613,-6.3418,-6.3237,-6.2657,-6.2087,0.0,0.0,-6.1978,-6.1978,-6.1978,-6.1978,-6.1978,-6.1978,-6.1978,-6.1978,-6.1978,-6.1978,-6.1978,-6.1978,-6.1978,-6.1978,-6.1978,-6.1978,-6.1978,-6.1978,-6.1978,-6.1978,-6.1978,-6.1978,-6.1978,-6.2114,-6.2195,-6.2195,-6.2291,-6.2291,-6.2158,-6.2291,-6.2291,-6.2158,-6.2291,-6.2407,-6.237,-6.25,-6.2578,-6.2614,-6.3537,-6.3918,-6.4016,-6.4824,-6.5595,-6.6219,-6.6329,-6.678,-6.7293,-6.6596,-6.6773,-6.7323,0.0,0.0,0.0,0.0,0.0,0.0,0.0,0.0,0.0,0.0,0.0,0.0,0.0,0.0,0.0,0.0,0.0,0.0,0.0,0.0,0.0,0.0,0.0,0.0,0.0,0.0,0.0,0.0,0.0,0.0,0.0,0.0,0.0,0.0,0.0,0.0,0.0,0.0,0.0,0.0,0.0,0.0,-6.8481,-6.8481,-6.8309,-6.801,-6.7469,-6.7202,0.0,0.0,-6.6542,-6.6512,-6.6608,-6.6697,-6.6714,-6.6243,-6.5844,0.0,-6.4468,-6.3708,0.0,0.0,-6.2259,-6.1978,-6.1978,-6.1978,-6.1978,-6.1978,-6.1978,-6.1978,-6.1978,-6.1978,-6.1978,0.0,-6.1978,-6.1978,-6.1978,-6.1978,-6.1978,-6.1978,-6.1978,-6.1978,-6.1978,-6.1978,-6.1978,-6.1978,-6.2087,-6.2114,-6.2114,-6.2248,-6.2328,-6.2328,-6.2344,-6.2344,-6.2328,-6.2344,-6.2344,-6.2291,-6.2449,-6.25,-6.2526,-6.2654,-6.2987,-6.35,-6.3918,-6.4347,-6.4861,-6.5668,-6.6219,-6.6549,-6.7026,-6.7393,-6.765,-6.732,-6.7367,-6.7606,0.0,0.0,0.0,0.0,0.0,0.0,0.0,0.0,0.0,0.0,0.0,0.0,0.0,0.0,0.0,0.0,0.0,0.0,0.0,0.0,0.0,0.0,0.0,0.0,0.0,0.0,0.0,0.0,0.0,0.0,0.0,0.0,0.0,0.0,0.0,0.0,0.0,0.0,0.0,0.0,0.0,0.0,-6.8565,-6.8565,-6.873,-6.8772,-6.793,-6.7587,0.0,0.0,-6.6542,-6.6572,-6.6572,-6.6697,-6.6641,-6.5844,-6.5301,-6.4649,-6.3237,0.0,0.0,-6.2123,-6.1978,-6.1978,-6.1978,-6.1978,-6.1978,-6.1978,-6.1978,-6.1978,-6.1978,-6.1978,-6.1978,-6.1978,-6.1978,-6.1978,-6.1978,-6.1978,-6.1978,-6.1978,-6.2033,-6.206,-6.206,-6.206,-6.206,-6.206,-6.2195,-6.2275,-6.2275,-6.237,-6.2423,-6.2407,-6.2449,-6.2449,-6.2407,-6.2449,-6.2475,-6.2449,-6.2578,-6.2654,-6.2654,-6.3012,-6.3613,-6.442,-6.4677,-6.5081,-6.5705,-6.6512,-6.6843,-6.688,-6.7467,-6.7687,-6.7687,-6.7687,-6.7687,-6.7687,0.0,0.0,0.0,0.0,0.0,0.0,0.0,0.0,0.0,0.0,0.0,0.0,0.0,0.0,0.0,0.0,0.0,0.0,0.0,0.0,0.0,0.0,0.0,0.0,0.0,0.0,0.0,0.0,0.0,0.0,0.0,0.0,0.0,0.0,0.0,0.0,0.0,0.0,0.0,0.0,0.0,0.0,-6.8809,-6.8809,-6.8968,-6.9078,-6.8346,0.0,0.0,0.0,-6.6983,-6.6786,-6.6786,-6.6822,0.0,-6.5844,-6.4504,0.0,0.0,0.0,-6.2014,-6.2014,-6.1978,-6.1978,-6.1978,-6.1978,-6.1978,-6.1978,-6.1978,-6.1978,-6.1978,-6.1978,-6.1978,-6.1978,-6.1978,-6.1978,-6.1978,-6.1978,-6.1978,-6.1978,-6.2114,-6.2185,0.0,-6.2185,-6.2185,-6.2185,-6.2328,-6.237,-6.237,-6.2526,-6.2526,-6.2397,-6.2629,-6.2654,-6.2397,-6.2654,-6.2705,-6.2603,-6.273,-6.278,-6.2817,-6.3686,-6.4494,-6.5301,-6.6109,-6.6439,-6.6512,-6.732,-6.765,-6.765,-6.7687,-6.7687,-6.7687,-6.7687,-6.7687,-6.7687,0.0,0.0,0.0,0.0,0.0,0.0,0.0,0.0,0.0,0.0,0.0,0.0,0.0,0.0,0.0,0.0,0.0,0.0,0.0,0.0,0.0,0.0,0.0,0.0,0.0,0.0,0.0,0.0,0.0,0.0,0.0,0.0,0.0,0.0,0.0,0.0,0.0,0.0,0.0,0.0,0.0,0.0,-6.8832,-6.899,-6.9209,-6.9336,0.0,0.0,0.0,0.0,0.0,0.0,-6.6786,0.0,0.0,-6.5192,0.0,0.0,0.0,0.0,-6.1978,-6.1978,-6.1978,-6.1978,-6.1978,-6.1978,-6.1978,-6.1978,-6.1978,-6.1978,-6.1978,-6.1978,-6.1978,-6.1978,-6.1978,-6.1978,-6.1978,-6.1978,-6.1978,-6.1978,-6.2033,0.0,0.0,0.0,0.0,-6.2318,-6.2449,-6.2526,-6.2526,-6.2654,-6.2705,-6.2654,-6.2654,-6.2654,-6.2654,-6.2654,-6.2679,-6.273,-6.3367,-6.3943,-6.4494,-6.4751,-6.5338,-6.6109,-6.6366,-6.6979,-6.7778,-6.8074,-6.8185,-6.821,-6.8514,-6.8442,-6.821,-6.8514,-6.8656,-6.8572,0.0,0.0,0.0,0.0,0.0,0.0,0.0,0.0,0.0,0.0,0.0,0.0,0.0,0.0,0.0,0.0,0.0,0.0,0.0,0.0,0.0,0.0,0.0,0.0,0.0,0.0,0.0,0.0,0.0,0.0,0.0,0.0,0.0,0.0,0.0,0.0,0.0,0.0,0.0,0.0,0.0,0.0,-6.9063,-6.923,-6.944,0.0,0.0,0.0,0.0,0.0,0.0,0.0,0.0,0.0,0.0,0.0,0.0,0.0,0.0,-6.1978,-6.1978,-6.1978,-6.1978,-6.1978,-6.1978,-6.1978,-6.1978,-6.1978,-6.1978,-6.1978,-6.1978,-6.1978,-6.1978,-6.1978,-6.1978,-6.1978,-6.1978,-6.1978,-6.1978,-6.1978,-6.2033,-6.2141,0.0,0.0,0.0,-6.2449,-6.2603,-6.2679,-6.2679,-6.2755,-6.278,-6.273,-6.2679,-6.2679,-6.273,-6.2998,-6.3317,-6.3723,-6.4273,-6.4934,-6.5742,-6.5742,-6.6182,-6.6943,-6.7089,-6.7654,-6.8418,-6.8609,-6.8642,-6.8665,-6.8981,-6.8915,-6.8665,-6.8981,-6.9386,-6.9696,0.0,0.0,0.0,0.0,0.0,0.0,0.0,0.0,0.0,0.0,0.0,0.0,0.0,0.0,0.0,0.0,0.0,0.0,0.0,0.0,0.0,0.0,0.0,0.0,0.0,0.0,0.0,0.0,0.0,0.0,0.0,0.0,0.0,0.0,0.0,0.0,0.0,0.0,0.0,0.0,0.0,0.0,-6.9501,-6.9521,0.0,0.0,0.0,0.0,0.0,0.0,0.0,0.0,0.0,0.0,0.0,0.0,0.0,-6.2033,-6.2005,-6.1978,-6.1978,-6.1978,-6.1978,-6.1978,-6.1978,-6.1978,-6.1978,-6.1978,-6.1978,-6.1978,0.0,0.0,-6.1978,-6.1978,-6.1978,-6.1978,-6.1978,-6.1978,-6.1978,0.0,0.0,0.0,0.0,0.0,0.0,-6.2603,0.0,-6.278,-6.278,-6.278,-6.273,-6.2629,-6.2767,-6.2803,-6.2702,-6.3672,-6.4567,-6.5375,-6.5375,-6.5778,-6.6549,-6.6549,-6.699,-6.7741,-6.821,-6.8418,-6.849,-6.8937,-6.9134,-6.9134,-6.9193,-6.923,-6.9209,-6.9268,-7.0088,-7.0933,0.0,0.0,0.0,0.0,0.0,0.0,0.0,0.0,0.0,0.0,0.0,0.0,0.0,0.0,0.0,0.0,0.0,0.0,0.0,0.0,0.0,0.0,0.0,0.0,0.0,0.0,0.0,0.0,0.0,0.0,0.0,0.0,0.0,0.0,0.0,0.0,0.0,0.0,0.0,0.0,0.0,0.0,-6.9521,0.0,0.0,0.0,0.0,0.0,0.0,0.0,0.0,0.0,0.0,0.0,-6.5619,0.0,0.0,-6.2427,-6.2114,-6.1978,-6.1978,-6.1978,-6.1978,-6.1978,-6.1978,-6.1978,-6.1978,-6.1978,-6.1978,-6.1978,0.0,0.0,0.0,-6.1978,-6.1978,0.0,-6.1978,-6.1978,0.0,0.0,0.0,-6.2291,-6.2526,-6.2578,0.0,0.0,-6.278,-6.278,-6.278,-6.278,-6.278,-6.2755,-6.3404,-6.3759,-6.3709,-6.4578,-6.5411,-6.6182,-6.6182,-6.6623,-6.7393,-6.7393,-6.7504,-6.7741,-6.821,-6.8609,-6.8959,-6.9443,-6.9623,-6.9738,-7.0685,-7.0801,-7.0646,-7.1635,-7.2198,-7.2442,0.0,0.0,0.0,0.0,0.0,0.0,0.0,0.0,0.0,0.0,0.0,0.0,0.0,0.0,0.0,0.0,0.0,0.0,0.0,0.0,0.0,0.0,0.0,0.0,0.0,0.0,0.0,0.0,0.0,0.0,0.0,0.0,0.0,0.0,0.0,0.0,0.0,0.0,0.0,0.0,0.0,0.0,0.0,0.0,0.0,0.0,0.0,0.0,0.0,0.0,0.0,-6.8981,-6.872,-6.7815,-6.6605,-6.5754,0.0,-6.3122,-6.2459,-6.2158,-6.1978,-6.1978,-6.1978,-6.1978,-6.1978,-6.1978,-6.1978,-6.1978,-6.1978,0.0,0.0,0.0,0.0,0.0,0.0,0.0,-6.1978,-6.206,-6.2114,0.0,-6.2238,0.0,-6.2578,-6.2603,-6.2654,0.0,-6.278,-6.278,-6.278,-6.3172,-6.3392,-6.3392,-6.42,-6.4787,-6.5154,-6.5595,-6.6219,-6.7026,-6.7026,-6.7379,-6.7982,-6.7982,-6.8134,-6.8346,-6.8803,-6.9343,-6.9954,-7.046,-7.0834,-7.1289,-7.1994,-7.2095,-7.1974,-7.272,-7.3208,-7.3514,0.0,0.0,0.0,0.0,0.0,0.0,0.0,0.0,0.0,0.0,0.0,0.0,0.0,0.0,0.0,0.0,0.0,0.0,0.0,0.0,0.0,0.0,0.0,0.0,0.0,0.0,0.0,0.0,0.0,0.0,0.0,0.0,0.0,0.0,0.0,0.0,0.0,0.0,0.0,0.0,0.0,0.0,0.0,0.0,0.0,0.0,0.0,0.0,0.0,0.0,-6.9891,-6.9834,-6.934,-6.8633,-6.7743,-6.6381,-6.5123,-6.3947,-6.2965,-6.2412,-6.2087,-6.2005,-6.1978,-6.1978,-6.1978,-6.1978,-6.1978,-6.1978,0.0,0.0,-6.1978,0.0,-6.1978,-6.1978,0.0,-6.1978,-6.1978,-6.2114,-6.2195,-6.2212,-6.2354,-6.2449,-6.2603,-6.2739,-6.2863,-6.2964,-6.3099,-6.3099,-6.2989,-6.3796,-6.431,-6.442,-6.5118,-6.5852,-6.6659,-6.6659,-6.699,-6.7687,-6.7797,-6.8114,-6.8543,-6.8654,-6.8978,-6.9472,-6.9944,-7.0536,-7.1219,-7.1697,-7.2329,-7.3017,-7.3132,-7.317,-7.317,-7.3284,-7.3781,-7.4393,0.0,0.0,0.0,0.0,0.0,0.0,0.0,0.0,0.0,0.0,0.0,0.0,0.0,0.0,0.0,0.0,0.0,0.0,0.0,0.0,0.0,0.0,0.0,0.0,0.0,0.0,0.0,0.0,0.0,0.0,0.0,0.0,0.0,0.0,0.0,0.0,0.0,0.0,0.0,0.0,0.0,0.0,0.0,0.0,0.0,0.0,0.0,0.0,0.0,0.0,-6.9891,-6.9891,-6.9777,-6.919,-6.8243,-6.6954,-6.5902,-6.4806,-6.3161,-6.262,-6.2479,-6.2114,-6.1978,-6.1978,-6.1978,-6.1978,0.0,0.0,0.0,-6.1978,-6.1978,-6.1978,0.0,-6.1978,0.0,0.0,0.0,0.0,-6.2114,0.0,0.0,0.0,0.0,0.0,0.0,0.0,-6.4494,-6.4567,-6.3906,-6.464,-6.5411,-6.6072,-6.6219,-6.6659,-6.7467,-6.7467,-6.754,-6.7714,-6.8385,-6.8963,-6.9422,-7.0091,-7.068,-7.1185,-7.1665,-7.1958,-7.211,-7.2574,-7.2864,-7.3055,-7.3743,-7.401,-7.4087,-7.4813,-7.5157,-7.5271,0.0,0.0,0.0,0.0,0.0,0.0,0.0,0.0,0.0,0.0,0.0,0.0,0.0,0.0,0.0,0.0,0.0,0.0,0.0,0.0,0.0,0.0,0.0,0.0,0.0,0.0,0.0,0.0,0.0,0.0,0.0,0.0,0.0,0.0,0.0,0.0,0.0,0.0,0.0,0.0,0.0,0.0,0.0,0.0,0.0,0.0,0.0,0.0,0.0,0.0,-6.9891,-6.9891,-6.9891,-6.9588,-6.8982,-6.7504,-6.6591,-6.5724,-6.3944,-6.3257,-6.2999,-6.2794,-6.2556,-6.236,-6.236,0.0,0.0,0.0,0.0,-6.1978,-6.1978,0.0,0.0,0.0,0.0,0.0,0.0,0.0,0.0,0.0,0.0,0.0,0.0,0.0,0.0,-6.4677,-6.5485,-6.5558,-6.4787,-6.5485,-6.6292,-6.71,-6.71,-6.7283,-6.7687,-6.8128,-6.8311,-6.8348,-6.9405,-7.014,-7.0612,-7.1276,-7.1836,-7.2338,-7.2566,-7.2906,-7.3305,-7.3521,-7.3896,-7.4316,-7.4736,-7.4889,-7.4927,-7.5348,-7.5518,-7.5518,0.0,0.0,0.0,0.0,0.0,0.0,0.0,0.0,0.0,0.0,0.0,0.0,0.0,0.0,0.0,0.0,0.0,0.0,0.0,0.0,0.0,0.0,0.0,0.0,0.0,0.0,0.0,0.0,0.0,0.0,0.0,0.0,0.0,0.0,0.0,0.0,0.0,0.0,0.0,0.0,0.0,0.0,0.0,0.0,0.0,0.0,0.0,0.0,0.0,0.0,-6.9891,-6.9891,-6.9891,-6.9891,-6.955,-6.7883,-6.7146,-6.6455,-6.47,-6.3888,-6.355,-6.3438,-6.3117,-6.2806,-6.272,-6.2402,0.0,0.0,0.0,-6.1978,-6.1978,0.0,0.0,0.0,0.0,0.0,0.0,0.0,0.0,0.0,0.0,0.0,0.0,0.0,0.0,-6.5521,-6.6292,-6.6476,-6.5852,-6.6402,-6.7026,-6.7677,-6.7871,-6.7944,-6.7944,-6.8752,-6.9155,-6.9155,-7.0443,-7.1328,-7.1816,-7.2515,-7.3098,-7.3552,-7.3552,-7.3896,-7.4469,-7.4469,-7.4889,-7.5518,-7.5518,-7.5518,-7.5518,-7.5518,-7.5518,-7.5518,0.0,0.0,0.0,0.0,0.0,0.0,0.0,0.0,0.0,0.0,0.0,0.0,0.0,0.0,0.0,0.0,0.0,0.0,0.0,0.0,0.0,0.0,0.0,0.0,0.0,0.0,0.0,0.0,0.0,0.0,0.0,0.0,0.0,0.0,0.0,0.0,0.0,0.0,0.0,0.0,0.0,0.0,0.0,0.0,0.0,0.0,0.0,0.0,0.0,0.0,0.0,-6.9891,-6.9891,-6.9891,-6.955,-6.7883,0.0,0.0,-6.478,-6.4151,-6.4029,-6.3527,-6.3393,-6.3234,-6.2818,0.0,0.0,0.0,-6.1978,-6.1978,-6.1978,-6.1978,-6.1978,0.0,0.0,0.0,0.0,0.0,0.0,0.0,0.0,0.0,0.0,0.0,0.0,-6.6366,-6.7136,-6.754,-6.7467,-6.754,-6.7614,-6.7687,-6.8421,-6.8788,-6.8788,-6.9596,-7.0,-7.0,-7.1294,-7.2186,-7.2741,-7.3951,-7.4752,-7.5289,-7.5289,-7.5327,-7.5386,-7.5386,-7.5442,-7.5518,-7.5518,-7.5518,-7.5518,-7.5518,-7.5518,-7.5518,0.0,0.0,0.0,0.0,0.0,0.0,0.0,0.0,0.0,0.0,0.0,0.0,0.0,0.0,0.0,0.0,0.0,0.0,0.0,0.0,0.0,0.0,0.0,0.0,0.0,0.0,0.0,0.0,0.0,0.0,0.0,0.0,0.0,0.0,0.0,0.0,0.0,0.0,0.0,0.0,0.0,0.0,0.0,0.0,0.0,0.0,0.0,0.0,0.0,0.0,0.0,0.0,-6.9891,-6.9891,0.0,0.0,-6.7011,-6.633,-6.4973,-6.4615,-6.4577,-6.4349,-6.3867,-6.3371,-6.3164,0.0,0.0,-6.2033,-6.1978,-6.1978,-6.1978,-6.1978,-6.1978,0.0,0.0,0.0,0.0,0.0,0.0,0.0,0.0,0.0,0.0,0.0,-6.6696,-6.7173,-6.7504,-6.7907,-6.8385,-6.8421,-6.8421,-6.8421,-6.9192,-6.9633,-6.9633,-7.044,-7.0844,-7.0844,-7.2446,-7.3335,-7.3567,-7.4672,-7.5281,-7.5518,-7.5518,-7.5518,-7.5518,-7.5518,-7.5518,-7.5518,-7.5518,-7.5518,-7.5518,-7.5518,-7.5518,-7.5518,0.0,0.0,0.0,0.0,0.0,0.0,0.0,0.0,0.0,0.0,0.0,0.0,0.0,0.0,0.0,0.0,0.0,0.0,0.0,0.0,0.0,0.0,0.0,0.0,0.0,0.0,0.0,0.0,0.0,0.0,0.0,0.0,0.0,0.0,0.0,0.0,0.0,0.0,0.0,0.0,0.0,0.0,0.0,0.0,0.0,0.0,0.0,0.0,0.0,0.0,0.0,0.0,0.0,0.0,0.0,0.0,-6.6973,-6.6253,-6.5192,-6.4888,-6.4888,-6.4888,-6.4349,-6.3787,0.0,0.0,-6.2386,-6.2238,-6.2114,-6.1978,-6.1978,-6.1978,-6.2005,0.0,0.0,0.0,0.0,0.0,0.0,0.0,0.0,0.0,0.0,0.0,-6.71,-6.765,-6.7907,-6.8311,-6.8862,-6.9376,-6.9522,-6.9265,-7.0036,-7.044,-7.044,-7.1248,-7.1736,-7.1932,-7.3342,-7.4064,-7.4259,-7.5095,-7.5518,-7.5518,-7.5518,-7.5518,-7.5518,-7.5518,-7.5518,-7.5518,-7.5518,-7.5518,-7.5518,-7.5518,-7.5518,-7.5556,0.0,0.0,0.0,0.0,0.0,0.0,0.0,0.0,0.0,0.0,0.0,0.0,0.0,0.0,0.0,0.0,0.0,0.0,0.0,0.0,0.0,0.0,0.0,0.0,0.0,0.0,0.0,0.0,0.0,0.0,0.0,0.0,0.0,0.0,0.0,0.0,0.0,0.0,0.0,0.0,0.0,0.0,0.0,0.0,0.0,0.0,0.0,0.0,0.0,0.0,0.0,0.0,0.0,0.0,0.0,0.0,-6.739,-6.7011,-6.5343,-6.4888,-6.4888,-6.4888,-6.4871,-6.4781,0.0,0.0,-6.3257,-6.2794,-6.2308,-6.1978,-6.1978,-6.1978,-6.2033,-6.2195,0.0,0.0,0.0,0.0,0.0,0.0,0.0,0.0,0.0,0.0,-6.7687,-6.7687,-6.8458,0.0,-6.8898,-7.044,-7.0917,-7.011,-7.0881,-7.1321,-7.1321,-7.2092,-7.277,-7.3298,-7.3774,-7.4221,-7.4725,-7.5263,-7.5518,-7.5518,-7.5518,-7.5518,-7.5518,-7.5518,-7.5518,-7.5518,-7.5518,-7.5518,-7.5518,-7.5518,-7.5518,-7.5615,0.0,0.0,0.0,0.0,0.0,0.0,0.0,0.0,0.0,0.0,0.0,0.0,0.0,0.0,0.0,0.0,0.0,0.0,0.0,0.0,0.0,0.0,0.0,0.0,0.0,0.0,0.0,0.0,0.0,0.0,0.0,0.0,0.0,0.0,0.0,0.0,0.0,0.0,0.0,0.0,0.0,0.0,0.0,0.0,0.0,0.0,0.0,0.0,0.0,0.0,0.0,0.0,0.0,0.0,0.0,0.0,0.0,0.0,-6.5192,-6.4888,-6.4888,-6.4888,-6.4652,-6.4367,-6.4249,0.0,-6.2855,-6.2745,-6.2334,-6.1978,-6.1978,-6.2087,-6.2168,-6.2185,0.0,0.0,0.0,0.0,0.0,0.0,0.0,0.0,0.0,0.0,-6.7907,-6.8495,-6.8752,-6.9376,-7.0477,-7.0999,-7.1211,-7.0954,-7.1725,-7.2129,-7.2129,-7.2743,-7.3114,-7.3324,-7.4087,-7.4582,-7.4725,-7.5263,-7.5518,-7.5518,-7.5518,-7.5518,-7.5518,-7.5518,-7.5518,-7.5518,-7.5518,-7.5518,-7.5577,-7.6112,-7.6303,-7.6418,0.0,0.0,0.0,0.0,0.0,0.0,0.0,0.0,0.0,0.0,0.0,0.0,0.0,0.0,0.0,0.0,0.0,0.0,0.0,0.0,0.0,0.0,0.0,0.0,0.0,0.0,0.0,0.0,0.0,0.0,0.0,0.0,0.0,0.0,0.0,0.0,0.0,0.0,0.0,0.0,0.0,0.0,-7.4743,0.0,0.0,0.0,0.0,0.0,0.0,0.0,0.0,0.0,0.0,0.0,0.0,0.0,0.0,0.0,0.0,-6.5154,-6.4888,-6.4888,-6.467,0.0,0.0,0.0,0.0,-6.3036,-6.2863,-6.2648,-6.2467,-6.2803,-6.3012,-6.2774,0.0,0.0,0.0,0.0,0.0,0.0,0.0,0.0,0.0,-6.7944,-6.8348,-6.8862,-6.9486,-7.0257,-7.1219,-7.1615,-7.1847,-7.206,-7.254,-7.2798,-7.2798,-7.3287,-7.3628,-7.3845,-7.4396,-7.4805,-7.5,-7.5356,-7.5518,-7.5518,-7.5518,-7.5518,0.0,-7.5518,-7.5518,-7.5556,-7.5806,-7.5959,-7.6036,-7.6876,-7.7182,-7.7335,0.0,0.0,0.0,0.0,0.0,0.0,0.0,0.0,0.0,0.0,0.0,0.0,0.0,0.0,0.0,0.0,0.0,0.0,0.0,0.0,0.0,0.0,0.0,0.0,0.0,0.0,0.0,-7.5209,-7.5209,-7.5209,-7.5209,0.0,0.0,0.0,0.0,0.0,0.0,-7.5075,-7.5017,0.0,0.0,-7.4915,0.0,0.0,0.0,0.0,0.0,0.0,0.0,0.0,0.0,0.0,0.0,0.0,0.0,0.0,0.0,0.0,0.0,0.0,0.0,0.0,0.0,0.0,0.0,0.0,0.0,0.0,0.0,0.0,-6.343,-6.4103,-6.4521,-6.3819,0.0,0.0,0.0,0.0,0.0,0.0,0.0,0.0,-6.7841,-6.8512,-6.899,-6.91,-7.044,-7.1293,-7.1366,-7.212,-7.277,-7.3298,-7.3338,-7.3364,-7.3376,-7.3821,-7.4265,-7.4705,-7.4745,-7.5,-7.5518,-7.5518,-7.5518,-7.5518,-7.5518,-7.5518,-7.5518,-7.5539,-7.5594,-7.5671,-7.6494,-7.68,-7.6914,-7.7755,-7.8099,-7.8213,0.0,0.0,0.0,0.0,0.0,0.0,0.0,0.0,0.0,0.0,0.0,0.0,0.0,0.0,0.0,0.0,0.0,0.0,0.0,0.0,0.0,0.0,0.0,0.0,0.0,0.0,0.0,-7.5283,-7.5247,-7.5247,-7.5283,-7.5247,0.0,0.0,0.0,-7.5209,-7.519,-7.5171,-7.5095,0.0,-7.5113,-7.5094,0.0,0.0,0.0,0.0,-7.0573,-6.9929,0.0,0.0,0.0,0.0,0.0,0.0,0.0,0.0,-6.8982,0.0,0.0,0.0,0.0,0.0,0.0,0.0,0.0,0.0,0.0,0.0,0.0,0.0,0.0,0.0,0.0,0.0,0.0,0.0,0.0,0.0,0.0,0.0,0.0,-6.888,-6.9125,-6.9309,-6.9939,-7.1187,-7.1278,-7.1578,-7.2202,-7.2797,-7.3167,-7.3298,-7.4009,-7.4177,-7.3845,-7.4287,-7.4602,-7.4725,-7.5114,-7.5392,-7.5518,-7.5518,-7.5518,-7.5518,-7.5518,-7.5518,-7.5556,-7.615,-7.6418,-7.6494,-7.7373,-7.7678,-7.7793,-7.8672,-7.8978,-7.9092,0.0,0.0,0.0,0.0,0.0,0.0,0.0,0.0,0.0,0.0,0.0,0.0,0.0,0.0,0.0,0.0,0.0,0.0,0.0,0.0,0.0,0.0,0.0,0.0,0.0,0.0,0.0,0.0,0.0,-7.5376,0.0,0.0,0.0,0.0,0.0,-7.5339,-7.5339,-7.5246,-7.5209,-7.5114,-7.5152,0.0,0.0,0.0,0.0,0.0,-7.0477,-6.9966,0.0,-6.9984,-6.9966,-6.9967,0.0,0.0,0.0,0.0,-6.936,0.0,0.0,0.0,0.0,0.0,0.0,0.0,0.0,0.0,0.0,0.0,0.0,0.0,0.0,0.0,0.0,0.0,0.0,0.0,0.0,0.0,0.0,0.0,0.0,-6.9716,0.0,-7.0616,-7.1341,-7.1949,-7.2119,-7.2401,-7.2844,-7.3141,-7.3491,-7.394,-7.4417,-7.4602,-7.4309,-7.4824,-7.5076,-7.5076,-7.5374,-7.5518,-7.5518,-7.5518,-7.5518,-7.5518,-7.5518,-7.5692,-7.6074,-7.6532,-7.6953,-7.7373,-7.8252,-7.8596,-7.871,-7.9551,-7.9856,-7.9895,0.0,0.0,0.0,0.0,0.0,0.0,0.0,0.0,0.0,0.0,0.0,0.0,0.0,0.0,0.0,0.0,0.0,0.0,0.0,0.0,0.0,0.0,0.0,0.0,0.0,0.0,0.0,0.0,0.0,0.0,0.0,0.0,-7.5518,0.0,0.0,-7.5518,-7.5501,-7.5374,-7.5338,-7.5281,-7.5132,0.0,0.0,0.0,0.0,0.0,0.0,0.0,0.0,-7.0039,-7.0039,-7.0021,-7.0021,0.0,0.0,0.0,0.0,0.0,0.0,0.0,-6.6327,-6.5495,-6.5267,0.0,0.0,0.0,0.0,0.0,0.0,0.0,0.0,0.0,0.0,0.0,0.0,0.0,0.0,0.0,0.0,0.0,0.0,0.0,-7.0611,-7.2003,-7.2762,-7.2422,-7.3031,-7.339,-7.339,-7.3466,-7.3893,-7.4685,-7.4786,-7.4805,-7.4805,-7.5263,-7.5518,-7.5518,-7.5518,-7.5518,-7.5518,-7.5518,-7.5577,-7.5653,-7.5653,-7.615,-7.6914,-7.7029,-7.7526,-7.829,-7.913,-7.9474,-7.9551,-8.0238,-8.0506,-8.0506,0.0,0.0,0.0,0.0,0.0,0.0,0.0,0.0,0.0,0.0,0.0,0.0,0.0,0.0,0.0,0.0,0.0,0.0,0.0,0.0,0.0,0.0,0.0,0.0,0.0,0.0,0.0,0.0,0.0,0.0,-7.5518,-7.5518,-7.5518,-7.5518,-7.5518,-7.5518,-7.5518,-7.5501,-7.5392,-7.5243,-7.4628,0.0,0.0,0.0,0.0,0.0,0.0,0.0,0.0,-7.0217,-7.022,-7.0167,-7.0167,0.0,0.0,0.0,0.0,0.0,-6.9029,-6.8666,-6.8233,-6.7237,-6.7011,-6.7067,0.0,0.0,0.0,0.0,0.0,0.0,0.0,0.0,0.0,0.0,0.0,0.0,0.0,0.0,0.0,0.0,0.0,-7.1631,-7.1937,-7.2823,-7.3615,-7.4254,-7.4034,-7.3893,-7.3893,-7.4265,-7.4523,-7.4705,-7.5132,-7.5392,-7.5392,-7.5445,-7.5518,-7.5518,-7.5518,-7.5518,-7.5518,-7.5518,-7.5844,-7.6532,-7.6532,-7.6991,-7.787,-7.8596,-7.8996,-7.9169,-8.0009,-8.0315,-8.0315,-8.043,-8.0506,-8.0621,0.0,0.0,0.0,0.0,0.0,0.0,0.0,0.0,0.0,0.0,0.0,0.0,0.0,0.0,0.0,0.0,0.0,0.0,0.0,0.0,0.0,0.0,0.0,0.0,0.0,0.0,0.0,0.0,0.0,-7.5825,-7.5708,-7.5566,-7.5518,-7.5518,-7.5518,-7.5518,-7.5518,-7.5518,-7.5177,-7.4666,0.0,0.0,0.0,0.0,0.0,0.0,0.0,0.0,0.0,0.0,-7.0289,-7.0255,-7.0255,0.0,0.0,0.0,0.0,0.0,-6.969,-6.9611,-6.9535,-6.9031,-6.8235,0.0,0.0,0.0,0.0,0.0,0.0,0.0,0.0,0.0,0.0,0.0,0.0,0.0,0.0,0.0,-7.0506,0.0,0.0,-7.266,-7.3285,-7.4104,-7.4619,-7.4687,-7.4481,-7.4353,-7.4353,-7.4564,-7.4825,-7.5114,-7.5374,-7.5518,-7.5518,-7.5518,-7.5518,-7.5518,-7.5518,-7.5518,-7.5518,-7.5959,-7.6341,-7.6723,-7.7182,-7.7908,-7.871,-7.9149,-7.9569,-7.9971,-8.0353,-8.0506,-8.0544,-8.1041,-8.1461,-8.192,0.0,0.0,0.0,0.0,0.0,0.0,0.0,0.0,0.0,0.0,0.0,0.0,0.0,0.0,0.0,0.0,0.0,0.0,0.0,0.0,0.0,0.0,0.0,0.0,0.0,0.0,-7.6468,-7.6618,-7.6231,-7.6002,-7.5885,-7.5633,-7.5518,0.0,-7.5518,-7.5518,-7.548,-7.5271,-7.4813,-7.4163,0.0,0.0,0.0,0.0,0.0,0.0,0.0,0.0,0.0,0.0,0.0,0.0,0.0,0.0,0.0,0.0,0.0,-7.0268,-7.0255,-7.0268,-7.0302,0.0,0.0,0.0,0.0,0.0,0.0,0.0,0.0,0.0,0.0,0.0,0.0,0.0,0.0,0.0,-7.0419,-7.0419,-7.0724,-7.1603,-7.2482,-7.3323,-7.4125,-7.5004,-7.5318,-7.4922,-7.4903,-7.4903,-7.4903,-7.4903,-7.5076,-7.5501,-7.5518,-7.5518,-7.5518,-7.5518,-7.5518,-7.5518,-7.5518,-7.5594,-7.5806,-7.6418,-7.6914,-7.7335,-7.8022,-7.8787,-7.9589,-7.9589,-7.9933,-8.0506,-8.0506,-8.0621,-8.0926,-8.1767,-8.2607,-8.3295,0.0,0.0,0.0,0.0,0.0,0.0,0.0,0.0,0.0,0.0,0.0,0.0,0.0,0.0,0.0,0.0,0.0,0.0,0.0,0.0,0.0,0.0,0.0,0.0,0.0,-7.7793,-7.6837,-7.6618,-7.6582,-7.6322,-7.5885,-7.5633,-7.5518,-7.5518,-7.5518,-7.5518,-7.5442,-7.4622,-7.4278,-7.4049,-7.252,0.0,0.0,0.0,0.0,0.0,0.0,0.0,0.0,0.0,0.0,0.0,0.0,0.0,0.0,0.0,0.0,-7.0302,-7.0369,-7.0402,-7.0402,0.0,0.0,0.0,0.0,0.0,0.0,0.0,0.0,0.0,0.0,0.0,0.0,0.0,0.0,0.0,-7.0419,0.0,-7.0724,-7.1603,-7.2482,-7.3323,-7.4125,-7.5004,-7.5462,-7.5427,-7.5427,-7.5427,-7.5427,-7.5427,-7.5445,-7.5518,-7.5518,-7.5518,-7.5518,-7.5518,-7.5518,-7.5518,-7.5518,-7.5883,-7.6609,-7.6685,-7.7564,-7.9111,-7.9187,-7.9665,-8.0391,-8.0391,-8.043,-8.0506,-8.0506,-8.1003,-8.1805,-8.2607,-8.3448,-8.4212,0.0,0.0,0.0,0.0,0.0,0.0,0.0,0.0,0.0,0.0,0.0,0.0,0.0,0.0,0.0,0.0,0.0,0.0,0.0,0.0,0.0,0.0,0.0,-8.0033,-7.9532,-7.7857,-7.6936,-7.6844,-7.6668,-7.6355,-7.5899,-7.5818,0.0,0.0,-7.5518,-7.5195,-7.466,-7.4354,-7.359,-7.2597,-7.1947,-7.1374,0.0,0.0,0.0,0.0,0.0,0.0,0.0,0.0,0.0,0.0,0.0,0.0,0.0,0.0,0.0,-7.0369,-7.0402,-7.0419,0.0,0.0,0.0,0.0,0.0,0.0,0.0,0.0,0.0,0.0,0.0,0.0,0.0,0.0,0.0,0.0,-7.0419,-7.0877,-7.1527,-7.2406,-7.3246,-7.4087,-7.4927,-7.531,-7.5518,-7.5518,-7.5518,-7.5518,-7.5518,-7.5518,-7.5518,-7.5518,-7.5518,-7.5518,-7.5518,-7.5518,-7.573,-7.6265,-7.6265,-7.6418,-7.6723,-7.7831,-7.8672,-7.934,-7.9818,-8.02,-8.0506,-8.0506,-8.0812,-8.1347,-8.1843,-8.2569,-8.3372,-8.3677,-8.4327,-8.5053,0.0,0.0,0.0,0.0,0.0,0.0,0.0,0.0,0.0,0.0,0.0,0.0,0.0,0.0,0.0,0.0,0.0,0.0,0.0,0.0,0.0,0.0,0.0,-8.0383,-7.9532,-7.8129,-7.7272,-7.6999,-7.6739,-7.6397,-7.6002,0.0,0.0,0.0,0.0,-7.4775,-7.4163,-7.3628,-7.275,-7.168,-7.1412,-7.0916,0.0,0.0,0.0,0.0,0.0,0.0,0.0,0.0,0.0,0.0,0.0,0.0,0.0,0.0,0.0,0.0,-7.0419,-7.0419,0.0,0.0,0.0,0.0,0.0,0.0,0.0,0.0,0.0,0.0,0.0,0.0,0.0,0.0,-7.0419,-7.0495,-7.0763,-7.1298,-7.21,-7.3246,-7.3858,-7.4545,-7.5424,-7.5518,-7.5518,-7.5518,-7.5518,-7.5518,-7.5518,-7.5518,-7.5518,-7.5518,-7.5518,-7.5518,-7.5518,-7.573,-7.615,-7.6723,-7.7258,-7.7526,-7.7564,-7.8748,-7.9454,-7.9704,-8.0238,-8.0659,-8.0926,-8.0926,-8.1423,-8.2264,-8.3066,-8.3754,-8.4327,-8.4594,-8.5015,-8.5511,0.0,0.0,0.0,0.0,0.0,0.0,0.0,0.0,0.0,0.0,0.0,0.0,0.0,0.0,0.0,0.0,0.0,0.0,0.0,0.0,0.0,0.0,0.0,-8.0383,-7.9532,-7.8714,-7.7857,-7.6999,-7.6739,-7.6478,-7.6204,-7.6002,0.0,0.0,0.0,0.0,-7.4087,-7.2406,-7.168,-7.1603,-7.0763,-7.0419,-7.0419,0.0,0.0,0.0,0.0,0.0,0.0,0.0,0.0,0.0,0.0,0.0,0.0,0.0,0.0,-7.0419,-7.0419,0.0,0.0,0.0,0.0,0.0,0.0,0.0,0.0,0.0,0.0,0.0,0.0,0.0,0.0,-7.0419,-7.0419,-7.0686,-7.1565,-7.1735,-7.2329,-7.401,-7.4201,-7.4545,-7.5424,-7.5518,-7.5518,-7.5518,-7.5518,-7.5518,-7.5518,-7.5518,-7.5518,-7.5518,-7.5518,-7.5518,-7.5518,-7.6303,-7.6723,-7.6761,-7.8481,-7.9302,-7.9302,-7.9302,-7.9742,-8.0506,-8.0506,-8.1003,-8.1805,-8.1805,-8.2302,-8.3104,-8.3983,-8.4289,-8.4403,-8.5206,-8.5511,-8.5511,0.0,0.0,0.0,0.0,0.0,0.0,0.0,0.0,0.0,0.0,0.0,0.0,0.0,0.0,0.0,0.0,0.0,0.0,0.0,0.0,0.0,0.0,0.0,0.0,0.0,0.0,-7.7272,-7.6999,-7.6923,-7.6747,0.0,0.0,0.0,-7.5749,0.0,0.0,-7.3284,-7.2176,-7.1336,-7.0763,-7.0495,-7.0419,-7.0419,0.0,0.0,0.0,0.0,0.0,0.0,0.0,0.0,0.0,0.0,0.0,0.0,0.0,-7.0419,-7.0419,-7.0419,0.0,0.0,0.0,0.0,0.0,0.0,0.0,0.0,0.0,0.0,0.0,0.0,0.0,0.0,-7.0419,-7.0419,-7.0686,-7.1565,-7.2215,-7.3017,-7.4087,-7.4736,-7.5233,-7.5462,-7.5518,-7.5518,-7.5518,-7.5518,-7.5518,-7.5518,-7.5518,-7.5518,-7.5518,-7.6036,-7.6341,-7.6341,-7.7182,-7.7908,-7.8519,-7.9072,-7.9302,-7.934,-7.9895,-8.0277,-8.0544,-8.1156,-8.1576,-8.1881,-8.3066,-8.3715,-8.3983,-8.4824,-8.5129,-8.5167,-8.5397,-8.5511,-8.5511,0.0,0.0,0.0,0.0,0.0,0.0,0.0,0.0,0.0,0.0,0.0,0.0,0.0,0.0,0.0,0.0,0.0,0.0,0.0,0.0,0.0,0.0,0.0,0.0,0.0,-7.8207,-7.735,0.0,0.0,0.0,0.0,0.0,0.0,-7.5846,0.0,-7.3437,-7.2902,-7.168,-7.0877,-7.0419,-7.0419,-7.0419,-7.0419,0.0,0.0,0.0,0.0,0.0,0.0,0.0,0.0,0.0,0.0,0.0,0.0,0.0,-7.0419,-7.0419,0.0,0.0,0.0,0.0,0.0,0.0,0.0,0.0,0.0,0.0,0.0,0.0,0.0,0.0,0.0,-7.0419,-7.0686,-7.1221,-7.21,-7.2941,-7.3781,-7.4622,-7.5157,-7.5518,-7.5518,-7.5518,-7.5518,-7.5518,-7.5518,-7.5518,-7.5518,-7.5518,-7.5653,-7.5959,-7.6456,-7.6876,-7.722,-7.8061,-7.8787,-7.9302,-7.9627,-7.9971,-8.0277,-8.043,-8.0697,-8.1079,-8.2264,-8.2798,-8.2913,-8.4212,-8.4785,-8.4824,-8.532,-8.5511,-8.5511,-8.5511,-8.5511,-8.5511,0.0,0.0,0.0,0.0,0.0,0.0,0.0,0.0,0.0,0.0,0.0,0.0,0.0,0.0,0.0,0.0,0.0,0.0,0.0,0.0,0.0,0.0,0.0,0.0,0.0,0.0,0.0,0.0,0.0,0.0,0.0,0.0,-7.6146,-7.5851,0.0,-7.3012,-7.2902,-7.1145,-7.0419,-7.0419,-7.0419,-7.0419,-7.0419,-7.0419,0.0,0.0,0.0,0.0,0.0,0.0,0.0,0.0,0.0,0.0,0.0,0.0,-7.0419,0.0,0.0,0.0,0.0,0.0,0.0,0.0,0.0,0.0,0.0,0.0,0.0,0.0,0.0,-7.0419,-7.0419,-7.0533,-7.1183,-7.2024,-7.2979,-7.3743,-7.4507,-7.5403,-7.5518,-7.5518,-7.5518,-7.5518,-7.5518,-7.5518,-7.5518,-7.5518,-7.5518,-7.5577,-7.5921,-7.6685,-7.6838,-7.7335,-7.8099,-7.8978,-7.9416,-7.9416,-8.0238,-8.1041,-8.1767,-8.0964,-8.1117,-8.2111,-8.3639,-8.4327,-8.448,-8.5206,-8.5511,-8.5511,-8.5511,-8.5511,-8.5511,-8.5511,-8.5511,-8.5511,0.0,0.0,0.0,0.0,0.0,0.0,0.0,0.0,0.0,0.0,0.0,0.0,0.0,0.0,0.0,0.0,0.0,0.0,0.0,0.0,0.0,0.0,0.0,0.0,0.0,0.0,0.0,0.0,0.0,0.0,0.0,0.0,0.0,-7.603,0.0,-7.3139,-7.2902,-7.1145,-7.0419,-7.0419,-7.0419,-7.0419,-7.0419,-7.0419,-7.0419,0.0,0.0,0.0,0.0,0.0,0.0,0.0,-7.0419,-7.0419,-7.0419,-7.0419,-7.0419,0.0,0.0,0.0,0.0,0.0,0.0,0.0,0.0,0.0,0.0,0.0,0.0,0.0,0.0,-7.0419,-7.061,-7.1298,-7.1565,-7.2215,-7.3743,-7.4087,-7.4507,-7.5403,-7.5518,-7.5518,-7.5518,-7.5518,-7.5518,-7.5518,-7.5518,-7.5518,-7.5518,-7.6112,-7.6532,-7.6685,-7.8022,-7.8843,-7.9016,-7.9818,-8.0238,-8.0238,-8.1117,-8.1614,-8.1805,-8.1614,-8.234,-8.3792,-8.4136,-8.4671,-8.5282,-8.5435,-8.5511,-8.5511,-8.5511,-8.5511,-8.5511,-8.5511,-8.5511,-8.5511,0.0,0.0,0.0,0.0,0.0,0.0,0.0,0.0,0.0,0.0,0.0,0.0,0.0,0.0,0.0,0.0,0.0,0.0,0.0,0.0,0.0,0.0,0.0,0.0,0.0,0.0,0.0,0.0,0.0,0.0,0.0,0.0,0.0,-7.6115,0.0,-7.32,-7.2902,-7.1145,-7.0419,-7.0419,-7.0419,-7.0419,-7.0419,-7.0419,-7.0419,-7.0419,-7.0419,0.0,0.0,0.0,0.0,0.0,0.0,0.0,-7.0419,-7.0419,-7.0419,-7.0419,0.0,0.0,0.0,0.0,0.0,0.0,0.0,0.0,0.0,0.0,0.0,0.0,-7.0419,-7.0724,-7.1183,-7.1642,-7.2367,-7.3208,-7.4087,-7.4545,-7.5004,-7.5442,-7.5518,-7.5518,-7.5518,-7.5518,-7.5518,-7.5518,-7.5518,-7.5518,-7.5518,-7.6265,-7.6876,-7.7296,-7.8596,-7.9474,-7.9856,-8.0277,-8.0697,-8.1117,-8.1576,-8.2225,-8.299,-8.299,-8.3486,-8.4327,-8.4709,-8.5129,-8.5511,-8.5511,-8.5511,-8.5511,-8.5511,-8.5511,-8.5511,-8.5511,-8.5511,-8.5511,0.0,0.0,0.0,0.0,0.0,0.0,0.0,0.0,0.0,0.0,0.0,0.0,0.0,0.0,0.0,0.0,0.0,0.0,0.0,0.0,0.0,0.0,0.0,0.0,0.0,0.0,0.0,0.0,0.0,0.0,0.0,0.0,0.0,-7.6184,0.0,0.0,-7.3194,-7.1543,-7.0839,-7.0839,-7.0839,-7.0839,-7.0839,-7.0839,-7.0763,-7.061,-7.061,-7.0533,-7.0419,-7.0419,0.0,0.0,0.0,0.0,-7.0419,-7.0419,-7.0419,-7.0419,0.0,0.0,0.0,0.0,0.0,0.0,0.0,0.0,0.0,0.0,0.0,0.0,-7.061,-7.1221,-7.1794,-7.2062,-7.3284,-7.424,-7.4393,-7.5042,-7.5518,-7.5518,-7.5518,-7.5518,-7.5518,-7.5518,-7.5518,-7.5518,-7.5518,-7.5539,-7.5692,-7.6494,-7.7335,-7.8213,-7.9054,-7.9818,-8.0506,-8.0659,-8.1079,-8.1805,-8.2111,-8.3028,-8.4518,-8.4518,-8.4518,-8.4556,-8.5206,-8.5511,-8.5511,-8.5511,-8.5511,-8.5511,-8.5511,-8.5511,-8.5511,-8.5511,-8.5588,-8.5741,0.0,0.0,0.0,0.0,0.0,0.0,0.0,0.0,0.0,0.0,0.0,0.0,0.0,0.0,0.0,0.0,0.0,0.0,0.0,0.0,0.0,0.0,0.0,0.0,0.0,0.0,0.0,0.0,0.0,0.0,0.0,0.0,0.0,-7.6486,0.0,0.0,0.0,-7.315,-7.2635,-7.2635,-7.2635,-7.2635,-7.2635,-7.2635,-7.2176,-7.1527,-7.1527,-7.103,-7.0419,-7.0419,-7.0419,0.0,0.0,0.0,-7.0419,-7.0419,-7.0419,0.0,0.0,0.0,0.0,0.0,0.0,0.0,0.0,0.0,0.0,0.0,0.0,-7.0648,-7.1374,-7.1603,-7.2176,-7.3628,-7.4049,-7.4469,-7.5233,-7.5442,-7.5518,-7.5518,-7.5518,-7.5518,-7.5518,-7.5518,-7.5518,-7.5518,-7.5518,-7.5806,-7.6494,-7.7373,-7.8213,-7.9092,-7.9933,-8.0391,-8.0506,-8.1232,-8.169,-8.1805,-8.3257,-8.4441,-8.5358,-8.5358,-8.5358,-8.5358,-8.5473,-8.5511,-8.5511,-8.5511,-8.5511,-8.5511,-8.5511,-8.5511,-8.5511,-8.5511,-8.597,-8.6658,0.0,0.0,0.0,0.0,0.0,0.0,0.0,0.0,0.0,0.0,0.0,0.0,0.0,0.0,0.0,0.0,0.0,0.0,0.0,0.0,0.0,0.0,0.0,0.0,0.0,0.0,0.0,0.0,0.0,0.0,0.0,-7.6999,-7.6851,0.0,0.0,0.0,0.0,0.0,-7.2979,-7.2979,-7.2979,-7.2979,0.0,-7.2979,-7.275,-7.2406,-7.2406,-7.2176,-7.1794,-7.1298,-7.1145,-7.103,-7.0572,0.0,0.0,0.0,-7.0419,0.0,0.0,0.0,0.0,0.0,0.0,0.0,0.0,0.0,0.0,0.0,-7.21,-7.1985,-7.2367,-7.2788,-7.3323,-7.4087,-7.4622,-7.5042,-7.5442,-7.5518,-7.5518,-7.5518,-7.5518,-7.5518,-7.5518,-7.5518,-7.5518,-7.5518,-7.5921,-7.6341,-7.6685,-7.7984,-7.8901,-7.9302,-8.0086,-8.0506,-8.0506,-8.1347,-8.2264,-8.3219,-8.4403,-8.5167,-8.5511,-8.5511,-8.5511,-8.5511,-8.5511,-8.5511,-8.5511,-8.5511,-8.5511,-8.5511,-8.5511,-8.5817,-8.6237,-8.6237,-8.6772,-8.7536,0.0,0.0,0.0,0.0,0.0,0.0,0.0,0.0,0.0,0.0,0.0,0.0,0.0,0.0,0.0,0.0,0.0,0.0,0.0,0.0,0.0,0.0,0.0,0.0,0.0,0.0,0.0,0.0,0.0,0.0,-7.6999,-7.6999,-7.6904,0.0,-7.5789,0.0,0.0,0.0,0.0,0.0,0.0,0.0,0.0,0.0,0.0,0.0,-7.3284,-7.317,-7.2902,-7.2253,-7.2024,-7.1909,-7.1259,-7.0916,0.0,0.0,0.0,0.0,0.0,0.0,0.0,0.0,0.0,0.0,0.0,0.0,0.0,0.0,-7.3284,-7.3361,-7.359,-7.3934,-7.4278,-7.4507,-7.508,-7.5518,-7.5518,-7.5518,-7.5518,-7.5518,-7.5518,-7.5518,-7.5518,-7.5518,-7.5594,-7.5768,-7.6341,-7.6876,-7.7335,-7.8614,-7.9378,-7.9607,-8.02,-8.0621,-8.0812,-8.1881,-8.3181,-8.4594,-8.5206,-8.5511,-8.5511,-8.5511,-8.5511,-8.5511,-8.5511,-8.5511,-8.5511,-8.5511,-8.5626,-8.5855,-8.5855,-8.6352,-8.7154,-8.7154,-8.7689,-8.8415,0.0,0.0,0.0,0.0,0.0,0.0,0.0,0.0,0.0,0.0,0.0,0.0,0.0,0.0,0.0,0.0,0.0,0.0,0.0,0.0,0.0,0.0,0.0,0.0,0.0,0.0,0.0,0.0,0.0,0.0,-7.6999,-7.6999,-7.6993,-7.6981,-7.6638,-7.6371,-7.6091,0.0,0.0,0.0,0.0,0.0,0.0,0.0,0.0,0.0,-7.4125,-7.3667,-7.2979,-7.2941,-7.2941,-7.2902,-7.2864,-7.2291,-7.1642,0.0,0.0,0.0,0.0,0.0,0.0,0.0,0.0,0.0,0.0,0.0,0.0,0.0,-7.4125,-7.4393,-7.5195,-7.4736,-7.4469,-7.531,-7.5462,-7.5518,-7.5518,-7.5518,-7.5518,-7.5518,-7.5518,-7.5518,-7.5518,-7.5518,-7.5806,-7.657,-7.6685,-7.7411,-7.9072,-7.9263,-7.9627,-8.0391,-8.0468,-8.0888,-8.1729,-8.3333,-8.4594,-8.5435,-8.5473,-8.5511,-8.5511,-8.5511,-8.5511,-8.5511,-8.5511,-8.5511,-8.5511,-8.5511,-8.6008,-8.6734,-8.6734,-8.7269,-8.8033,-8.8033,-8.853,-8.9256,0.0,0.0,0.0,0.0,0.0,0.0,0.0,0.0,0.0,0.0,0.0,0.0,0.0,0.0,0.0,0.0,0.0,0.0,0.0,0.0,0.0,0.0,0.0,0.0,0.0,0.0,0.0,0.0,0.0,-7.6999,-7.6999,-7.6999,-7.6999,-7.6993,-7.6731,-7.6468,-7.6192,-7.5988,0.0,0.0,0.0,0.0,0.0,0.0,0.0,-7.5042,-7.5042,-7.4851,-7.4507,-7.3972,-7.3781,-7.3667,-7.317,-7.2788,-7.2406,-7.1871,0.0,0.0,0.0,0.0,0.0,0.0,0.0,0.0,0.0,0.0,0.0,0.0,-7.5042,-7.5119,-7.5442,-7.5233,-7.5119,-7.5442,-7.5518,-7.5518,-7.5518,-7.5518,-7.5518,-7.5518,-7.5518,-7.5518,-7.5518,-7.5959,-7.6379,-7.6685,-7.7717,-7.8652,-7.9263,-7.978,-8.02,-8.0506,-8.1041,-8.1996,-8.3372,-8.3983,-8.4709,-8.5511,-8.5511,-8.5511,-8.5511,-8.5511,-8.5511,-8.555,-8.6084,-8.6352,-8.6352,-8.6352,-8.6849,-8.7613,-8.7613,-8.8148,-8.8874,-8.8874,-8.9409,-9.0135,0.0,0.0,0.0,0.0,0.0,0.0,0.0,0.0,0.0,0.0,0.0,0.0,0.0,0.0,0.0,0.0,0.0,0.0,0.0,0.0,0.0,0.0,0.0,0.0,0.0,0.0,0.0,0.0,0.0,0.0,0.0,-7.6999,-7.6999,-7.6993,-7.6823,-7.6525,0.0,0.0,0.0,-7.5518,0.0,0.0,-7.5518,0.0,0.0,-7.5518,-7.5518,-7.5518,-7.5386,-7.4813,-7.4622,-7.4545,-7.401,0.0,0.0,0.0,0.0,0.0,0.0,0.0,0.0,0.0,0.0,0.0,0.0,0.0,0.0,0.0,-7.5518,-7.5518,-7.5518,-7.5518,-7.5518,-7.5518,-7.5518,-7.5518,-7.5518,-7.5518,-7.5518,-7.5518,-7.5518,-7.5518,-7.5518,-7.6227,-7.6838,-7.7105,-7.8481,-7.9416,-7.9665,-8.02,-8.0621,-8.0926,-8.2034,-8.3181,-8.4289,-8.4556,-8.4976,-8.5511,-8.5511,-8.5511,-8.5511,-8.5511,-8.5664,-8.597,-8.6543,-8.679,-8.681,-8.7116,-8.7727,-8.8492,-8.8492,-8.9027,-8.9752,-8.9752,-9.0096,-9.0593,0.0,0.0,0.0,0.0,0.0,0.0,0.0,0.0,0.0,0.0,0.0,0.0,0.0,0.0,0.0,0.0,0.0,0.0,0.0,0.0,0.0,0.0,0.0,0.0,0.0,0.0,0.0,0.0,0.0,0.0,0.0,0.0,-7.6999,0.0,-7.6999,-7.6723,-7.6216,0.0,-7.5936,-7.5518,0.0,-7.5518,-7.5518,0.0,-7.5518,-7.5518,-7.5518,-7.5518,-7.5518,-7.5518,-7.5518,-7.5518,0.0,0.0,0.0,0.0,0.0,0.0,0.0,0.0,0.0,0.0,0.0,0.0,0.0,0.0,0.0,0.0,-7.5518,-7.5518,-7.5518,-7.5518,-7.5518,-7.5518,-7.5518,-7.5518,-7.5518,-7.5518,-7.5518,-7.5518,-7.5518,-7.5518,-7.5556,-7.6265,-7.7105,-7.7984,-7.8825,-7.9684,-8.0468,-8.0506,-8.0926,-8.1805,-8.3448,-8.4289,-8.4327,-8.5129,-8.5511,-8.5511,-8.5511,-8.5511,-8.5511,-8.555,-8.6008,-8.679,-8.6849,-8.6887,-8.6963,-8.7804,-8.8606,-8.9332,-8.9332,-8.9867,-9.0593,-9.0593,-9.0593,-9.0593,0.0,0.0,0.0,0.0,0.0,0.0,0.0,0.0,0.0,0.0,0.0,0.0,0.0,0.0,0.0,0.0,0.0,0.0,0.0,0.0,0.0,0.0,0.0,0.0,0.0,0.0,0.0,0.0,0.0,0.0,0.0,0.0,0.0,0.0,-7.6999,-7.6823,-7.6488,-7.6284,0.0,-7.5787,-7.5583,-7.5518,0.0,0.0,-7.5518,-7.5518,-7.5518,-7.5518,-7.5518,-7.5518,-7.5518,-7.5518,0.0,0.0,0.0,0.0,0.0,0.0,-7.317,0.0,0.0,0.0,0.0,0.0,0.0,0.0,0.0,0.0,-7.5518,-7.5518,-7.5518,-7.5518,-7.5518,-7.5518,-7.5518,-7.5518,-7.5518,-7.5518,-7.5518,-7.5518,-7.5518,-7.573,-7.6303,-7.7144,-7.7984,0.0,-7.9704,-8.0277,-8.0506,-8.1117,-8.1805,-8.2646,-8.3715,-8.4594,-8.5167,-8.5397,-8.5511,-8.5511,-8.5511,-8.5511,-8.5511,-8.6161,-8.6581,-8.6887,-8.8071,-8.8606,-8.8644,-8.8874,-8.9485,-9.0249,-9.0249,-9.0402,-9.0593,-9.0593,-9.0593,-9.0593,0.0,0.0,0.0,0.0,0.0,0.0,0.0,0.0,0.0,0.0,0.0,0.0,0.0,0.0,0.0,0.0,0.0,0.0,0.0,0.0,0.0,0.0,0.0,0.0,0.0,0.0,0.0,0.0,0.0,0.0,0.0,0.0,0.0,0.0,0.0,0.0,0.0,0.0,0.0,0.0,-7.5616,0.0,0.0,-7.5518,-7.5518,-7.5518,-7.5518,-7.5518,-7.5518,-7.5518,-7.5518,-7.5518,0.0,0.0,0.0,0.0,0.0,0.0,0.0,0.0,0.0,0.0,0.0,0.0,-7.5518,-7.5518,-7.5518,0.0,-7.5518,-7.5518,-7.5518,-7.5518,-7.5518,-7.5518,-7.5518,-7.5518,-7.5518,-7.5518,-7.5518,-7.5518,-7.5806,-7.6188,-7.6647,-7.7831,-7.8748,-7.9263,-8.0047,-8.0659,-8.1003,-8.1843,-8.2684,-8.3524,-8.4365,-8.5015,-8.5511,-8.5511,-8.5511,-8.5511,-8.5511,-8.5702,-8.6084,-8.6581,-8.7192,-8.7918,-8.8874,-8.9523,-8.9829,-8.9829,-9.0135,-9.0593,-9.0593,-9.0593,-9.0593,-9.0593,-9.0593,-9.0593,0.0,0.0,0.0,0.0,0.0,0.0,0.0,0.0,0.0,0.0,0.0,0.0,0.0,0.0,0.0,0.0,0.0,0.0,0.0,0.0,0.0,0.0,0.0,0.0,0.0,0.0,0.0,0.0,0.0,0.0,0.0,0.0,0.0,0.0,0.0,0.0,0.0,0.0,0.0,-7.5971,-7.5649,-7.5518,0.0,0.0,-7.5518,-7.5518,-7.5518,-7.5518,-7.5518,-7.5518,-7.5518,0.0,0.0,0.0,0.0,0.0,-7.5518,0.0,0.0,0.0,0.0,0.0,0.0,0.0,-7.5518,-7.5518,-7.5518,-7.5518,-7.5518,-7.5518,-7.5518,-7.5518,-7.5518,-7.5518,-7.5518,-7.5518,-7.5518,-7.5518,-7.5518,-7.5518,-7.6188,-7.6723,-7.6838,-7.8328,-7.934,-7.9454,-8.0086,-8.0888,-8.1767,-8.2569,-8.341,-8.425,-8.5091,-8.5511,-8.5511,-8.5511,-8.5511,-8.5511,-8.5588,-8.6046,-8.681,-8.6981,-8.788,-8.9332,-8.9409,-8.9867,-9.0593,-9.0593,-9.0593,-9.0593,-9.0593,-9.0593,-9.0593,-9.0593,-9.0593,-9.0593,0.0,0.0,0.0,0.0,0.0,0.0,0.0,0.0,0.0,0.0,0.0,0.0,0.0,0.0,0.0,0.0,0.0,0.0,0.0,0.0,0.0,0.0,0.0,0.0,0.0,0.0,0.0,0.0,0.0,0.0,0.0,0.0,0.0,0.0,0.0,0.0,0.0,0.0,0.0,-7.6408,-7.5764,-7.5518,-7.5518,-7.5518,-7.5518,-7.5518,-7.5518,-7.5518,-7.5518,-7.5518,-7.5518,-7.5518,0.0,0.0,0.0,-7.5518,0.0,0.0,0.0,0.0,0.0,0.0,-7.5518,0.0,-7.5518,-7.5518,-7.5518,0.0,-7.5518,0.0,-7.5518,-7.5518,-7.5518,-7.5518,-7.5518,-7.5518,-7.5518,-7.5518,-7.5518,-7.5518,-7.6188,-7.6991,-7.7678,-7.8672,-7.9551,-8.02,-8.0391,-8.0888,-8.1767,-8.2569,-8.341,-8.425,-8.5091,-8.5511,-8.5511,-8.5511,-8.5511,-8.5511,-8.6199,-8.6658,-8.6849,-8.8224,-8.8988,-8.9332,-9.0058,-9.044,-9.0593,-9.0593,-9.0593,-9.0593,-9.0593,-9.0593,-9.0593,-9.0593,-9.0593,-9.0593,0.0,0.0,0.0,0.0,0.0,0.0,0.0,0.0,0.0,0.0,0.0,0.0,0.0,0.0,0.0,0.0,0.0,0.0,0.0,0.0,0.0,0.0,0.0,0.0,0.0,0.0,0.0,0.0,0.0,0.0,0.0,0.0,0.0,0.0,0.0,0.0,0.0,0.0,-7.6618,-7.6543,-7.607,0.0,-7.5692,-7.5692,-7.5633,-7.5518,-7.5518,-7.5518,-7.5518,-7.5518,-7.5518,0.0,-7.5518,-7.5518,-7.5518,0.0,-7.5518,-7.5518,0.0,0.0,0.0,-7.5518,-7.5518,0.0,0.0,-7.5518,-7.5518,-7.5518,-7.5518,0.0,0.0,0.0,-7.5518,-7.5518,-7.5518,-7.5518,-7.5518,-7.5518,-7.5653,-7.6036,-7.6838,-7.7678,-7.8557,-7.9398,-8.0047,-8.0468,-8.0888,-8.1499,-8.234,-8.3181,-8.4021,-8.4862,-8.5282,-8.5511,-8.5511,-8.5511,-8.5741,-8.6161,-8.6581,-8.7231,-8.8071,-8.8912,-8.9561,-8.9982,-9.0402,-9.0593,-9.0593,-9.0593,-9.0593,-9.0593,-9.0593,-9.0593,-9.0593,-9.0593,-9.0593,-9.0593,0.0,0.0,0.0,0.0,0.0,0.0,0.0,0.0,0.0,0.0,0.0,0.0,0.0,0.0,0.0,0.0,0.0,0.0,0.0,0.0,0.0,0.0,0.0,-8.2104,0.0,0.0,0.0,0.0,0.0,0.0,0.0,0.0,0.0,0.0,0.0,0.0,0.0,0.0,0.0,-7.6652,0.0,-7.6183,-7.5899,-7.5918,-7.5795,-7.5583,-7.5583,-7.5532,-7.5518,-7.5518,-7.5518,-7.5518,-7.5518,-7.5518,0.0,0.0,0.0,0.0,0.0,0.0,0.0,0.0,0.0,-7.5518,0.0,0.0,0.0,-7.5518,0.0,0.0,0.0,0.0,0.0,0.0,0.0,0.0,0.0,-7.5518,0.0,-7.6609,-7.7487,-7.8328,-7.9225,-8.0009,-8.0506,-8.0506,-8.1308,-8.2149,-8.2951,-8.383,-8.4671,-8.5473,-8.5511,-8.5511,-8.5511,-8.5664,-8.6123,-8.679,-8.7134,-8.7995,-8.9332,-8.9485,-8.9944,-9.0593,-9.0593,-9.0593,-9.0593,-9.0593,-9.0593,-9.0593,-9.0593,-9.0593,-9.0593,-9.0593,-9.0593,-9.0593,0.0,0.0,0.0,0.0,0.0,0.0,0.0,0.0,0.0,0.0,0.0,0.0,0.0,0.0,0.0,0.0,0.0,0.0,-8.2117,0.0,0.0,0.0,0.0,0.0,-8.2104,0.0,0.0,0.0,0.0,0.0,0.0,0.0,0.0,0.0,-7.6999,0.0,0.0,0.0,-7.6936,0.0,-7.6923,-7.6507,0.0,-7.6109,-7.6031,-7.584,-7.584,-7.5692,-7.5518,0.0,-7.5518,-7.5518,0.0,-7.5518,-7.5518,-7.5518,0.0,0.0,0.0,0.0,0.0,0.0,-7.5518,-7.5518,-7.5518,0.0,-7.5518,-7.5518,0.0,0.0,0.0,0.0,0.0,0.0,0.0,0.0,-7.5518,-7.5518,-7.5806,-7.6609,-7.7487,-7.8328,-7.9225,-8.0009,-8.0506,-8.0506,-8.1308,-8.2149,-8.2951,-8.383,-8.4671,-8.5473,-8.5511,-8.5511,-8.5511,-8.6275,-8.6676,-8.681,-8.8301,-8.9141,-8.9332,-9.0096,-9.0517,-9.0593,-9.0593,-9.0593,-9.0593,-9.0593,-9.0593,-9.0593,-9.0593,-9.0593,-9.0593,-9.0593,-9.0593,-9.0593,0.0,0.0,0.0,0.0,0.0,0.0,0.0,0.0,0.0,0.0,0.0,0.0,0.0,0.0,-8.221,0.0,-8.2201,-8.2187,-8.2177,-8.2123,0.0,0.0,0.0,0.0,0.0,0.0,0.0,0.0,-7.7818,0.0,0.0,0.0,0.0,0.0,-7.6999,0.0,-7.6999,0.0,-7.6999,0.0,0.0,0.0,0.0,-7.6612,-7.6261,-7.6057,-7.5918,-7.581,-7.5708,-7.5549,-7.5518,0.0,0.0,0.0,0.0,-7.5518,0.0,0.0,0.0,0.0,0.0,0.0,0.0,-7.5518,-7.5518,-7.5518,-7.5518,-7.5518,0.0,0.0,0.0,0.0,0.0,0.0,-7.5518,0.0,0.0,0.0,-7.6494,0.0,0.0,0.0,-7.9856,-8.0315,-8.0697,-8.1232,-8.2034,-8.2837,-8.3715,-8.4556,-8.5167,-8.5511,-8.5511,-8.5511,-8.5511,-8.6352,-8.704,-8.7575,-8.8759,-8.9561,-9.0058,-9.044,-9.0593,-9.0593,-9.0593,-9.0593,-9.0593,-9.0593,-9.0593,-9.0593,-9.0593,-9.0593,-9.0593,-9.0593,-9.0593,-9.0593,0.0,0.0,0.0,0.0,0.0,0.0,0.0,0.0,0.0,0.0,0.0,0.0,-8.2234,-8.2222,-8.2218,-8.2234,-8.2222,-8.221,-8.2201,-8.2138,-8.2117,0.0,0.0,-8.211,-8.2083,0.0,0.0,0.0,0.0,0.0,0.0,0.0,0.0,0.0,0.0,-7.735,-7.7389,0.0,-7.7701,-7.774,-7.8363,-7.85,-7.8279,-7.7568,-7.7186,-7.6981,-7.679,-7.6664,-7.6547,-7.6288,-7.6188,-7.6188,-7.6188,-7.5997,-7.5806,0.0,0.0,0.0,-7.5518,0.0,0.0,-7.5518,-7.5518,-7.5518,-7.5518,-7.5518,-7.5518,-7.5518,-7.5518,0.0,0.0,0.0,0.0,0.0,0.0,-7.5594,0.0,0.0,0.0,0.0,0.0,0.0,0.0,-8.0506,-8.085,-8.1729,-8.2531,-8.3372,-8.425,-8.5053,-8.5511,-8.5511,-8.5511,-8.5626,-8.5855,-8.6734,-8.7575,-8.8453,-8.9256,-8.9982,-9.0593,-9.0593,-9.0593,-9.0593,-9.0593,-9.0593,-9.0593,-9.0593,-9.0593,-9.0593,-9.0593,-9.0746,-9.0899,-9.0669,-9.0746,-9.0937,-8.2293,-8.2293,0.0,0.0,0.0,0.0,0.0,0.0,0.0,0.0,0.0,-8.229,-8.229,-8.229,-8.229,-8.229,-8.229,-8.2284,-8.2187,-8.2205,-8.2192,-8.2192,-8.214,-8.2083,-8.2112,-8.122,0.0,0.0,0.0,0.0,0.0,0.0,0.0,0.0,0.0,-7.8246,-7.8324,-7.9104,-7.9415,-7.9415,-7.9454,-7.9448,-7.9429,0.0,-7.9104,-7.9068,-7.8801,-7.854,-7.8292,-7.7994,-7.7908,-7.7908,-7.7908,-7.7335,0.0,0.0,0.0,0.0,-7.5518,-7.5518,-7.5518,-7.5518,-7.5518,-7.5518,-7.5518,-7.5518,-7.5518,-7.5518,-7.5518,0.0,0.0,0.0,0.0,0.0,0.0,0.0,0.0,0.0,0.0,0.0,0.0,0.0,0.0,-8.0506,-8.085,-8.1729,-8.2531,-8.3372,-8.425,-8.5053,-8.5511,-8.5511,-8.5511,-8.5932,-8.6752,-8.7613,-8.8453,-8.9256,-9.0135,-9.0593,-9.0593,-9.0593,-9.0593,-9.0593,-9.0593,-9.0593,-9.0593,-9.0593,-9.0593,-9.0593,-9.0593,-9.109,-9.1663,-9.0899,-9.109,-9.1739,0.0,0.0,0.0,0.0,0.0,0.0,0.0,-8.2293,-8.2293,-8.2293,-8.2293,-8.2293,-8.2293,-8.2293,-8.2293,-8.2293,-8.2293,-8.2284,-8.2187,-8.2205,-8.2192,-8.2192,-8.214,-8.2083,-8.2112,-8.1259,-8.0812,0.0,0.0,0.0,0.0,0.0,0.0,0.0,0.0,-7.9104,0.0,0.0,0.0,0.0,0.0,-8.0701,-8.1085,-7.987,-7.9382,-7.9367,-7.9155,-7.8889,-7.8617,-7.8354,-7.8156,-7.8022,-7.8022,-7.7793,-7.7564,-7.7564,-7.7373,-7.7144,-7.7144,-7.7144,-7.7144,-7.7144,-7.7144,-7.7144,-7.7144,-7.7144,-7.7144,-7.7144,-7.7144,-7.7144,0.0,0.0,0.0,0.0,0.0,0.0,0.0,0.0,0.0,0.0,0.0,0.0,0.0,0.0,-8.169,-8.2531,-8.3372,-8.4212,-8.5053,-8.5358,-8.5511,-8.5511,-8.5511,-8.5932,-8.679,-8.7651,-8.8492,-8.9332,-9.0173,-9.0593,-9.0593,-9.0593,-9.0593,-9.0593,-9.0593,-9.0593,-9.0593,-9.0593,-9.0899,-9.1395,-9.1395,-9.1892,-9.258,-9.1701,-9.193,-9.2656,-8.2078,0.0,0.0,0.0,0.0,0.0,0.0,-8.2293,-8.2293,-8.2293,-8.2293,-8.2293,-8.2293,-8.2293,-8.2293,-8.2293,-8.2293,-8.2287,-8.2237,-8.2218,-8.221,-8.2218,-8.2172,-8.2151,-8.2143,-8.1555,-8.1265,-8.1265,0.0,-8.0428,0.0,0.0,0.0,0.0,0.0,-7.9955,-8.0,0.0,-8.0428,0.0,0.0,-8.1597,0.0,-8.0857,-8.0428,-8.041,-8.0176,-7.999,-7.9769,-7.9394,-7.9182,-7.9003,-7.8899,-7.8672,-7.8443,-7.8443,-7.8252,-7.8022,-7.8022,-7.8022,-7.8022,-7.8022,-7.8022,-7.8022,-7.8022,-7.8022,-7.8022,-7.8022,-7.8022,-7.8022,0.0,0.0,0.0,0.0,0.0,0.0,0.0,-7.9169,0.0,0.0,0.0,0.0,0.0,0.0,-8.2264,-8.3372,-8.3983,-8.4632,-8.5473,-8.5511,-8.5511,-8.5511,-8.5817,-8.639,-8.7269,-8.811,-8.895,-8.9791,-9.0326,-9.0593,-9.0593,-9.0593,-9.0593,-9.0593,-9.0593,-9.0593,-9.0631,-9.0899,-9.1319,-9.1816,-9.2121,-9.2809,-9.3459,-9.258,-9.2809,-9.3612,0.0,0.0,0.0,-8.2218,-8.2287,-8.2293,-8.2293,-8.2293,-8.2293,-8.2293,-8.2293,-8.2293,-8.2293,-8.2293,-8.2293,-8.2293,-8.2293,-8.2293,-8.2293,-8.2237,-8.2234,-8.229,-8.2257,-8.2205,-8.2187,-8.2143,-8.2112,-8.2112,0.0,0.0,0.0,0.0,0.0,0.0,-8.0851,0.0,-8.0935,-8.1753,-8.2104,-8.2104,-8.2104,-8.2104,-8.2104,-8.2104,-8.2104,-8.2052,-8.1817,-8.1708,-8.163,-8.1084,-8.0916,-8.0837,-8.0596,-7.9971,-7.9378,-7.9378,-7.8748,-7.8137,-7.8137,-7.8137,-7.8137,-7.8137,-7.8137,-7.8137,-7.8137,-7.8137,-7.8137,-7.8137,-7.8137,-7.8137,0.0,0.0,0.0,0.0,0.0,0.0,0.0,0.0,0.0,0.0,0.0,0.0,0.0,-8.1843,-8.2531,-8.4174,-8.4327,-8.4671,0.0,-8.5511,-8.5511,-8.5511,-8.6352,-8.7231,-8.8071,-8.8912,-8.9752,-9.0593,-9.0593,-9.0593,-9.0593,-9.0593,-9.0593,-9.0593,-9.0593,-9.0631,-9.0746,-9.1472,-9.1854,-9.2007,-9.2847,-9.3688,-9.4376,-9.3535,-9.3764,-9.4567,-8.1726,-8.1812,-8.192,-8.1843,-8.2089,-8.2293,-8.2293,-8.2293,-8.2293,-8.2293,-8.2293,-8.2293,-8.2293,-8.2293,-8.2293,-8.2293,-8.2293,-8.2293,-8.2293,-8.2237,-8.2234,-8.229,-8.2257,-8.2205,-8.2187,-8.2143,-8.2112,-8.2112,0.0,0.0,-8.2104,0.0,0.0,0.0,0.0,0.0,-8.1792,-8.2026,-8.2104,-8.2104,-8.2104,-8.2104,-8.2104,-8.2104,-8.2104,-8.2104,-8.2026,-8.1859,-8.166,-8.1323,-8.1056,-8.0837,-8.0596,-8.0353,-8.02,-8.02,-8.0009,-7.9856,-7.9856,-7.9856,-7.9856,-7.9856,-7.9856,-7.9856,-7.9856,-7.9856,-7.9856,-7.9856,-7.9856,-7.9856,-7.9856,-7.9856,0.0,0.0,0.0,0.0,0.0,0.0,0.0,-8.1385,0.0,0.0,-8.1767,-8.234,-8.3142,-8.4212,-8.4862,-8.5282,-8.5511,-8.5511,-8.5511,-8.5511,-8.6352,-8.7231,-8.8071,-8.8912,-8.9752,-9.0593,-9.0593,-9.0593,-9.0593,-9.0593,-9.0593,-9.0593,-9.0593,-9.0937,-9.151,-9.1701,-9.258,-9.3764,-9.3994,-9.4567,-9.5255,-9.5025,-9.5102,-9.5331,-8.1461,-8.1589,-8.1726,-8.1698,-8.1961,-8.2162,-8.2162,-8.2234,-8.2293,-8.2293,-8.2293,-8.2293,-8.2293,-8.2293,-8.2293,-8.2293,-8.2293,-8.2293,-8.2293,-8.2245,-8.2245,-8.2293,-8.2273,-8.2226,-8.2237,-8.2166,-8.2143,-8.2133,-8.2101,0.0,-8.2104,0.0,0.0,0.0,0.0,-8.2104,0.0,-8.2494,-8.2883,-8.3234,-8.3234,-8.3234,0.0,-8.3234,-8.3234,-8.3234,-8.3234,-8.2642,-8.1834,-8.1551,-8.131,-8.1012,-8.0762,-8.0614,-8.0506,-8.0506,-8.0506,-8.0506,-8.0506,-8.0506,-8.0506,-8.0506,-8.0506,-8.0506,-8.0506,-8.0506,-8.0506,-8.0506,-8.0506,-8.0506,-8.0506,-8.0506,-8.0621,0.0,0.0,0.0,0.0,0.0,0.0,0.0,-8.2302,0.0,-8.2875,-8.3295,-8.3907,-8.4747,-8.5244,-8.5511,-8.5511,-8.5511,-8.5511,-8.5511,-8.6734,-8.7613,-8.811,-8.9294,-9.0135,-9.0593,-9.0593,-9.0593,-9.0593,-9.0593,-9.0593,-9.0631,-9.0975,-9.1395,-9.1854,-9.2618,-9.3497,-9.4452,-9.4796,-9.5216,-9.5598,-9.5598,-9.5598,-9.5598,-8.1108,-8.128,-8.1461,-8.163,-8.1836,-8.1987,-8.1987,-8.2162,-8.2293,-8.2293,-8.2293,-8.2293,-8.2293,-8.2293,-8.2293,-8.2293,-8.2293,-8.2293,-8.2293,-8.2293,-8.2293,-8.2293,-8.2293,-8.2293,-8.2293,-8.2237,-8.2214,-8.2192,-8.2128,-8.2101,0.0,0.0,0.0,0.0,0.0,0.0,0.0,-8.3234,-8.4013,-8.4715,-8.4715,-8.4715,-8.4715,-8.4715,-8.4715,-8.4715,-8.4715,-8.3741,-8.2396,-8.2111,-8.1868,-8.1569,-8.1353,-8.104,-8.0812,-8.0812,-8.0812,-8.0812,-8.0812,-8.0812,-8.0812,-8.0812,-8.0812,-8.0812,-8.0812,-8.0812,-8.0812,-8.0812,-8.0812,-8.0812,-8.0812,-8.0812,0.0,0.0,0.0,0.0,0.0,0.0,0.0,0.0,0.0,0.0,-8.4365,-8.4365,-8.4632,-8.5435,-8.5511,-8.5511,0.0,0.0,-8.555,-8.5664,-8.7231,-8.8148,-8.8262,-8.9829,-9.0593,-9.0593,-9.0593,-9.0593,-9.0593,-9.0593,-9.0593,-9.0631,-9.1434,-9.1854,-9.2083,-9.3726,-9.4452,-9.4643,-9.5331,-9.5598,-9.5598,-9.5598,-9.5598,-9.5598,-8.1139,-8.128,-8.1412,-8.1449,-8.1753,-8.1987,-8.1987,-8.2162,-8.2293,-8.2293,-8.2293,-8.2293,-8.2293,-8.2293,-8.2293,-8.2293,-8.2293,-8.2293,-8.2293,-8.2293,-8.2293,-8.2293,-8.2293,-8.2293,-8.2293,-8.2237,-8.2214,-8.2192,-8.2128,-8.2101,0.0,0.0,0.0,0.0,0.0,0.0,-8.4247,-8.4403,0.0,-8.4715,-8.4715,-8.4715,-8.4715,-8.4715,-8.4715,-8.4715,-8.4715,-8.4481,-8.4189,-8.3947,-8.3652,-8.3386,-8.3141,-8.2821,-8.2569,-8.2569,-8.2569,-8.2569,-8.2569,-8.2569,-8.2569,-8.2569,-8.2569,-8.2569,-8.2569,-8.2569,-8.2569,-8.2569,-8.2569,-8.2569,-8.2569,-8.2569,-8.2607,0.0,-8.2798,-8.2837,-8.299,0.0,0.0,0.0,0.0,-8.4403,-8.5206,-8.4671,-8.4632,-8.5435,0.0,-8.5511,-8.5511,0.0,-8.5855,-8.6543,-8.7575,-8.8415,-8.9065,-9.0096,-9.0593,-9.0593,-9.0593,-9.0593,-9.0593,-9.0593,-9.0593,-9.0631,-9.1434,-9.2198,-9.2962,-9.3994,-9.4796,-9.5407,-9.5522,-9.5598,-9.5598,-9.5598,-9.5598,-9.5598,-8.1807,0.0,0.0,-8.2893,-8.3182,-8.3337,-8.3435,-8.3518,-8.3426,-8.2996,-8.2918,-8.3074,-8.3543,-8.3582,-8.3582,-8.3582,-8.3582,-8.3582,-8.3582,-8.3582,-8.3582,-8.3582,-8.3582,-8.3582,-8.3582,-8.3572,-8.3553,-8.3557,-8.3508,-8.3477,0.0,0.0,0.0,0.0,0.0,-8.4545,0.0,0.0,-8.5621,-8.605,-8.6038,-8.6071,-8.6026,-8.6007,-8.6001,-8.6001,-8.6001,-8.6001,-8.5838,-8.4825,-8.433,-8.4061,-8.3796,-8.3525,-8.3229,-8.3066,-8.299,-8.299,-8.299,-8.299,-8.299,-8.299,-8.299,-8.299,-8.299,-8.299,-8.299,-8.299,-8.299,-8.299,-8.299,-8.299,-8.3142,-8.3601,-8.3677,-8.383,-8.425,0.0,-8.4441,0.0,0.0,0.0,0.0,0.0,0.0,0.0,0.0,-8.5511,-8.5511,-8.5511,-8.5893,-8.6772,-8.7651,-8.8492,-8.9294,-9.0173,-9.0593,-9.0593,-9.0593,-9.0593,-9.0593,-9.0593,-9.0822,-9.1281,-9.2121,-9.2962,-9.3841,-9.4681,-9.5255,-9.5598,-9.5598,-9.5598,-9.5598,-9.5598,-9.5598,-9.5598,-8.2765,-8.2956,-8.3286,-8.4331,-8.4487,-8.4568,-8.4778,-8.4792,-8.4558,-8.3855,-8.3777,-8.405,-8.4714,-8.4792,-8.4792,-8.4792,-8.4792,-8.4792,-8.4792,-8.4792,-8.4792,-8.4792,-8.4792,-8.4792,-8.4792,-8.4792,-8.4813,-8.4815,-8.481,-8.459,-8.4143,0.0,0.0,0.0,0.0,0.0,-8.6295,-8.6278,-8.6673,-8.7292,-8.7315,-8.7303,-8.7286,-8.7228,-8.7215,-8.7209,-8.7209,-8.7209,-8.7014,-8.5689,-8.5043,-8.4776,-8.4532,-8.4252,-8.3967,-8.3619,-8.3524,-8.3524,-8.3524,-8.3524,-8.3524,-8.3524,-8.3524,-8.3524,-8.3524,-8.3524,-8.3524,-8.3524,-8.3524,-8.3524,-8.3524,-8.3524,-8.3754,-8.4441,-8.4556,-8.4785,-8.5397,-8.5511,0.0,0.0,0.0,0.0,-8.5511,0.0,0.0,0.0,0.0,-8.5511,-8.5511,-8.5511,-8.597,-8.704,-8.7727,-8.8568,-8.9561,-9.0249,-9.0593,-9.0593,-9.0593,-9.0593,-9.0631,-9.0784,-9.1204,-9.1854,-9.2924,-9.3879,-9.472,-9.5331,-9.5598,-9.5598,-9.5789,-9.5751,-9.5598,-9.5789,-9.5751,-9.5598,-8.401,-8.4058,-8.4163,-8.4461,-8.4487,-8.4568,-8.4778,-8.4792,-8.4753,-8.4675,-8.4675,-8.4714,-8.4792,-8.4792,-8.4792,-8.4792,-8.4792,-8.4792,-8.4792,-8.4792,-8.4792,-8.4792,-8.4792,-8.4792,-8.4792,-8.4792,-8.4782,-8.4798,-8.4819,-8.3971,-8.2379,-8.3948,0.0,0.0,-8.5894,-8.6379,-8.718,-8.7185,-8.7247,-8.7303,-8.7286,-8.7264,-8.7215,-8.7286,-8.7234,-8.7209,-8.7209,-8.7209,-8.717,-8.7014,-8.6794,-8.6524,-8.6235,-8.5974,-8.5719,-8.5361,-8.5282,-8.5282,-8.5282,-8.5282,-8.5282,-8.5282,-8.5282,-8.5282,-8.5282,-8.5282,-8.5282,-8.5282,-8.5282,-8.5282,-8.5282,-8.5282,-8.5282,-8.5358,-8.5397,-8.5397,-8.5511,-8.5511,-8.5511,-8.5511,0.0,0.0,0.0,-8.5511,0.0,0.0,-8.5511,-8.5511,-8.5511,-8.5511,-8.6275,-8.7918,-8.8071,-8.8874,-9.0478,-9.0555,-9.0593,-9.0593,-9.0593,-9.0593,-9.0631,-9.1357,-9.1739,-9.1892,-9.3573,-9.4758,-9.5484,-9.556,-9.5598,-9.5675,-9.6477,-9.6286,-9.5713,-9.6477,-9.6286,-9.5598,-8.5043,-8.5144,-8.5382,-8.6093,-8.6229,-8.6276,-8.6347,-8.6353,-8.6353,-8.6353,-8.5924,-8.5768,-8.6314,-8.6353,-8.6353,-8.6353,-8.6353,-8.6353,-8.6353,-8.6353,-8.6353,-8.6353,-8.6353,-8.6353,-8.6353,-8.6353,-8.6343,-8.6363,-8.6302,-8.5921,-8.5231,-8.5921,-8.644,-8.6779,-8.6834,-8.7043,-8.7365,-8.7377,-8.7377,-8.7369,-8.7312,-8.7286,-8.7264,-8.7241,-8.7222,-8.7209,-8.7209,-8.7209,-8.7209,-8.7209,-8.7128,-8.7011,-8.6726,-8.6481,-8.6176,-8.5898,-8.5666,-8.5511,-8.5511,-8.5511,-8.5511,-8.5511,-8.5511,-8.5511,-8.5511,-8.5511,-8.5511,-8.5511,-8.5511,-8.5511,-8.5511,-8.5511,-8.5511,-8.5511,-8.5511,-8.5511,-8.5511,-8.5511,0.0,-8.5511,0.0,0.0,0.0,-8.5511,0.0,0.0,0.0,-8.5511,-8.5511,-8.6008,-8.6849,-8.8071,-8.8568,-8.9409,-9.0593,-9.0593,-9.0593,-9.0593,-9.0593,-9.0593,-9.0631,-9.1434,-9.2351,-9.3421,-9.4605,-9.5293,-9.5598,-9.5598,-9.5598,-9.5675,-9.6554,-9.6363,-9.5713,-9.6592,-9.6363,-9.5598,-8.6122,-8.6256,-8.6517,-8.728,-8.7404,-8.7404,-8.7404,-8.7404,-8.7404,-8.7404,-8.6861,-8.6705,-8.7329,-8.7404,-8.7404,-8.7404,-8.7404,-8.7404,-8.7404,-8.7404,-8.7404,-8.7404,-8.7404,-8.7404,-8.7404,-8.7404,-8.7401,-8.7386,-8.7365,-8.7073,-8.6545,-8.6579,-8.6818,-8.7312,-8.7369,-8.7382,-8.739,-8.7401,-8.7404,-8.7397,-8.7334,-8.7312,-8.7286,-8.7253,-8.7228,-8.7209,-8.7209,-8.7209,-8.7209,-8.7209,-8.7209,-8.7142,-8.6893,-8.6638,-8.6362,-8.6076,-8.5757,-8.5511,-8.5511,-8.5511,-8.5511,-8.5511,-8.5511,-8.5511,-8.5511,-8.5511,-8.5511,-8.5511,-8.5511,-8.5511,-8.5511,-8.5511,-8.5511,-8.5511,-8.5511,-8.5511,-8.5511,-8.5511,0.0,-8.5511,-8.5511,-8.5511,-8.5511,-8.5511,0.0,0.0,0.0,-8.5511,-8.5511,-8.6352,-8.7192,-8.8071,-8.8874,-8.9714,-9.0593,-9.0593,-9.0593,-9.0593,-9.0593,-9.0746,-9.1013,-9.2083,-9.3382,-9.4796,-9.5331,-9.5598,-9.5598,-9.5598,-9.5751,-9.6057,-9.6936,-9.6745,-9.6095,-9.6936,-9.6554,-9.5598,-8.7365,-8.7365,-8.7365,-8.7404,-8.7404,-8.7404,-8.7404,-8.7404,-8.7404,-8.7404,-8.7407,-8.7407,-8.7404,-8.7404,-8.7404,-8.7404,-8.7404,-8.7404,-8.7404,-8.7404,-8.7404,-8.7404,-8.7404,-8.7404,-8.7404,-8.7404,-8.7404,-8.7404,-8.7386,-8.6519,-8.4845,-8.4819,-8.5756,-8.7417,-8.7417,-8.739,-8.7404,-8.7404,-8.7397,-8.7421,-8.7397,-8.7369,-8.7303,-8.7292,-8.7264,-8.7209,-8.7209,-8.7209,-8.7209,-8.7209,-8.7209,-8.7142,-8.6893,-8.6638,-8.6362,-8.6076,-8.5757,-8.5511,-8.5511,-8.5511,-8.5511,-8.5511,-8.5511,-8.5511,-8.5511,-8.5511,-8.5511,-8.5511,-8.5511,-8.5511,-8.5511,-8.5511,-8.5511,-8.5511,-8.5511,-8.5511,-8.5511,-8.5511,0.0,-8.5511,-8.5511,-8.5511,-8.5511,-8.5511,0.0,0.0,-8.5511,-8.5511,-8.5511,-8.6352,-8.7192,-8.8071,-8.8874,-8.9714,-9.0593,-9.0593,-9.0593,-9.0593,-9.0593,-9.1013,-9.1854,-9.3573,-9.4796,-9.5598,-9.5598,-9.5598,-9.5598,-9.5598,-9.6095,-9.6974,-9.7776,-9.7585,-9.6974,-9.7815,-9.705,-9.5598,-8.7404,-8.7404,-8.7404,-8.7404,-8.7404,-8.7404,-8.7404,-8.7404,-8.7404,-8.7404,-8.7404,-8.7404,-8.7404,-8.7404,-8.7404,-8.7404,-8.7404,-8.7404,-8.7404,-8.7404,-8.7404,-8.7404,-8.7404,-8.7404,-8.7404,-8.7404,-8.7404,-8.7404,-8.739,-8.7104,-8.6558,-8.6554,-8.687,-8.7397,-8.7397,-8.7401,-8.7404,-8.7404,-8.7404,-8.7397,-8.739,-8.7377,-8.7355,-8.7307,-8.7292,-8.727,-8.7253,-8.7286,-8.7241,-8.7215,-8.7209,-8.7202,-8.7113,-8.6893,-8.6638,-8.6362,-8.6091,-8.5775,-8.5552,-8.5511,-8.5511,-8.5511,-8.5511,-8.5511,-8.5511,-8.5511,-8.5511,-8.5511,-8.5511,-8.5511,-8.5511,-8.5511,-8.5511,-8.5511,-8.5511,-8.5511,-8.5511,-8.5511,-8.5511,-8.5511,-8.5511,-8.5511,-8.5511,-8.5511,-8.5511,0.0,0.0,-8.5511,-8.5511,-8.6887,-8.7804,-8.8071,-8.9447,-9.0326,-9.0593,-9.0593,-9.0593,-9.0593,-9.0593,-9.1319,-9.2733,-9.3841,-9.4796,-9.5598,-9.5598,-9.5598,-9.5637,-9.6248,-9.663,-9.705,-9.8426,-9.812,-9.7012,-9.7815,-9.705,-9.5598,-8.7404,-8.7404,-8.7404,-8.7404,-8.7404,-8.7404,-8.7404,-8.7404,-8.7404,-8.7404,-8.7404,-8.7404,-8.7404,-8.7404,-8.7404,-8.7404,-8.7404,-8.7404,-8.7404,-8.7404,-8.7404,-8.7404,-8.7404,-8.7404,-8.7404,-8.7404,-8.7404,-8.7404,-8.7393,-8.739,-8.739,-8.739,-8.7397,-8.7404,-8.7404,-8.7404,-8.7404,-8.7404,-8.7404,-8.7404,-8.7393,-8.7386,-8.7377,-8.7312,-8.7297,-8.7281,-8.7253,-8.7241,-8.728,-8.7215,-8.7209,-8.7209,-8.7209,-8.7106,-8.6903,-8.6649,-8.6293,-8.5967,-8.5721,-8.559,-8.5511,-8.5511,-8.5511,-8.5511,-8.5511,-8.5511,-8.5511,-8.5511,-8.5511,-8.5511,-8.5511,-8.5511,-8.5511,-8.5511,-8.5511,-8.5511,-8.5511,-8.5511,-8.5511,0.0,-8.5511,-8.5511,-8.5511,-8.5511,-8.5511,-8.5511,0.0,-8.6008,-8.6008,-8.7345,-8.8224,-8.853,-8.9867,-9.0593,-9.0593,-9.0593,-9.0593,-9.0631,-9.1243,-9.2083,-9.3153,-9.4261,-9.5102,-9.5598,-9.5598,-9.5598,-9.5675,-9.6554,-9.7089,-9.7471,-9.8502,-9.8273,-9.7356,-9.7585,-9.6783,-9.5598,-8.7404,-8.7404,-8.7404,-8.7404,-8.7404,-8.7404,-8.7404,-8.7404,-8.7404,-8.7404,-8.7404,-8.7404,-8.7404,-8.7404,-8.7404,-8.7404,-8.7404,-8.7404,-8.7404,-8.7404,-8.7404,-8.7404,-8.7404,-8.7404,-8.7404,-8.7404,-8.7404,-8.7404,-8.7404,-8.7404,-8.7404,-8.7404,-8.7404,-8.7404,-8.7404,-8.7404,-8.7404,-8.7404,-8.7404,-8.7404,-8.7404,-8.7397,-8.7377,-8.7316,-8.7292,-8.7303,-8.7234,-8.7215,-8.7215,-8.7215,-8.7209,-8.7209,-8.7209,-8.7209,-8.7142,-8.6884,-8.6468,-8.6027,-8.6017,-8.5757,-8.5551,-8.5511,-8.5511,-8.5511,-8.5511,-8.5511,-8.5511,-8.5511,-8.5511,-8.5511,-8.5511,-8.5511,-8.5511,-8.5511,-8.5511,-8.5511,-8.5511,-8.5511,-8.5511,-8.5511,-8.5511,-8.5511,-8.5511,-8.5511,-8.555,-8.5588,0.0,-8.6849,-8.6963,-8.7727,-8.853,-8.9294,-9.0173,-9.0593,-9.0593,-9.0593,-9.0631,-9.0708,-9.2351,-9.3115,-9.3268,-9.4872,-9.5598,-9.5598,-9.5598,-9.5637,-9.5751,-9.663,-9.7471,-9.8197,-9.8197,-9.8158,-9.8006,-9.7203,-9.6363,-9.5598,-8.7404,-8.7404,-8.7404,-8.7404,-8.7404,-8.7404,-8.7404,-8.7404,-8.7404,-8.7404,-8.7404,-8.7404,-8.7404,-8.7404,-8.7404,-8.7404,-8.7404,-8.7404,-8.7404,-8.7404,-8.7404,-8.7404,-8.7404,-8.7404,-8.7404,-8.7404,-8.7404,-8.7404,-8.7404,-8.7404,-8.7404,-8.7404,-8.7404,-8.7404,-8.7404,-8.7404,-8.7404,-8.7404,-8.7404,-8.7404,-8.7404,-8.7404,-8.7401,-8.7393,-8.739,-8.7382,-8.736,-8.7341,-8.7276,-8.7298,-8.7234,-8.7209,-8.7209,-8.7209,-8.7142,-8.6884,-8.6715,-8.6505,-8.6123,-8.595,-8.5811,-8.5552,-8.5511,-8.5511,-8.5511,-8.5511,-8.5511,-8.5511,-8.5511,-8.5511,-8.5511,-8.5511,-8.5511,-8.5511,-8.5511,-8.5511,-8.5511,-8.5511,-8.5511,-8.5511,-8.5511,-8.5511,-8.5511,-8.5511,-8.5779,-8.6467,-8.6696,-8.7384,-8.8644,-8.8912,-8.9103,-8.9294,-9.0173,-9.0593,-9.0593,-9.0593,-9.0899,-9.1548,-9.258,-9.3459,-9.4146,-9.514,-9.5598,-9.5598,-9.5598,-9.5981,-9.6668,-9.7471,-9.8311,-9.9075,-9.9075,-9.8693,-9.8006,-9.7203,-9.6363,-9.5598,-8.7404,-8.7404,-8.7404,-8.7404,-8.7404,-8.7404,-8.7404,-8.7404,-8.7404,-8.7404,-8.7404,-8.7404,-8.7404,-8.7404,-8.7404,-8.7404,-8.7404,-8.7404,-8.7404,-8.7404,-8.7404,-8.7404,-8.7404,-8.7404,-8.7404,-8.7404,-8.7404,-8.7404,-8.7404,-8.7404,-8.7404,-8.7404,-8.7404,-8.7404,-8.7404,-8.7404,-8.7404,-8.7404,-8.7404,-8.7404,-8.7404,-8.7404,-8.7404,-8.7397,-8.7393,-8.739,-8.7369,-8.7312,-8.7297,-8.7286,-8.727,-8.7253,-8.7253,-8.7253,-8.7234,-8.7067,-8.6921,-8.6736,-8.643,-8.6279,-8.6084,-8.5811,-8.5741,-8.5704,-8.5513,-8.5511,-8.5511,-8.5511,-8.5511,-8.5511,-8.5511,-8.5511,-8.5511,-8.5511,-8.5511,-8.5511,-8.5511,-8.5511,-8.5511,-8.5511,-8.5511,-8.5511,-8.5511,-8.5855,-8.6314,-8.6772,-8.7536,-8.8339,-8.9256,-8.9676,-8.9905,-8.9905,-9.0364,-9.0593,-9.0593,-9.0593,-9.1013,-9.1816,-9.2695,-9.3573,-9.4452,-9.5216,-9.5598,-9.5598,-9.5598,-9.6095,-9.6974,-9.7776,-9.8617,-9.9381,-9.9381,-9.8884,-9.8006,-9.7203,-9.6363,-9.5637,-8.7404,-8.7404,-8.7404,-8.7404,-8.7404,-8.7404,-8.7404,-8.7404,-8.7404,-8.7404,-8.7404,-8.7404,-8.7404,-8.7404,-8.7404,-8.7404,-8.7404,-8.7404,-8.7404,-8.7404,-8.7404,-8.7404,-8.7404,-8.7404,-8.7404,-8.7404,-8.7404,-8.7404,-8.7404,-8.7404,-8.7404,-8.7404,-8.7404,-8.7404,-8.7404,-8.7404,-8.7404,-8.7404,-8.7404,-8.7404,-8.7404,-8.7404,-8.7404,-8.739,-8.7382,-8.7382,-8.736,-8.7312,-8.7307,-8.7307,-8.7302,-8.7302,-8.7302,-8.7302,-8.7297,-8.7309,-8.7113,-8.6875,-8.6797,-8.6588,-8.6362,-8.6123,-8.606,-8.5962,-8.5647,-8.5571,-8.5552,-8.5511,-8.5511,-8.5511,-8.5511,-8.5511,-8.5511,-8.5511,-8.5511,-8.5511,-8.5511,-8.5511,-8.5511,-8.5511,-8.5511,-8.555,-8.5702,-8.639,-8.6925,-8.7154,-8.8492,-8.937,-8.9485,-9.0211,-9.0593,-9.0593,-9.0593,-9.0593,-9.0593,-9.0746,-9.1204,-9.2007,-9.2886,-9.3726,-9.4605,-9.5293,-9.5598,-9.5598,-9.5751,-9.6286,-9.7127,-9.7967,-9.8808,-9.9572,-9.9458,-9.8961,-9.8197,-9.7394,-9.6592,-9.6095,-8.7404,-8.7404,-8.7404,-8.7404,-8.7404,-8.7404,-8.7404,-8.7404,-8.7404,-8.7404,-8.7404,-8.7404,-8.7404,-8.7404,-8.7404,-8.7404,-8.7404,-8.7404,-8.7404,-8.7404,-8.7404,-8.7404,-8.7404,-8.7404,-8.7404,-8.7404,-8.7404,-8.7404,-8.7404,-8.7404,-8.7404,-8.7404,-8.7404,-8.7404,-8.7404,-8.7404,-8.7404,-8.7404,-8.7404,-8.7404,-8.7404,-8.7404,-8.7404,-8.7404,-8.7401,-8.7401,-8.7397,-8.7386,-8.7373,-8.7373,-8.736,-8.7302,-8.7302,-8.7302,-8.7297,-8.7309,-8.7241,-8.7149,-8.6884,-8.6588,-8.6377,-8.6362,-8.6349,-8.6279,-8.5978,-8.5933,-8.5846,-8.5532,-8.5511,-8.5511,-8.5511,-8.5511,-8.5511,-8.5511,-8.5511,-8.5511,-8.5511,-8.5511,-8.5511,-8.5511,-8.5511,-8.5779,-8.6543,-8.6734,-8.7384,-8.8797,-8.9141,-8.9638,-9.0364,-9.0555,-9.0593,-9.0593,-9.0593,-9.0593,-9.0593,-9.1281,-9.2045,-9.2924,-9.3726,-9.4567,-9.5407,-9.5522,-9.5598,-9.5637,-9.6363,-9.7165,-9.8006,-9.8846,-9.9687,-10.0298,-9.9649,-9.9305,-9.9075,-9.8235,-9.7853,-9.7738,-8.7404,-8.7404,-8.7404,-8.7404,-8.7404,-8.7404,-8.7404,-8.7404,-8.7404,-8.7404,-8.7404,-8.7404,-8.7404,-8.7404,-8.7404,-8.7404,-8.7404,-8.7404,-8.7404,-8.7404,-8.7404,-8.7404,-8.7404,-8.7404,-8.7404,-8.7404,-8.7404,-8.7404,-8.7404,-8.7404,-8.7404,-8.7404,-8.7404,-8.7404,-8.7404,-8.7404,-8.7404,-8.7404,-8.7404,-8.7404,-8.7404,-8.7404,-8.7404,-8.7404,-8.7404,-8.7404,-8.7404,-8.7401,-8.7393,-8.7393,-8.7386,-8.7338,-8.7338,-8.733,-8.7355,-8.7292,-8.7259,-8.7215,-8.7051,-8.6921,-8.6787,-8.6661,-8.6638,-8.6568,-8.6279,-8.6206,-8.6115,-8.5828,-8.5757,-8.5722,-8.5551,-8.5511,-8.5511,-8.5511,-8.5511,-8.5511,-8.5511,-8.5511,-8.5511,-8.5511,-8.5932,-8.6352,-8.6772,-8.7613,-8.8492,-8.9256,-8.9752,-9.0173,-9.0593,-9.0593,-9.0593,-9.0593,-9.0593,-9.0593,-9.0593,-9.1395,-9.2236,-9.3115,-9.3955,-9.4796,-9.5598,-9.5598,-9.5598,-9.5637,-9.6515,-9.7356,-9.8197,-9.9037,-9.9878,-10.0604,-10.0183,-9.9763,-9.9343,-9.8961,-9.8502,-9.8197,-8.7404,-8.7404,-8.7404,-8.7404,-8.7404,-8.7404,-8.7404,-8.7404,-8.7404,-8.7404,-8.7404,-8.7404,-8.7404,-8.7404,-8.7404,-8.7404,-8.7404,-8.7404,-8.7404,-8.7404,-8.7404,-8.7404,-8.7404,-8.7404,-8.7404,-8.7404,-8.7404,-8.7404,-8.7404,-8.7404,-8.7404,-8.7404,-8.7404,-8.7404,-8.7404,-8.7404,-8.7404,-8.7404,-8.7404,-8.7404,-8.7404,-8.7404,-8.7404,-8.7404,-8.7404,-8.7404,-8.7404,-8.7404,-8.7404,-8.7404,-8.7404,-8.7404,-8.7404,-8.7397,-8.7382,-8.7355,-8.7276,-8.7228,-8.7215,-8.7209,-8.7142,-8.6938,-8.6903,-8.6807,-8.6541,-8.648,-8.6442,-8.6169,-8.6027,-8.5933,-8.5666,-8.5532,-8.5511,-8.5511,-8.5511,-8.5511,-8.5511,-8.5511,-8.5588,-8.5779,-8.639,-8.6963,-8.7345,-8.853,-8.937,-8.96,-9.0211,-9.0593,-9.0593,-9.0593,-9.0593,-9.0593,-9.0593,-9.0708,-9.0899,-9.1701,-9.2542,-9.3421,-9.4261,-9.4987,-9.5598,-9.5598,-9.5598,-9.5637,-9.6706,-9.7547,-9.8197,-9.9228,-9.9992,-10.0604,-10.0604,-10.0183,-9.9687,-9.9687,-9.9266,-9.877,-8.7404,-8.7404,-8.7404,-8.7404,-8.7404,-8.7404,-8.7404,-8.7404,-8.7404,-8.7404,-8.7404,-8.7404,-8.7404,-8.7404,-8.7404,-8.7404,-8.7404,-8.7404,-8.7404,-8.7404,-8.7404,-8.7404,-8.7404,-8.7404,-8.7404,-8.7404,-8.7404,-8.7404,-8.7404,-8.7404,-8.7404,-8.7404,-8.7404,-8.7404,-8.7404,-8.7404,-8.7404,-8.7404,-8.7404,-8.7404,-8.7404,-8.7404,-8.7404,-8.7404,-8.7404,-8.7404,-8.7404,-8.7404,-8.7404,-8.7404,-8.7404,-8.7404,-8.7404,-8.7404,-8.7401,-8.7382,-8.7355,-8.7281,-8.7228,-8.7209,-8.7209,-8.7195,-8.7156,-8.7113,-8.6817,-8.6767,-8.6704,-8.6442,-8.6161,-8.6,-8.5983,-8.5722,-8.5511,-8.5511,-8.5511,-8.5511,-8.5511,-8.5511,-8.5817,-8.6599,-8.6772,-8.7422,-8.8988,-8.9218,-8.9638,-9.044,-9.0555,-9.0593,-9.0593,-9.0593,-9.0593,-9.0593,-9.0593,-9.0975,-9.1701,-9.258,-9.3459,-9.4299,-9.5102,-9.5522,-9.5598,-9.5598,-9.5598,-9.5675,-9.7318,-9.8044,-9.8235,-9.984,-10.0489,-10.0604,-10.0604,-10.0604,-10.0489,-10.0489,-10.0489,-10.0413,-8.7404,-8.7404,-8.7404,-8.7404,-8.7404,-8.7404,-8.7404,-8.7404,-8.7404,-8.7404,-8.7404,-8.7404,-8.7404,-8.7404,-8.7404,-8.7404,-8.7404,-8.7404,-8.7404,-8.7404,-8.7404,-8.7404,-8.7404,-8.7404,-8.7404,-8.7404,-8.7404,-8.7404,-8.7404,-8.7404,-8.7404,-8.7404,-8.7404,-8.7404,-8.7404,-8.7404,-8.7404,-8.7404,-8.7404,-8.7404,-8.7404,-8.7404,-8.7404,-8.7404,-8.7404,-8.7404,-8.7404,-8.7404,-8.7404,-8.7404,-8.7404,-8.7404,-8.7404,-8.7397,-8.7386,-8.7365,-8.7307,-8.7297,-8.7276,-8.727,-8.7264,-8.7247,-8.7241,-8.7222,-8.7067,-8.7044,-8.6955,-8.6715,-8.6417,-8.6191,-8.6011,-8.5741,-8.5511,-8.5511,-8.5511,-8.5702,-8.6237,-8.6314,-8.6619,-8.7498,-8.8071,-8.8606,-8.9256,-8.9791,-9.0249,-9.0593,-9.0593,-9.0593,-9.0593,-9.0593,-9.0593,-9.0593,-9.109,-9.1472,-9.1816,-9.3191,-9.407,-9.4414,-9.5216,-9.5598,-9.5598,-9.5598,-9.5904,-9.6477,-9.7623,-9.8426,-9.8999,-10.0107,-10.0604,-10.0604,-10.0604,-10.0604,-10.0604,-10.0604,-10.0604,-10.0604,-8.7404,-8.7404,-8.7404,-8.7404,-8.7404,-8.7404,-8.7404,-8.7404,-8.7404,-8.7404,-8.7404,-8.7404,-8.7404,-8.7404,-8.7404,-8.7404,-8.7404,-8.7404,-8.7404,-8.7404,-8.7404,-8.7404,-8.7404,-8.7404,-8.7404,-8.7404,-8.7404,-8.7404,-8.7404,-8.7404,-8.7404,-8.7404,-8.7404,-8.7404,-8.7404,-8.7404,-8.7404,-8.7404,-8.7404,-8.7404,-8.7404,-8.7404,-8.7404,-8.7404,-8.7404,-8.7404,-8.7404,-8.7404,-8.7404,-8.7404,-8.7404,-8.7404,-8.7404,-8.7397,-8.7386,-8.733,-8.7326,-8.7326,-8.7326,-8.7321,-8.7346,-8.7309,-8.7292,-8.728,-8.7215,-8.7209,-8.7142,-8.6947,-8.6715,-8.6455,-8.6293,-8.5928,-8.5743,-8.6011,-8.5972,-8.6199,-8.7078,-8.7231,-8.7536,-8.8377,-8.895,-8.9409,-8.9676,-9.0249,-9.0593,-9.0593,-9.0593,-9.0593,-9.0593,-9.0593,-9.0746,-9.0975,-9.1778,-9.2351,-9.2618,-9.3803,-9.4529,-9.4796,-9.5331,-9.5598,-9.5598,-9.5598,-9.6095,-9.6936,-9.7738,-9.8579,-9.9458,-10.0298,-10.0604,-10.0604,-10.0604,-10.0604,-10.0604,-10.0604,-10.0604,-10.0604,-8.7404,-8.7404,-8.7404,-8.7404,-8.7404,-8.7404,-8.7404,-8.7404,-8.7404,-8.7404,-8.7404,-8.7404,-8.7404,-8.7404,-8.7404,-8.7404,-8.7404,-8.7404,-8.7404,-8.7404,-8.7404,-8.7404,-8.7404,-8.7404,-8.7404,-8.7404,-8.7404,-8.7404,-8.7404,-8.7404,-8.7404,-8.7404,-8.7404,-8.7404,-8.7404,-8.7404,-8.7404,-8.7404,-8.7404,-8.7404,-8.7404,-8.7404,-8.7404,-8.7404,-8.7404,-8.7404,-8.7404,-8.7404,-8.7404,-8.7404,-8.7404,-8.7404,-8.7404,-8.7404,-8.7404,-8.7404,-8.7404,-8.7404,-8.7407,-8.7393,-8.7408,-8.7315,-8.7234,-8.7209,-8.7209,-8.7209,-8.7209,-8.7209,-8.7003,-8.6826,-8.6826,-8.6376,-8.6286,-8.7094,-8.7005,-8.7116,-8.7995,-8.811,-8.8415,-8.9218,-8.9332,-8.9638,-9.0517,-9.0593,-9.0593,-9.0593,-9.0593,-9.0593,-9.0593,-9.0593,-9.0975,-9.1778,-9.2656,-9.3535,-9.4414,-9.4414,-9.4796,-9.5598,-9.5598,-9.5598,-9.5598,-9.5598,-9.6095,-9.6936,-9.7738,-9.8617,-9.9458,-10.0298,-10.0604,-10.0604,-10.0604,-10.0604,-10.0604,-10.0604,-10.0604,-10.0604,-8.7404,-8.7404,-8.7404,-8.7404,-8.7404,-8.7404,-8.7404,-8.7404,-8.7404,-8.7404,-8.7404,-8.7404,-8.7404,-8.7404,-8.7404,-8.7404,-8.7404,-8.7404,-8.7404,-8.7404,-8.7404,-8.7404,-8.7404,-8.7404,-8.7404,-8.7404,-8.7404,-8.7404,-8.7404,-8.7404,-8.7404,-8.7404,-8.7404,-8.7404,-8.7404,-8.7404,-8.7404,-8.7404,-8.7404,-8.7404,-8.7404,-8.7404,-8.7404,-8.7404,-8.7404,-8.7404,-8.7404,-8.7404,-8.7404,-8.7404,-8.7404,-8.7404,-8.7404,-8.7404,-8.7404,-8.7404,-8.7404,-8.7525,-8.8149,-8.8291,-8.8071,-8.7453,-8.727,-8.728,-8.7215,-8.7209,-8.7209,-8.7209,-8.747,-8.773,-8.773,-8.7938,-8.8127,-8.8106,-8.8046,-8.823,-8.8838,-8.895,-8.9256,-9.0135,-9.0211,-9.0326,-9.0593,-9.0593,-9.0593,-9.0593,-9.0593,-9.0593,-9.0593,-9.0593,-9.0975,-9.1778,-9.2656,-9.3535,-9.4414,-9.4949,-9.5369,-9.5598,-9.5598,-9.5598,-9.5598,-9.5598,-9.6363,-9.7776,-9.8006,-9.8923,-10.0298,-10.0489,-10.0604,-10.0604,-10.0604,-10.0604,-10.0604,-10.0604,-10.0604,-10.0604,-8.7404,-8.7404,-8.7404,-8.7404,-8.7404,-8.7404,-8.7404,-8.7404,-8.7404,-8.7404,-8.7404,-8.7404,-8.7404,-8.7404,-8.7404,-8.7404,-8.7404,-8.7404,-8.7404,-8.772,-8.7915,-8.7915,-8.8227,-8.811,-8.7407,-8.7759,-8.7915,-8.7915,-8.8266,-8.8422,-8.8422,-8.8422,-8.8422,-8.8422,-8.8422,-8.8422,-8.8422,-8.8422,-8.8422,-8.8422,-8.8422,-8.8422,-8.8422,-8.8422,-8.8422,-8.8422,-8.8422,-8.8422,-8.8422,-8.8422,-8.8422,-8.8422,-8.8422,-8.8422,-8.8422,-8.8422,-8.8422,-8.854,-8.9086,-8.9185,-8.8999,-8.8477,-8.8334,-8.8305,-8.8229,-8.8222,-8.8222,-8.8222,-8.8539,-8.8775,-8.8775,-8.896,-8.9217,-8.93,-8.9138,-8.9255,-8.988,-8.9893,-9.002,-9.0555,-9.0593,-9.0593,-9.0593,-9.0593,-9.0593,-9.0593,-9.0593,-9.0593,-9.0593,-9.0899,-9.1472,-9.2274,-9.3153,-9.4032,-9.4872,-9.5369,-9.5598,-9.5598,-9.5598,-9.5598,-9.5598,-9.5942,-9.6859,-9.812,-9.8464,-9.9381,-10.0604,-10.0604,-10.0604,-10.0604,-10.0604,-10.0604,-10.0604,-10.0604,-10.0604,-10.0604,-8.7404,-8.7404,-8.7404,-8.7404,-8.7404,-8.7404,-8.7404,-8.7404,-8.7404,-8.7404,-8.7404,-8.7404,-8.7404,-8.7404,-8.7446,-8.7525,-8.7603,-8.7642,-8.7642,-8.8383,-8.8813,-8.8813,-8.9594,-8.9242,-8.7681,-8.8422,-8.8813,-8.8813,-8.9594,-8.9984,-8.9984,-8.9984,-8.9984,-8.9984,-8.9984,-8.9984,-8.9984,-8.9984,-8.9984,-8.9984,-8.9984,-8.9984,-8.9984,-8.9984,-8.9984,-8.9984,-8.9984,-8.9984,-8.9984,-8.9984,-8.9984,-8.9984,-8.9984,-8.9984,-8.9984,-8.9984,-8.9984,-9.0023,-9.0101,-9.0074,-9.0038,-9.0116,-9.0134,-9.0066,-8.9865,-8.982,-8.982,-8.982,-8.9858,-8.9936,-8.9936,-8.9774,-8.9887,-9.0595,-9.0281,-9.0206,-9.0902,-9.078,-9.0593,-9.0593,-9.0593,-9.0593,-9.0593,-9.0593,-9.0593,-9.0593,-9.0593,-9.0631,-9.0708,-9.1395,-9.2236,-9.3191,-9.3994,-9.4796,-9.5598,-9.5598,-9.5598,-9.5598,-9.5598,-9.5598,-9.5637,-9.6515,-9.7356,-9.8158,-9.9037,-9.984,-10.0604,-10.0604,-10.0604,-10.0604,-10.0604,-10.0604,-10.0604,-10.0604,-10.0604,-10.0604,-8.7404,-8.7404,-8.7404,-8.7404,-8.7404,-8.7404,-8.7404,-8.7404,-8.7404,-8.7404,-8.7404,-8.7404,-8.7404,-8.7404,-8.7681,-8.8344,-8.9047,-8.9437,-8.9437,-8.9594,-8.9711,-8.9711,-8.9906,-8.9828,-8.9437,-8.9633,-8.9711,-8.9711,-8.9906,-8.9984,-8.9984,-8.9984,-8.9984,-8.9984,-8.9984,-8.9984,-8.9984,-8.9984,-8.9984,-8.9984,-8.9984,-8.9984,-8.9984,-8.9984,-8.9984,-8.9984,-8.9984,-8.9984,-8.9984,-8.9984,-8.9984,-8.9984,-8.9984,-8.9984,-8.9984,-8.9984,-8.9984,-9.014,-9.0843,-9.0992,-9.114,-9.1787,-9.1934,-9.1559,-9.0112,-8.982,-8.982,-8.982,-9.0326,-9.0833,-9.0833,-9.1311,-9.1715,-9.1625,-9.1347,-9.1099,-9.1014,-9.078,-9.0593,-9.0593,-9.0593,-9.0593,-9.0593,-9.0593,-9.0593,-9.0593,-9.0593,-9.0899,-9.151,-9.1701,-9.2504,-9.407,-9.4299,-9.4796,-9.5598,-9.5598,-9.5598,-9.5598,-9.5598,-9.5598,-9.5637,-9.6515,-9.7356,-9.8158,-9.9037,-9.984,-10.0604,-10.0604,-10.0604,-10.0604,-10.0604,-10.0604,-10.0604,-10.0604,-10.0604,-10.0604,-8.7404,-8.7404,-8.7404,-8.7404,-8.7404,-8.7404,-8.7404,-8.7759,-8.8032,-8.8032,-8.8383,-8.8657,-8.8657,-8.8657,-8.8813,-8.9281,-8.975,-8.9984,-8.9984,-9.0374,-9.0609,-9.0609,-9.0999,-9.1194,-9.1194,-9.1194,-9.0999,-9.0609,-9.0999,-9.1194,-9.1194,-9.1194,-9.1194,-9.1194,-9.1194,-9.1194,-9.1194,-9.1194,-9.1194,-9.1194,-9.1194,-9.1194,-9.1194,-9.1194,-9.1194,-9.1194,-9.1194,-9.1194,-9.1194,-9.1194,-9.1194,-9.1194,-9.1194,-9.1194,-9.1194,-9.1194,-9.1194,-9.1272,-9.1741,-9.1851,-9.196,-9.2377,-9.2481,-9.2266,-9.1287,-9.108,-9.108,-9.108,-9.1418,-9.171,-9.171,-9.2087,-9.2323,-9.2157,-9.1883,-9.1631,-9.1445,-9.122,-9.1021,-9.1021,-9.1021,-9.0987,-9.08,-9.0679,-9.0593,-9.0593,-9.0975,-9.1357,-9.1778,-9.258,-9.3459,-9.4376,-9.4758,-9.5178,-9.5598,-9.5598,-9.5598,-9.5598,-9.5598,-9.5828,-9.6248,-9.7089,-9.7929,-9.877,-9.961,-10.0183,-10.0604,-10.0604,-10.0604,-10.0604,-10.0604,-10.0604,-10.0604,-10.0604,-10.0604,-10.0604,-8.7404,-8.7525,-8.7603,-8.7603,-8.7759,-8.7837,-8.7837,-8.8461,-8.893,-8.893,-8.9555,-8.9984,-8.9984,-9.014,-9.0218,-9.0218,-9.0335,-9.0413,-9.0413,-9.1116,-9.1507,-9.1507,-9.2131,-9.2482,-9.2482,-9.2482,-9.217,-9.1507,-9.217,-9.2482,-9.2482,-9.2482,-9.2482,-9.2482,-9.2482,-9.2482,-9.2482,-9.2482,-9.2482,-9.2482,-9.2482,-9.2482,-9.2482,-9.2482,-9.2482,-9.2482,-9.2482,-9.2482,-9.2482,-9.2482,-9.2482,-9.2482,-9.2482,-9.2482,-9.2482,-9.2482,-9.2482,-9.2482,-9.2482,-9.251,-9.2498,-9.2498,-9.2481,-9.2505,-9.2505,-9.25,-9.249,-9.249,-9.2468,-9.2405,-9.2405,-9.2412,-9.2391,-9.2391,-9.213,-9.1915,-9.1915,-9.1657,-9.1522,-9.1522,-9.1427,-9.1292,-9.1035,-9.0761,-9.0669,-9.0784,-9.1434,-9.193,-9.2236,-9.3612,-9.4452,-9.4605,-9.5255,-9.5598,-9.5598,-9.5598,-9.5598,-9.5598,-9.5751,-9.621,-9.6936,-9.7738,-9.8579,-9.9419,-10.0298,-10.0604,-10.0604,-10.0604,-10.0604,-10.0604,-10.0604,-10.0604,-10.0604,-10.0604,-10.0604,-10.0604,-8.7404,-8.7993,-8.854,-8.854,-8.9164,-8.9633,-8.9633,-8.975,-8.9828,-8.9828,-8.9945,-8.9984,-8.9984,-9.0687,-9.1116,-9.1116,-9.1741,-9.217,-9.217,-9.2287,-9.2326,-9.2326,-9.2443,-9.2482,-9.2482,-9.2482,-9.2443,-9.2326,-9.2443,-9.2482,-9.2482,-9.2482,-9.2482,-9.2482,-9.2482,-9.2482,-9.2482,-9.2482,-9.2482,-9.2482,-9.2482,-9.2482,-9.2482,-9.2482,-9.2482,-9.2482,-9.2482,-9.2482,-9.2482,-9.2482,-9.2482,-9.2482,-9.2482,-9.2482,-9.2482,-9.2482,-9.2482,-9.2482,-9.2482,-9.2482,-9.2518,-9.2518,-9.2518,-9.2514,-9.2514,-9.2485,-9.249,-9.249,-9.2468,-9.2405,-9.2405,-9.2412,-9.2391,-9.2391,-9.213,-9.1915,-9.1915,-9.1657,-9.1522,-9.1522,-9.1229,-9.107,-9.1018,-9.0761,-9.0899,-9.1586,-9.1739,-9.2465,-9.3994,-9.4261,-9.472,-9.5407,-9.5522,-9.5598,-9.5598,-9.5598,-9.5598,-9.5598,-9.6363,-9.6783,-9.6936,-9.7738,-9.8579,-9.9419,-10.0298,-10.0604,-10.0604,-10.0604,-10.0604,-10.0604,-10.0604,-10.0604,-10.0604,-10.0604,-10.0604,-10.0604,-8.8852,-8.9164,-8.9437,-8.9437,-8.975,-8.9984,-8.9984,-9.0413,-9.0726,-9.0726,-9.1116,-9.1389,-9.1389,-9.1741,-9.1975,-9.1975,-9.2287,-9.2482,-9.2482,-9.2482,-9.2482,-9.2482,-9.2482,-9.2482,-9.2482,-9.2482,-9.2482,-9.2482,-9.2482,-9.2482,-9.2482,-9.2482,-9.2482,-9.2482,-9.2482,-9.2482,-9.2482,-9.2482,-9.2482,-9.2482,-9.2482,-9.2482,-9.2482,-9.2482,-9.2482,-9.2482,-9.2482,-9.2482,-9.2482,-9.2482,-9.2482,-9.2482,-9.2482,-9.2482,-9.2482,-9.2482,-9.2482,-9.2482,-9.2482,-9.2482,-9.2482,-9.2482,-9.2482,-9.2482,-9.2482,-9.251,-9.249,-9.252,-9.249,-9.2423,-9.2405,-9.2412,-9.2391,-9.2391,-9.2293,-9.2157,-9.2157,-9.2084,-9.1985,-9.1985,-9.1694,-9.1486,-9.1486,-9.1527,-9.1721,-9.2066,-9.2804,-9.3612,-9.4376,-9.4834,-9.5216,-9.5598,-9.5598,-9.5598,-9.5598,-9.5598,-9.5828,-9.6324,-9.6706,-9.7127,-9.7623,-9.8426,-9.9266,-10.0107,-10.0413,-10.0604,-10.0604,-10.0604,-10.0604,-10.0604,-10.0604,-10.0604,-10.0604,-10.0604,-10.0604,-10.0604]},{"header":{"parameterUnit":"m.s-1","parameterCategory":1,"la1":30.6,"la2":28.766,"lo1":-90.7593,"lo2":-88.6598,"dx":0.0162,"dy":0.0183,"nx":116,"ny":114,"refTime":"2023-02-10T18:00:00:Z","depth":0,"parameterNumber":3,"parameterNumberName":"V-component_of_WINDS"},"data":[0.0,0.0,0.0,0.0,0.0,0.0,0.0,0.0,0.0,0.0,0.0,0.0,0.0,0.0,0.0,0.0,0.0,0.0,0.0,0.0,0.0,0.0,0.0,0.0,0.0,0.0,0.0,0.0,0.0,0.0,0.0,0.0,0.0,0.0,0.0,0.0,0.0,0.0,0.0,0.0,0.0,0.0,0.0,0.0,0.0,0.0,0.0,0.0,0.0,0.0,0.0,0.0,0.0,0.0,0.0,0.0,0.0,0.0,0.0,0.0,0.0,0.0,0.0,0.0,0.0,0.0,0.0,0.0,0.0,0.0,0.0,0.0,0.0,0.0,0.0,0.0,0.0,0.0,0.0,0.0,0.0,0.0,0.0,0.0,0.0,0.0,0.0,0.0,0.0,0.0,0.0,0.0,0.0,0.0,0.0,0.0,0.0,0.0,0.0,0.0,0.0,0.0,0.0,0.0,0.0,0.0,0.0,0.0,0.0,0.0,0.0,0.0,0.0,0.0,0.0,0.0,0.0,0.0,0.0,0.0,0.0,0.0,0.0,0.0,0.0,0.0,0.0,0.0,0.0,0.0,0.0,0.0,0.0,0.0,0.0,0.0,0.0,0.0,0.0,0.0,0.0,0.0,0.0,0.0,0.0,0.0,0.0,0.0,0.0,0.0,0.0,0.0,0.0,0.0,0.0,0.0,0.0,0.0,0.0,0.0,0.0,0.0,0.0,0.0,0.0,0.0,0.0,0.0,0.0,0.0,0.0,0.0,0.0,0.0,0.0,0.0,0.0,0.0,0.0,0.0,0.0,0.0,0.0,0.0,0.0,0.0,0.0,0.0,0.0,0.0,0.0,0.0,0.0,0.0,0.0,0.0,0.0,0.0,0.0,0.0,0.0,0.0,0.0,0.0,0.0,0.0,0.0,0.0,0.0,0.0,0.0,0.0,0.0,0.0,0.0,0.0,0.0,0.0,0.0,0.0,0.0,0.0,0.0,0.0,0.0,0.0,0.0,0.0,0.0,0.0,0.0,0.0,0.0,0.0,0.0,0.0,0.0,0.0,0.0,0.0,0.0,0.0,0.0,0.0,0.0,0.0,0.0,0.0,0.0,0.0,0.0,0.0,0.0,0.0,0.0,0.0,0.0,0.0,0.0,0.0,0.0,0.0,0.0,0.0,0.0,0.0,0.0,0.0,0.0,0.0,0.0,0.0,0.0,0.0,0.0,0.0,0.0,0.0,0.0,0.0,0.0,0.0,0.0,0.0,0.0,0.0,0.0,0.0,0.0,0.0,0.0,0.0,0.0,0.0,0.0,0.0,0.0,0.0,0.0,0.0,0.0,0.0,0.0,0.0,0.0,0.0,0.0,0.0,0.0,0.0,0.0,0.0,0.0,0.0,0.0,0.0,0.0,0.0,0.0,0.0,0.0,0.0,0.0,0.0,0.0,0.0,0.0,0.0,0.0,0.0,0.0,0.0,0.0,0.0,0.0,0.0,0.0,0.0,0.0,0.0,0.0,0.0,0.0,0.0,0.0,0.0,0.0,0.0,0.0,0.0,0.0,0.0,0.0,0.0,0.0,0.0,0.0,0.0,0.0,0.0,0.0,0.0,0.0,0.0,0.0,0.0,0.0,0.0,0.0,0.0,0.0,0.0,0.0,0.0,0.0,0.0,0.0,0.0,0.0,0.0,0.0,0.0,0.0,0.0,0.0,0.0,0.0,0.0,0.0,0.0,0.0,0.0,0.0,0.0,0.0,0.0,0.0,0.0,0.0,0.0,0.0,0.0,0.0,0.0,0.0,0.0,0.0,0.0,0.0,0.0,0.0,0.0,0.0,0.0,0.0,0.0,0.0,0.0,0.0,0.0,0.0,0.0,0.0,0.0,0.0,0.0,0.0,0.0,0.0,0.0,0.0,0.0,0.0,0.0,0.0,0.0,0.0,0.0,0.0,0.0,0.0,0.0,0.0,0.0,0.0,0.0,0.0,0.0,0.0,0.0,0.0,0.0,0.0,0.0,0.0,0.0,0.0,0.0,0.0,0.0,0.0,0.0,0.0,0.0,0.0,0.0,0.0,0.0,0.0,0.0,0.0,0.0,0.0,0.0,0.0,0.0,0.0,0.0,0.0,0.0,0.0,0.0,0.0,0.0,0.0,0.0,0.0,0.0,0.0,0.0,0.0,0.0,0.0,0.0,0.0,0.0,0.0,0.0,0.0,0.0,0.0,0.0,0.0,0.0,0.0,0.0,0.0,0.0,0.0,0.0,0.0,0.0,0.0,0.0,0.0,0.0,0.0,0.0,0.0,0.0,0.0,0.0,0.0,0.0,0.0,0.0,0.0,0.0,0.0,0.0,0.0,0.0,0.0,0.0,0.0,0.0,0.0,0.0,0.0,0.0,0.0,0.0,0.0,0.0,0.0,0.0,0.0,0.0,0.0,0.0,0.0,0.0,0.0,0.0,0.0,0.0,0.0,0.0,0.0,0.0,0.0,0.0,0.0,0.0,0.0,0.0,0.0,0.0,0.0,0.0,0.0,0.0,0.0,0.0,0.0,0.0,0.0,0.0,0.0,0.0,0.0,0.0,0.0,0.0,0.0,0.0,0.0,0.0,0.0,0.0,0.0,0.0,0.0,0.0,0.0,0.0,0.0,0.0,0.0,0.0,0.0,0.0,0.0,0.0,0.0,0.0,0.0,0.0,0.0,0.0,0.0,0.0,0.0,0.0,0.0,0.0,0.0,0.0,0.0,0.0,0.0,0.0,0.0,0.0,0.0,0.0,0.0,0.0,0.0,0.0,0.0,0.0,0.0,0.0,0.0,0.0,0.0,0.0,0.0,0.0,0.0,0.0,0.0,0.0,0.0,0.0,0.0,0.0,0.0,0.0,0.0,0.0,0.0,0.0,0.0,0.0,0.0,0.0,0.0,0.0,0.0,0.0,0.0,0.0,0.0,0.0,0.0,0.0,0.0,0.0,0.0,0.0,0.0,0.0,0.0,0.0,0.0,0.0,0.0,0.0,0.0,0.0,0.0,0.0,0.0,0.0,0.0,0.0,0.0,0.0,0.0,0.0,0.0,0.0,0.0,0.0,0.0,0.0,0.0,0.0,0.0,0.0,0.0,0.0,0.0,0.0,0.0,0.0,0.0,0.0,0.0,0.0,0.0,0.0,0.0,0.0,0.0,0.0,0.0,0.0,0.0,0.0,0.0,0.0,0.0,0.0,0.0,0.0,0.0,0.0,0.0,0.0,0.0,0.0,0.0,0.0,0.0,0.0,0.0,0.0,0.0,0.0,0.0,0.0,0.0,0.0,0.0,0.0,0.0,0.0,0.0,0.0,0.0,0.0,0.0,0.0,0.0,0.0,0.0,0.0,0.0,0.0,0.0,0.0,0.0,0.0,0.0,0.0,0.0,0.0,0.0,0.0,0.0,0.0,0.0,0.0,0.0,0.0,0.0,0.0,0.0,0.0,0.0,0.0,0.0,0.0,0.0,0.0,0.0,0.0,0.0,0.0,0.0,0.0,0.0,0.0,0.0,0.0,0.0,0.0,0.0,0.0,0.0,0.0,0.0,0.0,0.0,0.0,0.0,0.0,0.0,0.0,0.0,0.0,0.0,0.0,0.0,0.0,0.0,0.0,0.0,0.0,0.0,0.0,0.0,0.0,0.0,0.0,0.0,0.0,0.0,0.0,0.0,0.0,0.0,0.0,0.0,0.0,0.0,0.0,0.0,0.0,0.0,0.0,0.0,0.0,0.0,0.0,0.0,0.0,0.0,0.0,0.0,0.0,0.0,0.0,0.0,0.0,0.0,0.0,0.0,0.0,0.0,0.0,0.0,0.0,0.0,0.0,0.0,0.0,0.0,0.0,0.0,0.0,0.0,0.0,0.0,0.0,0.0,0.0,0.0,0.0,0.0,0.0,0.0,0.0,0.0,0.0,0.0,0.0,0.0,0.0,0.0,0.0,0.0,0.0,0.0,0.0,0.0,0.0,0.0,0.0,0.0,0.0,0.0,0.0,0.0,0.0,0.0,0.0,0.0,0.0,0.0,0.0,0.0,0.0,0.0,0.0,0.0,0.0,0.0,0.0,0.0,0.0,0.0,0.0,0.0,0.0,0.0,0.0,0.0,0.0,0.0,0.0,0.0,0.0,0.0,0.0,0.0,0.0,0.0,0.0,0.0,0.0,0.0,0.0,0.0,0.0,0.0,0.0,0.0,0.0,0.0,0.0,0.0,0.0,0.0,0.0,0.0,0.0,0.0,0.0,0.0,0.0,0.0,0.0,0.0,0.0,0.0,0.0,0.0,0.0,0.0,0.0,0.0,0.0,0.0,0.0,0.0,0.0,0.0,0.0,0.0,0.0,0.0,0.0,0.0,0.0,0.0,0.0,0.0,0.0,0.0,0.0,0.0,0.0,0.0,0.0,0.0,0.0,0.0,0.0,0.0,0.0,0.0,0.0,0.0,0.0,0.0,0.0,0.0,0.0,0.0,0.0,0.0,0.0,0.0,0.0,0.0,0.0,0.0,0.0,0.0,0.0,0.0,0.0,0.0,0.0,0.0,0.0,0.0,0.0,0.0,0.0,0.0,0.0,0.0,0.0,0.0,0.0,0.0,0.0,0.0,0.0,0.0,0.0,0.0,0.0,0.0,0.0,0.0,0.0,0.0,0.0,0.0,0.0,0.0,0.0,0.0,0.0,0.0,0.0,0.0,0.0,0.0,0.0,0.0,0.0,0.0,0.0,0.0,0.0,0.0,0.0,0.0,0.0,0.0,0.0,0.0,0.0,0.0,0.0,0.0,0.0,0.0,0.0,0.0,0.0,0.0,0.0,0.0,0.0,0.0,0.0,0.0,0.0,0.0,0.0,0.0,0.0,0.0,0.0,0.0,0.0,0.0,0.0,0.0,0.0,0.0,0.0,0.0,0.0,0.0,0.0,0.0,0.0,0.0,0.0,0.0,0.0,0.0,0.0,0.0,0.0,0.0,0.0,0.0,0.0,0.0,0.0,0.0,0.0,0.0,0.0,0.0,0.0,0.0,0.0,0.0,0.0,0.0,0.0,0.0,0.0,0.0,0.0,0.0,0.0,0.0,0.0,0.0,0.0,0.0,0.0,0.0,0.0,0.0,0.0,0.0,0.0,0.0,0.0,0.0,0.0,0.0,0.0,0.0,0.0,0.0,0.0,0.0,0.0,0.0,0.0,0.0,0.0,0.0,0.0,0.0,0.0,0.0,0.0,0.0,0.0,0.0,0.0,0.0,0.0,0.0,0.0,0.0,0.0,0.0,0.0,0.0,0.0,0.0,0.0,0.0,0.0,0.0,0.0,0.0,0.0,0.0,0.0,0.0,0.0,0.0,0.0,0.0,0.0,0.0,0.0,0.0,0.0,0.0,0.0,0.0,0.0,0.0,0.0,0.0,0.0,0.0,0.0,0.0,0.0,0.0,0.0,0.0,0.0,0.0,0.0,0.0,0.0,0.0,0.0,0.0,0.0,0.0,0.0,0.0,0.0,0.0,0.0,0.0,0.0,0.0,0.0,0.0,0.0,0.0,0.0,0.0,0.0,0.0,0.0,0.0,0.0,0.0,0.0,0.0,0.0,0.0,0.0,0.0,0.0,0.0,0.0,0.0,0.0,0.0,0.0,0.0,0.0,0.0,0.0,0.0,0.0,0.0,0.0,0.0,0.0,0.0,0.0,0.0,0.0,0.0,0.0,0.0,0.0,0.0,0.0,0.0,0.0,0.0,0.0,0.0,0.0,0.0,0.0,0.0,0.0,0.0,0.0,0.0,0.0,0.0,0.0,0.0,0.0,0.0,0.0,0.0,0.0,0.0,0.0,0.0,0.0,0.0,0.0,0.0,0.0,0.0,0.0,0.0,0.0,0.0,0.0,0.0,0.0,0.0,0.0,0.0,0.0,0.0,0.0,0.0,0.0,0.0,0.0,0.0,0.0,0.0,0.0,0.0,0.0,0.0,0.0,0.0,0.0,0.0,0.0,0.0,0.0,0.0,0.0,0.0,0.0,0.0,0.0,0.0,0.0,0.0,0.0,0.0,0.0,0.0,0.0,0.0,0.0,0.0,0.0,0.0,0.0,0.0,0.0,0.0,0.0,2.5119,2.5119,0.0,0.0,0.0,0.0,0.0,0.0,0.0,0.0,0.0,0.0,0.0,0.0,0.0,0.0,0.0,0.0,0.0,0.0,0.0,0.0,0.0,0.0,0.0,0.0,0.0,0.0,0.0,0.0,0.0,0.0,0.0,0.0,0.0,0.0,0.0,0.0,0.0,0.0,0.0,0.0,0.0,0.0,0.0,0.0,0.0,0.0,0.0,0.0,0.0,0.0,0.0,0.0,0.0,0.0,0.0,0.0,0.0,0.0,0.0,0.0,0.0,0.0,0.0,0.0,0.0,0.0,0.0,0.0,0.0,0.0,0.0,0.0,0.0,0.0,0.0,0.0,0.0,0.0,0.0,0.0,0.0,0.0,0.0,0.0,0.0,0.0,0.0,0.0,0.0,0.0,0.0,0.0,0.0,0.0,0.0,0.0,0.0,0.0,0.0,0.0,0.0,0.0,0.0,0.0,0.0,0.0,0.0,0.0,0.0,0.0,0.0,0.0,0.0,0.0,2.5119,2.5119,0.0,0.0,0.0,0.0,0.0,0.0,0.0,0.0,0.0,0.0,0.0,0.0,0.0,0.0,0.0,0.0,0.0,0.0,0.0,0.0,0.0,0.0,0.0,0.0,0.0,0.0,0.0,0.0,0.0,0.0,0.0,0.0,0.0,0.0,0.0,0.0,0.0,0.0,0.0,0.0,0.0,0.0,0.0,0.0,0.0,0.0,0.0,0.0,0.0,0.0,0.0,0.0,0.0,0.0,0.0,0.0,0.0,0.0,0.0,0.0,0.0,0.0,0.0,0.0,0.0,0.0,0.0,0.0,0.0,0.0,0.0,0.0,0.0,0.0,0.0,0.0,0.0,0.0,0.0,0.0,0.0,0.0,0.0,0.0,0.0,0.0,0.0,0.0,0.0,0.0,0.0,0.0,0.0,0.0,0.0,0.0,0.0,0.0,0.0,0.0,0.0,0.0,0.0,0.0,0.0,0.0,0.0,0.0,2.5119,2.5119,2.5119,2.5119,2.5119,2.5119,2.5119,2.5119,2.5119,2.5119,0.0,0.0,0.0,0.0,0.0,0.0,0.0,0.0,0.0,0.0,0.0,0.0,0.0,0.0,0.0,0.0,0.0,0.0,0.0,0.0,0.0,0.0,0.0,0.0,0.0,0.0,0.0,0.0,0.0,0.0,0.0,0.0,0.0,0.0,0.0,0.0,0.0,0.0,0.0,0.0,0.0,0.0,0.0,0.0,0.0,0.0,0.0,0.0,0.0,0.0,0.0,0.0,0.0,0.0,0.0,0.0,0.0,0.0,0.0,0.0,0.0,0.0,0.0,0.0,0.0,0.0,0.0,0.0,0.0,0.0,0.0,0.0,0.0,0.0,0.0,0.0,0.0,0.0,0.0,0.0,0.0,0.0,0.0,0.0,0.0,0.0,2.5119,2.5119,0.0,0.0,0.0,0.0,0.0,0.0,0.0,0.0,0.0,0.0,0.0,0.0,0.0,2.5119,2.5119,2.5119,2.5119,2.5119,2.5119,2.5119,2.5119,2.5119,2.5119,2.5119,2.5119,0.0,2.5119,2.5119,0.0,0.0,0.0,0.0,0.0,0.0,0.0,0.0,0.0,0.0,0.0,0.0,0.0,0.0,0.0,0.0,0.0,0.0,0.0,0.0,0.0,0.0,0.0,0.0,0.0,0.0,0.0,0.0,0.0,0.0,0.0,0.0,0.0,0.0,0.0,0.0,0.0,0.0,0.0,0.0,0.0,0.0,0.0,0.0,0.0,0.0,0.0,0.0,0.0,0.0,0.0,0.0,0.0,0.0,0.0,0.0,0.0,0.0,0.0,0.0,0.0,0.0,0.0,0.0,0.0,0.0,0.0,0.0,0.0,0.0,0.0,0.0,0.0,0.0,0.0,0.0,0.0,0.0,0.0,0.0,0.0,0.0,0.0,0.0,0.0,2.5119,2.5119,2.5119,2.5119,2.5119,0.0,0.0,0.0,0.0,0.0,0.0,0.0,0.0,0.0,2.5119,2.5119,2.5119,2.5119,2.5119,2.5119,2.5119,2.5119,2.5119,2.5119,2.5119,2.5119,2.5119,2.5119,2.5119,2.5119,2.5119,2.5119,2.5119,0.0,0.0,0.0,0.0,2.5119,2.5119,0.0,0.0,0.0,0.0,0.0,0.0,0.0,0.0,0.0,0.0,0.0,0.0,0.0,0.0,0.0,0.0,0.0,0.0,0.0,0.0,0.0,0.0,0.0,0.0,0.0,0.0,0.0,0.0,0.0,0.0,0.0,0.0,0.0,0.0,0.0,0.0,0.0,0.0,0.0,0.0,0.0,0.0,0.0,0.0,0.0,0.0,0.0,0.0,0.0,0.0,0.0,0.0,0.0,0.0,0.0,0.0,0.0,0.0,0.0,0.0,0.0,0.0,0.0,0.0,0.0,0.0,0.0,0.0,0.0,0.0,0.0,0.0,0.0,0.0,0.0,0.0,0.0,2.5119,2.5119,2.5119,2.5119,2.5119,0.0,0.0,0.0,0.0,0.0,0.0,2.5119,2.5119,2.5119,2.5119,2.5119,2.5119,2.5119,2.5119,2.5119,2.5119,2.5119,2.5119,2.5119,2.5119,2.5119,2.5119,2.5119,2.5119,2.5119,2.5119,2.5119,2.5119,2.5119,2.5119,2.5119,2.5119,2.5119,2.5119,0.0,0.0,0.0,0.0,0.0,0.0,0.0,0.0,0.0,0.0,0.0,0.0,0.0,0.0,0.0,0.0,0.0,0.0,0.0,0.0,0.0,0.0,0.0,0.0,0.0,0.0,0.0,0.0,0.0,0.0,0.0,0.0,0.0,0.0,0.0,0.0,0.0,0.0,0.0,0.0,0.0,0.0,0.0,0.0,0.0,0.0,0.0,0.0,0.0,0.0,0.0,0.0,0.0,0.0,0.0,0.0,0.0,0.0,0.0,0.0,0.0,0.0,0.0,0.0,0.0,0.0,0.0,0.0,0.0,0.0,0.0,0.0,0.0,0.0,0.0,0.0,0.0,0.0,0.0,2.5119,2.5119,0.0,0.0,0.0,0.0,2.5119,2.5119,2.5119,2.5119,2.5119,2.5119,2.5119,2.5119,2.5119,2.5119,2.5119,2.5119,2.5119,2.5119,2.5119,2.5119,2.5119,2.5119,2.5119,2.5119,2.5119,2.5119,2.5119,2.5119,2.5119,2.5119,2.5119,2.5119,2.5119,2.5119,2.5119,0.0,0.0,0.0,0.0,0.0,0.0,0.0,0.0,0.0,0.0,0.0,0.0,0.0,0.0,0.0,0.0,0.0,0.0,0.0,0.0,0.0,0.0,0.0,0.0,0.0,0.0,0.0,0.0,0.0,0.0,0.0,0.0,0.0,0.0,0.0,0.0,0.0,0.0,0.0,0.0,0.0,0.0,0.0,0.0,0.0,0.0,0.0,0.0,0.0,0.0,0.0,0.0,0.0,0.0,0.0,0.0,0.0,0.0,0.0,0.0,0.0,0.0,0.0,0.0,0.0,0.0,0.0,0.0,0.0,0.0,0.0,0.0,0.0,0.0,0.0,0.0,0.0,0.0,0.0,2.5119,2.5119,0.0,2.5119,2.5119,2.5119,2.5119,2.5119,2.5119,2.5119,2.5119,2.5119,2.5119,2.5119,2.5119,2.5119,2.5119,2.5119,2.5119,2.5119,2.5119,2.5119,2.5119,2.5119,2.5119,2.5119,2.5119,2.5119,2.5119,2.5119,2.5119,2.5119,2.5119,2.5119,2.5119,2.5119,2.5119,0.0,0.0,0.0,0.0,0.0,0.0,0.0,0.0,0.0,0.0,0.0,0.0,0.0,0.0,0.0,0.0,0.0,0.0,0.0,0.0,0.0,0.0,0.0,0.0,0.0,0.0,0.0,0.0,0.0,0.0,0.0,0.0,0.0,0.0,0.0,0.0,0.0,0.0,0.0,0.0,0.0,0.0,2.9298,0.0,0.0,0.0,0.0,0.0,0.0,0.0,0.0,0.0,0.0,0.0,0.0,0.0,0.0,0.0,0.0,0.0,0.0,0.0,0.0,0.0,0.0,0.0,0.0,0.0,0.0,0.0,0.0,0.0,0.0,0.0,0.0,0.0,0.0,0.0,2.5119,2.5119,2.5119,2.5119,2.5119,2.5119,2.5119,2.5119,2.5119,2.5119,2.5119,2.5119,2.5119,2.5119,2.5119,2.5119,2.5119,2.5119,2.5119,2.5119,2.5119,2.5119,2.5119,2.5119,2.5119,2.5119,2.5119,2.5119,2.5119,2.5119,2.5119,2.5119,2.5119,2.5119,2.5119,2.5119,2.5119,2.5119,0.0,0.0,0.0,0.0,0.0,0.0,0.0,0.0,0.0,0.0,0.0,0.0,0.0,0.0,0.0,0.0,0.0,0.0,0.0,0.0,0.0,0.0,0.0,0.0,0.0,0.0,0.0,0.0,0.0,0.0,0.0,0.0,0.0,0.0,0.0,0.0,0.0,0.0,0.0,0.0,0.0,0.0,2.9298,0.0,0.0,0.0,0.0,0.0,0.0,0.0,0.0,0.0,0.0,0.0,0.0,0.0,0.0,0.0,0.0,0.0,0.0,0.0,0.0,0.0,0.0,0.0,0.0,0.0,0.0,0.0,0.0,0.0,0.0,0.0,0.0,0.0,2.5119,2.5119,2.5119,2.5119,2.5119,2.5119,2.5119,2.5119,2.5119,2.5119,2.5119,2.5119,2.5119,2.5119,2.5119,2.5119,2.5119,2.5119,2.5119,2.5119,2.5119,2.5119,2.5119,2.5119,2.5119,2.5119,2.5119,2.5119,2.5119,2.5119,2.5119,2.5119,2.5119,2.5119,2.5119,2.5119,2.5119,2.5119,2.5119,2.5119,0.0,0.0,0.0,0.0,0.0,0.0,0.0,0.0,0.0,0.0,0.0,0.0,0.0,0.0,0.0,0.0,0.0,0.0,0.0,0.0,0.0,0.0,0.0,0.0,0.0,0.0,0.0,0.0,0.0,0.0,0.0,0.0,0.0,0.0,0.0,0.0,0.0,0.0,0.0,0.0,0.0,0.0,2.9298,0.0,0.0,0.0,0.0,0.0,0.0,0.0,0.0,0.0,0.0,0.0,0.0,0.0,0.0,0.0,0.0,0.0,0.0,0.0,0.0,0.0,0.0,0.0,0.0,0.0,0.0,0.0,0.0,0.0,0.0,0.0,0.0,2.5119,2.5119,2.5119,2.5119,2.5119,2.5119,2.5119,2.5119,2.5119,2.5119,2.5119,2.5119,2.5119,2.5119,2.5119,2.5119,2.5119,2.5119,2.5119,2.5119,2.5119,2.5119,2.5119,2.5119,2.5119,2.5119,2.5119,2.5119,2.5119,2.5119,2.5119,2.5119,2.5119,2.5119,2.5119,2.5119,2.5119,2.5119,2.5119,2.5119,2.5119,0.0,0.0,0.0,0.0,0.0,0.0,0.0,0.0,0.0,0.0,0.0,0.0,0.0,0.0,0.0,0.0,0.0,0.0,0.0,0.0,0.0,0.0,0.0,0.0,0.0,0.0,0.0,0.0,0.0,0.0,0.0,0.0,0.0,0.0,0.0,0.0,0.0,0.0,0.0,0.0,0.0,0.0,2.9298,2.9298,2.9298,2.9298,2.9298,2.9298,2.9298,2.8995,0.0,0.0,0.0,0.0,0.0,0.0,0.0,0.0,0.0,0.0,0.0,0.0,0.0,0.0,0.0,0.0,0.0,0.0,0.0,0.0,0.0,0.0,0.0,0.0,2.5119,2.5119,2.5119,2.5119,2.5119,2.5119,2.5119,2.5119,2.5119,2.5119,2.5119,2.5119,2.5119,2.5119,2.5119,2.5119,2.5119,2.5119,2.5119,2.5119,2.5119,2.5119,2.5119,2.5119,2.5119,2.5119,2.5119,2.5119,2.5119,2.5119,2.4916,2.4849,2.4849,2.4713,2.4645,2.4645,0.0,0.0,0.0,0.0,2.5004,2.5257,0.0,0.0,0.0,0.0,0.0,0.0,0.0,0.0,0.0,0.0,0.0,0.0,0.0,0.0,0.0,0.0,0.0,0.0,0.0,0.0,0.0,0.0,0.0,0.0,0.0,0.0,0.0,0.0,0.0,0.0,0.0,0.0,0.0,0.0,0.0,0.0,0.0,0.0,0.0,0.0,0.0,0.0,2.9082,2.9226,2.9298,2.9298,2.9298,2.9298,2.9298,2.9226,0.0,0.0,0.0,0.0,0.0,0.0,0.0,0.0,0.0,0.0,0.0,0.0,0.0,0.0,0.0,0.0,0.0,0.0,0.0,0.0,0.0,0.0,0.0,0.0,2.5119,2.5119,2.5119,2.5119,2.5119,2.5119,2.5119,2.5119,2.5119,2.5119,2.5119,2.5119,2.5119,2.5119,2.5119,2.5119,0.0,0.0,0.0,2.5119,2.5119,2.5119,2.5119,2.5119,2.5119,2.5119,2.5119,2.5052,2.5052,2.4984,2.4645,2.4428,2.4428,2.4088,2.4048,2.4144,2.4728,2.5013,2.4975,2.4621,2.489,2.544,0.0,0.0,0.0,0.0,0.0,0.0,0.0,0.0,0.0,0.0,0.0,0.0,0.0,0.0,0.0,0.0,0.0,0.0,0.0,0.0,0.0,0.0,0.0,0.0,0.0,0.0,0.0,0.0,0.0,0.0,0.0,0.0,0.0,0.0,0.0,0.0,0.0,0.0,0.0,0.0,0.0,0.0,2.797,2.8923,2.9298,2.9298,2.9298,2.9298,2.9226,2.8563,2.8274,2.8057,2.742,0.0,0.0,0.0,0.0,0.0,0.0,0.0,0.0,0.0,0.0,0.0,0.0,0.0,0.0,0.0,0.0,0.0,0.0,0.0,0.0,2.5119,2.5119,2.5119,2.5119,2.5119,2.5119,2.5119,2.5119,2.5119,2.5119,2.5119,2.5119,2.5119,2.5119,2.5119,2.5119,2.5119,2.5119,2.5119,2.5119,2.5119,2.5119,2.5119,2.5119,2.5119,2.5119,0.0,2.5119,2.4781,2.4645,2.4578,2.4224,2.4088,2.4088,2.4034,2.4106,2.4302,2.4269,2.4311,2.4537,2.4468,2.4874,2.5354,0.0,0.0,0.0,0.0,0.0,0.0,0.0,0.0,0.0,0.0,0.0,0.0,0.0,0.0,0.0,0.0,0.0,0.0,0.0,0.0,0.0,0.0,0.0,0.0,0.0,0.0,0.0,0.0,0.0,0.0,0.0,0.0,0.0,0.0,0.0,0.0,0.0,0.0,0.0,0.0,0.0,0.0,2.5845,2.7085,2.7535,2.7608,2.8186,2.8418,2.8418,2.8635,2.8563,2.8274,2.771,2.742,2.7274,0.0,0.0,0.0,0.0,0.0,0.0,0.0,0.0,0.0,0.0,0.0,0.0,0.0,0.0,2.5119,0.0,0.0,2.5119,2.5119,2.5119,2.5119,2.5119,2.5119,2.5119,2.5119,2.5119,2.5119,2.5119,2.5119,2.5119,2.5119,2.5119,2.5119,2.5119,2.5119,2.5119,2.5119,2.4916,2.4916,2.5119,2.4916,2.4916,2.5119,2.4916,2.4781,2.4781,2.4442,2.4224,2.4224,2.3884,2.3679,2.3693,2.3653,2.3735,2.3872,2.3872,2.4163,2.4568,2.4441,2.4777,2.5314,0.0,0.0,0.0,0.0,0.0,0.0,0.0,0.0,0.0,0.0,0.0,0.0,0.0,0.0,0.0,0.0,0.0,0.0,0.0,0.0,0.0,0.0,0.0,0.0,0.0,0.0,0.0,0.0,0.0,0.0,0.0,0.0,0.0,0.0,0.0,0.0,0.0,0.0,0.0,0.0,0.0,0.0,2.3796,2.4743,2.5405,2.5918,2.6867,2.7245,2.7535,2.8418,2.8635,2.8418,2.7985,2.7695,2.742,2.7129,2.6939,0.0,0.0,0.0,0.0,0.0,0.0,0.0,0.0,0.0,2.5119,2.5119,2.5119,2.5119,2.5119,2.5119,2.5119,2.5119,2.5119,2.5119,2.5119,2.5119,2.5119,2.5119,2.5119,2.5119,2.5119,2.5119,2.5119,2.5119,2.5119,2.5119,2.5119,2.5052,2.4984,2.4984,2.4645,2.4578,2.4984,2.4578,2.4578,2.4984,2.4578,2.4428,2.436,2.402,2.3884,2.3898,2.3543,2.3365,2.3392,2.3426,2.3447,2.3527,2.3768,2.4232,2.4687,2.4361,2.4668,2.5205,0.0,0.0,0.0,0.0,0.0,0.0,0.0,0.0,0.0,0.0,0.0,0.0,0.0,0.0,0.0,0.0,0.0,0.0,0.0,0.0,0.0,0.0,0.0,0.0,0.0,0.0,0.0,0.0,0.0,0.0,0.0,0.0,0.0,0.0,0.0,0.0,0.0,0.0,0.0,0.0,0.0,0.0,2.2483,2.262,2.4018,2.5831,2.5904,2.643,2.7027,2.6823,2.7187,2.7623,2.7274,2.7129,2.7056,2.6983,0.0,2.6559,2.6559,2.6105,2.5622,2.5549,2.5315,2.5163,0.0,0.0,2.5119,2.5119,2.5119,2.5119,2.5119,2.5119,2.5119,2.5119,2.5119,2.5119,2.5119,2.5119,2.5119,2.5119,2.5119,2.5119,2.5119,2.5119,2.5119,2.5119,2.5119,2.5119,2.5119,2.4781,2.4578,2.4578,2.4224,2.4224,2.4563,2.4224,2.4224,2.4563,2.4224,2.4034,2.402,2.3679,2.3475,2.3488,2.3361,2.3343,2.33,2.3594,2.3875,2.4102,2.4142,2.4388,2.4576,2.4321,2.4634,2.5171,0.0,0.0,0.0,0.0,0.0,0.0,0.0,0.0,0.0,0.0,0.0,0.0,0.0,0.0,0.0,0.0,0.0,0.0,0.0,0.0,0.0,0.0,0.0,0.0,0.0,0.0,0.0,0.0,0.0,0.0,0.0,0.0,0.0,0.0,0.0,0.0,0.0,0.0,0.0,0.0,0.0,0.0,2.2334,2.2334,2.2608,2.3252,2.4891,2.5712,0.0,0.0,2.7478,2.755,2.742,2.7202,2.6954,2.6764,2.6603,0.0,2.6047,2.574,0.0,0.0,2.5154,2.5119,2.5119,2.5119,2.5119,2.5119,2.5119,2.5119,2.5119,2.5119,2.5119,0.0,2.5119,2.5119,2.5119,2.5119,2.5119,2.5119,2.5119,2.5119,2.5119,2.5119,2.5119,2.5119,2.4849,2.4781,2.4781,2.4442,2.4238,2.4238,2.4088,2.4088,2.4238,2.4088,2.4088,2.4224,2.3816,2.3679,2.3611,2.327,2.3159,2.3348,2.3343,2.342,2.3607,2.3901,2.4102,2.4222,2.4396,2.4529,2.4623,2.4502,2.4603,2.4857,0.0,0.0,0.0,0.0,0.0,0.0,0.0,0.0,0.0,0.0,0.0,0.0,0.0,0.0,0.0,0.0,0.0,0.0,0.0,0.0,0.0,0.0,0.0,0.0,0.0,0.0,0.0,0.0,0.0,0.0,0.0,0.0,0.0,0.0,0.0,0.0,0.0,0.0,0.0,0.0,0.0,0.0,2.1948,2.1948,2.1424,2.1026,2.3722,2.4683,0.0,0.0,2.7478,2.7405,2.7405,2.7202,2.6925,2.6603,2.6383,2.612,2.5549,0.0,0.0,2.5178,2.5119,2.5119,2.5119,2.5119,2.5119,2.5119,2.5119,2.5119,2.5119,2.5119,2.5119,2.5119,2.5119,2.5119,2.5119,2.5119,2.5119,2.5119,2.4984,2.4916,2.4916,2.4916,2.4916,2.4916,2.4578,2.4374,2.4374,2.402,2.3884,2.4034,2.3816,2.3816,2.4034,2.3816,2.3747,2.3816,2.3475,2.327,2.327,2.309,2.3153,2.3447,2.3541,2.3688,2.3915,2.4209,2.4329,2.4342,2.4556,2.4636,2.4636,2.4636,2.4636,2.4636,0.0,0.0,0.0,0.0,0.0,0.0,0.0,0.0,0.0,0.0,0.0,0.0,0.0,0.0,0.0,0.0,0.0,0.0,0.0,0.0,0.0,0.0,0.0,0.0,0.0,0.0,0.0,0.0,0.0,0.0,0.0,0.0,0.0,0.0,0.0,0.0,0.0,0.0,0.0,0.0,0.0,0.0,2.1037,2.1037,2.0511,2.0135,2.262,0.0,0.0,0.0,2.6385,2.6983,2.6983,2.6998,0.0,2.6603,2.6061,0.0,0.0,0.0,2.5134,2.5134,2.5119,2.5119,2.5119,2.5119,2.5119,2.5119,2.5119,2.5119,2.5119,2.5119,2.5119,2.5119,2.5119,2.5119,2.5119,2.5119,2.5119,2.5119,2.4781,2.4495,0.0,2.4495,2.4495,2.4495,2.4238,2.402,2.402,2.3611,2.3611,2.3952,2.3338,2.327,2.3952,2.327,2.3133,2.3406,2.3065,2.2928,2.2941,2.318,2.3474,2.3768,2.4062,2.4182,2.4209,2.4502,2.4623,2.4623,2.4636,2.4636,2.4636,2.4636,2.4636,2.4636,0.0,0.0,0.0,0.0,0.0,0.0,0.0,0.0,0.0,0.0,0.0,0.0,0.0,0.0,0.0,0.0,0.0,0.0,0.0,0.0,0.0,0.0,0.0,0.0,0.0,0.0,0.0,0.0,0.0,0.0,0.0,0.0,0.0,0.0,0.0,0.0,0.0,0.0,0.0,0.0,0.0,0.0,2.0962,2.0436,1.9682,1.9229,0.0,0.0,0.0,0.0,0.0,0.0,2.6983,0.0,0.0,2.6339,0.0,0.0,0.0,0.0,2.5119,2.5119,2.5119,2.5119,2.5119,2.5119,2.5119,2.5119,2.5119,2.5119,2.5119,2.5119,2.5119,2.5119,2.5119,2.5119,2.5119,2.5119,2.5119,2.5119,2.4984,0.0,0.0,0.0,0.0,2.4156,2.3816,2.3611,2.3611,2.327,2.3133,2.327,2.327,2.327,2.327,2.327,2.3201,2.3065,2.3142,2.3273,2.3474,2.3567,2.3781,2.4062,2.4155,2.3718,2.2843,2.2942,2.298,2.2905,2.1849,2.2073,2.2905,2.1849,2.14,2.1538,0.0,0.0,0.0,0.0,0.0,0.0,0.0,0.0,0.0,0.0,0.0,0.0,0.0,0.0,0.0,0.0,0.0,0.0,0.0,0.0,0.0,0.0,0.0,0.0,0.0,0.0,0.0,0.0,0.0,0.0,0.0,0.0,0.0,0.0,0.0,0.0,0.0,0.0,0.0,0.0,0.0,0.0,2.0048,1.9606,1.885,0.0,0.0,0.0,0.0,0.0,0.0,0.0,0.0,0.0,0.0,0.0,0.0,0.0,0.0,2.5119,2.5119,2.5119,2.5119,2.5119,2.5119,2.5119,2.5119,2.5119,2.5119,2.5119,2.5119,2.5119,2.5119,2.5119,2.5119,2.5119,2.5119,2.5119,2.5119,2.5119,2.4984,2.4713,0.0,0.0,0.0,2.3816,2.3406,2.3201,2.3201,2.2996,2.2928,2.3065,2.3201,2.3201,2.3065,2.3241,2.328,2.3193,2.3394,2.3634,2.3928,2.3928,2.4088,2.4283,2.3758,2.2965,2.2148,2.155,2.1314,2.1239,2.0188,2.0414,2.1239,2.0188,1.9487,1.9247,0.0,0.0,0.0,0.0,0.0,0.0,0.0,0.0,0.0,0.0,0.0,0.0,0.0,0.0,0.0,0.0,0.0,0.0,0.0,0.0,0.0,0.0,0.0,0.0,0.0,0.0,0.0,0.0,0.0,0.0,0.0,0.0,0.0,0.0,0.0,0.0,0.0,0.0,0.0,0.0,0.0,0.0,1.8623,1.8547,0.0,0.0,0.0,0.0,0.0,0.0,0.0,0.0,0.0,0.0,0.0,0.0,0.0,2.4984,2.5052,2.5119,2.5119,2.5119,2.5119,2.5119,2.5119,2.5119,2.5119,2.5119,2.5119,2.5119,0.0,0.0,2.5119,2.5119,2.5119,2.5119,2.5119,2.5119,2.5119,0.0,0.0,0.0,0.0,0.0,0.0,2.3406,0.0,2.2928,2.2928,2.2928,2.3065,2.3338,2.3078,2.3092,2.3365,2.3332,2.35,2.3794,2.3794,2.3941,2.4222,2.4222,2.4382,2.4488,2.2905,2.2148,2.1924,2.0338,1.9661,1.9661,1.9596,1.9606,1.9682,1.9617,1.8698,1.7768,0.0,0.0,0.0,0.0,0.0,0.0,0.0,0.0,0.0,0.0,0.0,0.0,0.0,0.0,0.0,0.0,0.0,0.0,0.0,0.0,0.0,0.0,0.0,0.0,0.0,0.0,0.0,0.0,0.0,0.0,0.0,0.0,0.0,0.0,0.0,0.0,0.0,0.0,0.0,0.0,0.0,0.0,1.8547,0.0,0.0,0.0,0.0,0.0,0.0,0.0,0.0,0.0,0.0,0.0,2.2275,0.0,0.0,2.3652,2.4781,2.5119,2.5119,2.5119,2.5119,2.5119,2.5119,2.5119,2.5119,2.5119,2.5119,2.5119,0.0,0.0,0.0,2.5119,2.5119,0.0,2.5119,2.5119,0.0,0.0,0.0,2.4224,2.3611,2.3475,0.0,0.0,2.2928,2.2928,2.2928,2.2928,2.2928,2.2996,2.3155,2.3207,2.3346,2.3584,2.3808,2.4088,2.4088,2.4249,2.4529,2.4529,2.4569,2.4488,2.2905,2.155,2.0263,1.8688,1.8006,1.7873,1.6807,1.7161,1.8106,1.7033,1.6337,1.6143,0.0,0.0,0.0,0.0,0.0,0.0,0.0,0.0,0.0,0.0,0.0,0.0,0.0,0.0,0.0,0.0,0.0,0.0,0.0,0.0,0.0,0.0,0.0,0.0,0.0,0.0,0.0,0.0,0.0,0.0,0.0,0.0,0.0,0.0,0.0,0.0,0.0,0.0,0.0,0.0,0.0,0.0,0.0,0.0,0.0,0.0,0.0,0.0,0.0,0.0,0.0,2.0188,2.0928,2.0814,2.0761,2.2241,0.0,2.3131,2.3898,2.4563,2.5119,2.5119,2.5119,2.5119,2.5119,2.5119,2.5119,2.5119,2.5119,0.0,0.0,0.0,0.0,0.0,0.0,0.0,2.5119,2.4916,2.4781,0.0,2.436,0.0,2.3475,2.3406,2.327,0.0,2.2928,2.2928,2.2928,2.2993,2.3073,2.3073,2.3367,2.3581,2.3714,2.3875,2.4102,2.4396,2.4396,2.4109,2.3574,2.3574,2.3129,2.2372,2.0789,1.9638,1.8744,1.7079,1.6516,1.6458,1.5631,1.5901,1.6616,1.5789,1.5561,1.5626,0.0,0.0,0.0,0.0,0.0,0.0,0.0,0.0,0.0,0.0,0.0,0.0,0.0,0.0,0.0,0.0,0.0,0.0,0.0,0.0,0.0,0.0,0.0,0.0,0.0,0.0,0.0,0.0,0.0,0.0,0.0,0.0,0.0,0.0,0.0,0.0,0.0,0.0,0.0,0.0,0.0,0.0,0.0,0.0,0.0,0.0,0.0,0.0,0.0,0.0,1.7426,1.7655,1.9067,1.9276,1.9265,2.0691,2.179,2.2566,2.2762,2.3802,2.4849,2.5052,2.5119,2.5119,2.5119,2.5119,2.5119,2.5119,0.0,0.0,2.5119,0.0,2.5119,2.5119,0.0,2.5119,2.5119,2.4781,2.4578,2.4428,2.417,2.3816,2.3406,2.3379,2.3269,2.2995,2.2966,2.2966,2.2926,2.322,2.3407,2.3447,2.3701,2.3968,2.4262,2.4262,2.4382,2.4636,2.4676,2.3787,2.2271,2.2307,2.1418,1.9757,1.817,1.7587,1.7592,1.5895,1.5374,1.552,1.5545,1.5553,1.5553,1.5577,1.5683,1.5813,0.0,0.0,0.0,0.0,0.0,0.0,0.0,0.0,0.0,0.0,0.0,0.0,0.0,0.0,0.0,0.0,0.0,0.0,0.0,0.0,0.0,0.0,0.0,0.0,0.0,0.0,0.0,0.0,0.0,0.0,0.0,0.0,0.0,0.0,0.0,0.0,0.0,0.0,0.0,0.0,0.0,0.0,0.0,0.0,0.0,0.0,0.0,0.0,0.0,0.0,1.7426,1.7426,1.7721,1.7652,1.7728,1.9041,1.9443,1.9968,2.2212,2.3024,2.3515,2.4781,2.5119,2.5119,2.5119,2.5119,0.0,0.0,0.0,2.5119,2.5119,2.5119,0.0,2.5119,0.0,0.0,0.0,0.0,2.4781,0.0,0.0,0.0,0.0,0.0,0.0,0.0,2.3474,2.35,2.326,2.3527,2.3808,2.4048,2.4102,2.4262,2.4556,2.4556,2.4583,2.4562,2.489,2.4083,2.2473,2.2689,2.1862,2.016,1.8534,1.7858,1.7729,1.6089,1.5488,1.5528,1.5675,1.5731,1.5748,1.5902,1.5975,1.5999,0.0,0.0,0.0,0.0,0.0,0.0,0.0,0.0,0.0,0.0,0.0,0.0,0.0,0.0,0.0,0.0,0.0,0.0,0.0,0.0,0.0,0.0,0.0,0.0,0.0,0.0,0.0,0.0,0.0,0.0,0.0,0.0,0.0,0.0,0.0,0.0,0.0,0.0,0.0,0.0,0.0,0.0,0.0,0.0,0.0,0.0,0.0,0.0,0.0,0.0,1.7426,1.7426,1.7426,1.735,1.7359,1.7772,1.8311,1.9079,2.0238,2.1089,2.1846,2.2545,2.3311,2.3938,2.3938,0.0,0.0,0.0,0.0,2.5119,2.5119,0.0,0.0,0.0,0.0,0.0,0.0,0.0,0.0,0.0,0.0,0.0,0.0,0.0,0.0,2.3541,2.3834,2.3861,2.3581,2.3834,2.4128,2.4422,2.4422,2.4489,2.4636,2.4796,2.4863,2.4877,2.4237,2.3044,2.142,2.0691,1.9416,1.7785,1.7003,1.6748,1.6755,1.5963,1.5707,1.5796,1.5886,1.5918,1.5926,1.6016,1.5966,1.5966,0.0,0.0,0.0,0.0,0.0,0.0,0.0,0.0,0.0,0.0,0.0,0.0,0.0,0.0,0.0,0.0,0.0,0.0,0.0,0.0,0.0,0.0,0.0,0.0,0.0,0.0,0.0,0.0,0.0,0.0,0.0,0.0,0.0,0.0,0.0,0.0,0.0,0.0,0.0,0.0,0.0,0.0,0.0,0.0,0.0,0.0,0.0,0.0,0.0,0.0,1.7426,1.7426,1.7426,1.7426,1.7341,1.6925,1.76,1.8508,1.84,1.9228,2.019,2.0536,2.1502,2.2395,2.2751,2.372,0.0,0.0,0.0,2.5119,2.5119,0.0,0.0,0.0,0.0,0.0,0.0,0.0,0.0,0.0,0.0,0.0,0.0,0.0,0.0,2.3848,2.4128,2.4195,2.3968,2.4168,2.4396,2.4549,2.4703,2.473,2.473,2.5024,2.517,2.517,2.3741,2.2148,2.0508,1.8838,1.7128,1.5634,1.5634,1.5707,1.5829,1.5829,1.5918,1.5966,1.5966,1.5966,1.5966,1.5966,1.5966,1.5966,0.0,0.0,0.0,0.0,0.0,0.0,0.0,0.0,0.0,0.0,0.0,0.0,0.0,0.0,0.0,0.0,0.0,0.0,0.0,0.0,0.0,0.0,0.0,0.0,0.0,0.0,0.0,0.0,0.0,0.0,0.0,0.0,0.0,0.0,0.0,0.0,0.0,0.0,0.0,0.0,0.0,0.0,0.0,0.0,0.0,0.0,0.0,0.0,0.0,0.0,0.0,1.7426,1.7426,1.7426,1.7341,1.6925,0.0,0.0,1.8117,1.8471,1.889,2.0259,2.0674,2.1158,2.2477,0.0,0.0,0.0,2.5119,2.5119,2.5119,2.5119,2.5119,0.0,0.0,0.0,0.0,0.0,0.0,0.0,0.0,0.0,0.0,0.0,0.0,2.4155,2.4436,2.4583,2.4556,2.4583,2.4609,2.4636,2.4903,2.5037,2.5037,2.5331,2.5478,2.5478,2.4028,2.2414,2.0686,1.9211,1.7602,1.5917,1.5917,1.5925,1.6024,1.6024,1.595,1.5966,1.5966,1.5966,1.5966,1.5966,1.5966,1.5966,0.0,0.0,0.0,0.0,0.0,0.0,0.0,0.0,0.0,0.0,0.0,0.0,0.0,0.0,0.0,0.0,0.0,0.0,0.0,0.0,0.0,0.0,0.0,0.0,0.0,0.0,0.0,0.0,0.0,0.0,0.0,0.0,0.0,0.0,0.0,0.0,0.0,0.0,0.0,0.0,0.0,0.0,0.0,0.0,0.0,0.0,0.0,0.0,0.0,0.0,0.0,0.0,1.7426,1.7426,0.0,0.0,1.6708,1.6692,1.6954,1.7087,1.7228,1.777,1.9298,2.0743,2.1365,0.0,0.0,2.4984,2.5119,2.5119,2.5119,2.5119,2.5119,0.0,0.0,0.0,0.0,0.0,0.0,0.0,0.0,0.0,0.0,0.0,2.4275,2.4449,2.4569,2.4716,2.489,2.4903,2.4903,2.4903,2.5184,2.5344,2.5344,2.5638,2.5785,2.5785,2.3277,2.1723,2.0921,1.8272,1.6689,1.5966,1.5966,1.5966,1.5966,1.5966,1.5966,1.5966,1.5966,1.5966,1.5966,1.5966,1.5966,1.5966,0.0,0.0,0.0,0.0,0.0,0.0,0.0,0.0,0.0,0.0,0.0,0.0,0.0,0.0,0.0,0.0,0.0,0.0,0.0,0.0,0.0,0.0,0.0,0.0,0.0,0.0,0.0,0.0,0.0,0.0,0.0,0.0,0.0,0.0,0.0,0.0,0.0,0.0,0.0,0.0,0.0,0.0,0.0,0.0,0.0,0.0,0.0,0.0,0.0,0.0,0.0,0.0,0.0,0.0,0.0,0.0,1.6698,1.6519,1.6254,1.6178,1.6178,1.6178,1.777,1.9426,0.0,0.0,2.387,2.436,2.4781,2.5119,2.5119,2.5119,2.5052,0.0,0.0,0.0,0.0,0.0,0.0,0.0,0.0,0.0,0.0,0.0,2.4422,2.4623,2.4716,2.4863,2.5064,2.5251,2.5304,2.5211,2.5491,2.5638,2.5638,2.5932,2.5844,2.5296,2.251,2.0888,2.0332,1.7337,1.5966,1.5966,1.5966,1.5966,1.5966,1.5966,1.5966,1.5966,1.5966,1.5966,1.5966,1.5966,1.5966,1.5974,0.0,0.0,0.0,0.0,0.0,0.0,0.0,0.0,0.0,0.0,0.0,0.0,0.0,0.0,0.0,0.0,0.0,0.0,0.0,0.0,0.0,0.0,0.0,0.0,0.0,0.0,0.0,0.0,0.0,0.0,0.0,0.0,0.0,0.0,0.0,0.0,0.0,0.0,0.0,0.0,0.0,0.0,0.0,0.0,0.0,0.0,0.0,0.0,0.0,0.0,0.0,0.0,0.0,0.0,0.0,0.0,1.6802,1.6708,1.6292,1.6178,1.6178,1.6178,1.6249,1.6603,0.0,0.0,2.1089,2.2545,2.4074,2.5119,2.5119,2.5119,2.4984,2.4578,0.0,0.0,0.0,0.0,0.0,0.0,0.0,0.0,0.0,0.0,2.4636,2.4636,2.4917,0.0,2.5077,2.5638,2.5812,2.5518,2.5798,2.5959,2.5959,2.6239,2.5502,2.3816,2.2028,2.0322,1.8545,1.6772,1.5966,1.5966,1.5966,1.5966,1.5966,1.5966,1.5966,1.5966,1.5966,1.5966,1.5966,1.5966,1.5966,1.6073,0.0,0.0,0.0,0.0,0.0,0.0,0.0,0.0,0.0,0.0,0.0,0.0,0.0,0.0,0.0,0.0,0.0,0.0,0.0,0.0,0.0,0.0,0.0,0.0,0.0,0.0,0.0,0.0,0.0,0.0,0.0,0.0,0.0,0.0,0.0,0.0,0.0,0.0,0.0,0.0,0.0,0.0,0.0,0.0,0.0,0.0,0.0,0.0,0.0,0.0,0.0,0.0,0.0,0.0,0.0,0.0,0.0,0.0,1.6254,1.6178,1.6178,1.6178,1.6946,1.7851,1.8272,0.0,2.2258,2.2682,2.4006,2.5119,2.5119,2.4849,2.4645,2.4495,0.0,0.0,0.0,0.0,0.0,0.0,0.0,0.0,0.0,0.0,2.4716,2.493,2.5024,2.5251,2.5651,2.5929,2.5919,2.5825,2.6106,2.6253,2.6253,2.5225,2.4375,2.3736,2.0807,1.9115,1.8545,1.6772,1.5966,1.5966,1.5966,1.5966,1.5966,1.5966,1.5966,1.5966,1.5966,1.5966,1.6064,1.6178,1.6219,1.6243,0.0,0.0,0.0,0.0,0.0,0.0,0.0,0.0,0.0,0.0,0.0,0.0,0.0,0.0,0.0,0.0,0.0,0.0,0.0,0.0,0.0,0.0,0.0,0.0,0.0,0.0,0.0,0.0,0.0,0.0,0.0,0.0,0.0,0.0,0.0,0.0,0.0,0.0,0.0,0.0,0.0,0.0,1.8636,0.0,0.0,0.0,0.0,0.0,0.0,0.0,0.0,0.0,0.0,0.0,0.0,0.0,0.0,0.0,0.0,1.6245,1.6178,1.6178,1.6875,0.0,0.0,0.0,0.0,2.1859,2.3269,2.4599,2.5159,2.5056,2.4742,2.4491,0.0,0.0,0.0,0.0,0.0,0.0,0.0,0.0,0.0,2.473,2.4877,2.5064,2.5291,2.5571,2.601,2.6066,2.5884,2.5165,2.5332,2.5422,2.5422,2.3724,2.251,2.1786,1.9674,1.8218,1.7574,1.6534,1.5966,1.5966,1.5966,1.5966,0.0,1.5966,1.5966,1.5974,1.6113,1.6146,1.6162,1.6341,1.6405,1.6438,0.0,0.0,0.0,0.0,0.0,0.0,0.0,0.0,0.0,0.0,0.0,0.0,0.0,0.0,0.0,0.0,0.0,0.0,0.0,0.0,0.0,0.0,0.0,0.0,0.0,0.0,0.0,1.7363,1.7363,1.7363,1.7363,0.0,0.0,0.0,0.0,0.0,0.0,1.7764,1.801,0.0,0.0,1.8592,0.0,0.0,0.0,0.0,0.0,0.0,0.0,0.0,0.0,0.0,0.0,0.0,0.0,0.0,0.0,0.0,0.0,0.0,0.0,0.0,0.0,0.0,0.0,0.0,0.0,0.0,0.0,0.0,2.5066,2.517,2.4848,2.4498,0.0,0.0,0.0,0.0,0.0,0.0,0.0,0.0,2.4441,2.4767,2.494,2.498,2.5638,2.6037,2.6063,2.6161,2.5502,2.3816,2.3564,2.3484,2.3576,2.1867,2.016,1.8626,1.8463,1.7574,1.5966,1.5966,1.5966,1.5966,1.5966,1.5966,1.5966,1.6056,1.5982,1.5998,1.6259,1.6324,1.6349,1.6527,1.66,1.6625,0.0,0.0,0.0,0.0,0.0,0.0,0.0,0.0,0.0,0.0,0.0,0.0,0.0,0.0,0.0,0.0,0.0,0.0,0.0,0.0,0.0,0.0,0.0,0.0,0.0,0.0,0.0,1.6862,1.7199,1.7199,1.6862,1.7199,0.0,0.0,0.0,1.7363,1.7445,1.7527,1.7682,0.0,1.7773,1.7855,0.0,0.0,0.0,0.0,1.7106,1.7111,0.0,0.0,0.0,0.0,0.0,0.0,0.0,0.0,1.7199,0.0,0.0,0.0,0.0,0.0,0.0,0.0,0.0,0.0,0.0,0.0,0.0,0.0,0.0,0.0,0.0,0.0,0.0,0.0,0.0,0.0,0.0,0.0,0.0,2.147,2.2878,2.319,2.3401,2.3733,2.5153,2.6052,2.6279,2.5066,2.4215,2.3816,2.1222,2.0484,2.1786,2.0079,1.9033,1.8545,1.7255,1.6369,1.5966,1.5966,1.5966,1.5966,1.5966,1.5966,1.5974,1.6186,1.6243,1.6259,1.6446,1.6511,1.6535,1.6722,1.6787,1.6812,0.0,0.0,0.0,0.0,0.0,0.0,0.0,0.0,0.0,0.0,0.0,0.0,0.0,0.0,0.0,0.0,0.0,0.0,0.0,0.0,0.0,0.0,0.0,0.0,0.0,0.0,0.0,0.0,0.0,1.6624,0.0,0.0,0.0,0.0,0.0,1.6789,1.6789,1.7026,1.7191,1.7428,1.7437,0.0,0.0,0.0,0.0,0.0,1.6839,1.6959,0.0,1.6883,1.6959,1.7121,0.0,0.0,0.0,0.0,1.6972,0.0,0.0,0.0,0.0,0.0,0.0,0.0,0.0,0.0,0.0,0.0,0.0,0.0,0.0,0.0,0.0,0.0,0.0,0.0,0.0,0.0,0.0,0.0,0.0,2.032,0.0,2.1674,2.2237,2.3291,2.4393,2.5018,2.5171,2.4295,2.3084,2.1464,1.9592,1.9033,1.9998,1.8309,1.7419,1.7419,1.6451,1.5966,1.5966,1.5966,1.5966,1.5966,1.5966,1.6089,1.617,1.6267,1.6357,1.6446,1.6633,1.6706,1.673,1.6909,1.6974,1.6982,0.0,0.0,0.0,0.0,0.0,0.0,0.0,0.0,0.0,0.0,0.0,0.0,0.0,0.0,0.0,0.0,0.0,0.0,0.0,0.0,0.0,0.0,0.0,0.0,0.0,0.0,0.0,0.0,0.0,0.0,0.0,0.0,1.5966,0.0,0.0,1.5966,1.6048,1.6451,1.6616,1.6689,1.7001,0.0,0.0,0.0,0.0,0.0,0.0,0.0,0.0,1.6653,1.6653,1.673,1.673,0.0,0.0,0.0,0.0,0.0,0.0,0.0,1.6383,1.633,1.6273,0.0,0.0,0.0,0.0,0.0,0.0,0.0,0.0,0.0,0.0,0.0,0.0,0.0,0.0,0.0,0.0,0.0,0.0,0.0,1.9748,2.0137,2.1036,2.2574,2.3114,2.3404,2.3404,2.3164,2.1625,1.8708,1.83,1.8218,1.8218,1.6772,1.5966,1.5966,1.5966,1.5966,1.5966,1.5966,1.6064,1.6081,1.6081,1.6186,1.6349,1.6373,1.6479,1.6641,1.682,1.6893,1.6909,1.7055,1.7112,1.7112,0.0,0.0,0.0,0.0,0.0,0.0,0.0,0.0,0.0,0.0,0.0,0.0,0.0,0.0,0.0,0.0,0.0,0.0,0.0,0.0,0.0,0.0,0.0,0.0,0.0,0.0,0.0,0.0,0.0,0.0,1.5966,1.5966,1.5966,1.5966,1.5966,1.5966,1.5966,1.6048,1.6369,1.6681,1.6203,0.0,0.0,0.0,0.0,0.0,0.0,0.0,0.0,1.5888,1.605,1.628,1.628,0.0,0.0,0.0,0.0,0.0,1.6175,1.6011,1.6145,1.6608,1.6708,1.6644,0.0,0.0,0.0,0.0,0.0,0.0,0.0,0.0,0.0,0.0,0.0,0.0,0.0,0.0,0.0,0.0,0.0,1.6537,1.8103,1.8579,1.8952,1.929,2.0705,2.1625,2.1625,2.016,1.9186,1.8626,1.7173,1.6369,1.6369,1.6122,1.5966,1.5966,1.5966,1.5966,1.5966,1.5966,1.6121,1.6267,1.6267,1.6365,1.6552,1.6706,1.6701,1.6828,1.7006,1.7071,1.7071,1.7096,1.7112,1.7136,0.0,0.0,0.0,0.0,0.0,0.0,0.0,0.0,0.0,0.0,0.0,0.0,0.0,0.0,0.0,0.0,0.0,0.0,0.0,0.0,0.0,0.0,0.0,0.0,0.0,0.0,0.0,0.0,0.0,1.3797,1.4631,1.5546,1.5966,1.5966,1.5966,1.5966,1.5966,1.5966,1.6065,1.6212,0.0,0.0,0.0,0.0,0.0,0.0,0.0,0.0,0.0,0.0,1.5744,1.5897,1.5897,0.0,0.0,0.0,0.0,0.0,1.6089,1.5911,1.5894,1.6334,1.6303,0.0,0.0,0.0,0.0,0.0,0.0,0.0,0.0,0.0,0.0,0.0,0.0,0.0,0.0,0.0,1.5308,0.0,0.0,1.5693,1.6667,1.6938,1.7485,1.8535,1.9349,1.9836,1.9836,1.9024,1.8137,1.7255,1.6451,1.5966,1.5966,1.5966,1.5966,1.5966,1.5966,1.5966,1.5966,1.6146,1.6227,1.6308,1.6405,1.656,1.673,1.6733,1.6822,1.6998,1.708,1.7112,1.712,1.7226,1.7315,1.7413,0.0,0.0,0.0,0.0,0.0,0.0,0.0,0.0,0.0,0.0,0.0,0.0,0.0,0.0,0.0,0.0,0.0,0.0,0.0,0.0,0.0,0.0,0.0,0.0,0.0,0.0,0.8966,0.7968,1.0798,1.2548,1.3466,1.5216,1.5966,0.0,1.5966,1.5966,1.5958,1.5999,1.5902,1.5764,0.0,0.0,0.0,0.0,0.0,0.0,0.0,0.0,0.0,0.0,0.0,0.0,0.0,0.0,0.0,0.0,0.0,1.5659,1.5897,1.5659,1.5505,0.0,0.0,0.0,0.0,0.0,0.0,0.0,0.0,0.0,0.0,0.0,0.0,0.0,0.0,0.0,1.4968,1.4968,1.5033,1.522,1.5407,1.5585,1.5756,1.5943,1.6525,1.7901,1.7983,1.7983,1.7983,1.7983,1.7419,1.6048,1.5966,1.5966,1.5966,1.5966,1.5966,1.5966,1.5966,1.5982,1.6113,1.6243,1.6349,1.6438,1.6584,1.6747,1.6917,1.6917,1.699,1.7112,1.7112,1.7136,1.7201,1.738,1.7559,1.7705,0.0,0.0,0.0,0.0,0.0,0.0,0.0,0.0,0.0,0.0,0.0,0.0,0.0,0.0,0.0,0.0,0.0,0.0,0.0,0.0,0.0,0.0,0.0,0.0,0.0,0.5781,0.6469,0.7968,0.8303,1.0133,1.3466,1.5216,1.5966,1.5966,1.5966,1.5966,1.595,1.5861,1.5788,1.574,1.5415,0.0,0.0,0.0,0.0,0.0,0.0,0.0,0.0,0.0,0.0,0.0,0.0,0.0,0.0,0.0,0.0,1.5505,1.5198,1.5045,1.5045,0.0,0.0,0.0,0.0,0.0,0.0,0.0,0.0,0.0,0.0,0.0,0.0,0.0,0.0,0.0,1.4968,0.0,1.5033,1.522,1.5407,1.5585,1.5756,1.5943,1.604,1.6205,1.6205,1.6205,1.6205,1.6205,1.6122,1.5966,1.5966,1.5966,1.5966,1.5966,1.5966,1.5966,1.5966,1.6129,1.6284,1.63,1.6487,1.6725,1.6741,1.6933,1.7088,1.7088,1.7096,1.7112,1.7112,1.7218,1.7388,1.7559,1.7737,1.79,0.0,0.0,0.0,0.0,0.0,0.0,0.0,0.0,0.0,0.0,0.0,0.0,0.0,0.0,0.0,0.0,0.0,0.0,0.0,0.0,0.0,0.0,0.0,0.5684,0.5561,0.5444,0.5717,0.6385,0.7467,0.9883,1.3383,1.4052,0.0,0.0,1.5966,1.5983,1.5869,1.5804,1.5642,1.5431,1.5293,1.5171,0.0,0.0,0.0,0.0,0.0,0.0,0.0,0.0,0.0,0.0,0.0,0.0,0.0,0.0,0.0,1.5198,1.5045,1.4968,0.0,0.0,0.0,0.0,0.0,0.0,0.0,0.0,0.0,0.0,0.0,0.0,0.0,0.0,0.0,0.0,1.4968,1.5065,1.5204,1.539,1.5569,1.5748,1.5926,1.6008,1.5966,1.5966,1.5966,1.5966,1.5966,1.5966,1.5966,1.5966,1.5966,1.5966,1.5966,1.5966,1.6097,1.6211,1.6211,1.6243,1.6308,1.6544,1.6722,1.6774,1.6966,1.7047,1.7112,1.7112,1.7177,1.7291,1.7396,1.7551,1.7721,1.7786,1.7924,1.8079,0.0,0.0,0.0,0.0,0.0,0.0,0.0,0.0,0.0,0.0,0.0,0.0,0.0,0.0,0.0,0.0,0.0,0.0,0.0,0.0,0.0,0.0,0.0,0.5709,0.5561,0.5463,0.5403,0.5384,0.7136,0.955,1.2548,0.0,0.0,0.0,0.0,1.5894,1.5764,1.565,1.5463,1.5236,1.5179,1.5074,0.0,0.0,0.0,0.0,0.0,0.0,0.0,0.0,0.0,0.0,0.0,0.0,0.0,0.0,0.0,0.0,1.4968,1.4968,0.0,0.0,0.0,0.0,0.0,0.0,0.0,0.0,0.0,0.0,0.0,0.0,0.0,0.0,1.4968,1.4984,1.5041,1.5155,1.5325,1.5569,1.5699,1.5845,1.6032,1.5966,1.5966,1.5966,1.5966,1.5966,1.5966,1.5966,1.5966,1.5966,1.5966,1.5966,1.5966,1.6097,1.6186,1.6308,1.6422,1.6479,1.6487,1.6738,1.6798,1.6942,1.7055,1.7145,1.7201,1.7201,1.7307,1.7486,1.7656,1.7802,1.7924,1.7981,1.807,1.8176,0.0,0.0,0.0,0.0,0.0,0.0,0.0,0.0,0.0,0.0,0.0,0.0,0.0,0.0,0.0,0.0,0.0,0.0,0.0,0.0,0.0,0.0,0.0,0.5709,0.5561,0.5504,0.5444,0.5384,0.7136,0.8883,1.071,1.2548,0.0,0.0,0.0,0.0,1.5748,1.539,1.5236,1.522,1.5041,1.4968,1.4968,0.0,0.0,0.0,0.0,0.0,0.0,0.0,0.0,0.0,0.0,0.0,0.0,0.0,0.0,1.4968,1.4968,0.0,0.0,0.0,0.0,0.0,0.0,0.0,0.0,0.0,0.0,0.0,0.0,0.0,0.0,1.4968,1.4968,1.5025,1.5212,1.5166,1.5374,1.5731,1.5772,1.5845,1.6032,1.5966,1.5966,1.5966,1.5966,1.5966,1.5966,1.5966,1.5966,1.5966,1.5966,1.5966,1.5966,1.6219,1.6308,1.6316,1.6682,1.6766,1.6766,1.6766,1.695,1.7112,1.7112,1.7218,1.7388,1.7388,1.7494,1.7664,1.7851,1.7916,1.794,1.8111,1.8176,1.8176,0.0,0.0,0.0,0.0,0.0,0.0,0.0,0.0,0.0,0.0,0.0,0.0,0.0,0.0,0.0,0.0,0.0,0.0,0.0,0.0,0.0,0.0,0.0,0.0,0.0,0.0,0.5403,0.5384,0.5885,0.7052,0.0,0.0,0.0,1.421,0.0,0.0,1.5577,1.5342,1.5163,1.5041,1.4984,1.4968,1.4968,0.0,0.0,0.0,0.0,0.0,0.0,0.0,0.0,0.0,0.0,0.0,0.0,0.0,1.4968,1.4968,1.4968,0.0,0.0,0.0,0.0,0.0,0.0,0.0,0.0,0.0,0.0,0.0,0.0,0.0,0.0,1.4968,1.4968,1.5025,1.5212,1.535,1.552,1.5748,1.5886,1.5991,1.604,1.5966,1.5966,1.5966,1.5966,1.5966,1.5966,1.5966,1.5966,1.5966,1.6162,1.6227,1.6227,1.6405,1.656,1.669,1.6717,1.6766,1.6774,1.6982,1.7063,1.712,1.725,1.7339,1.7404,1.7656,1.7794,1.7851,1.803,1.8095,1.8103,1.8152,1.8176,1.8176,0.0,0.0,0.0,0.0,0.0,0.0,0.0,0.0,0.0,0.0,0.0,0.0,0.0,0.0,0.0,0.0,0.0,0.0,0.0,0.0,0.0,0.0,0.0,0.0,0.0,0.5469,0.5409,0.0,0.0,0.0,0.0,0.0,0.0,1.3459,0.0,1.561,1.5496,1.5236,1.5065,1.4968,1.4968,1.4968,1.4968,0.0,0.0,0.0,0.0,0.0,0.0,0.0,0.0,0.0,0.0,0.0,0.0,0.0,1.4968,1.4968,0.0,0.0,0.0,0.0,0.0,0.0,0.0,0.0,0.0,0.0,0.0,0.0,0.0,0.0,0.0,1.4968,1.5025,1.5139,1.5325,1.5504,1.5683,1.5861,1.5975,1.5966,1.5966,1.5966,1.5966,1.5966,1.5966,1.5966,1.5966,1.5966,1.6081,1.6146,1.6251,1.6341,1.6414,1.6592,1.6747,1.6766,1.6925,1.6998,1.7063,1.7096,1.7153,1.7234,1.7486,1.7599,1.7624,1.79,1.8022,1.803,1.8135,1.8176,1.8176,1.8176,1.8176,1.8176,0.0,0.0,0.0,0.0,0.0,0.0,0.0,0.0,0.0,0.0,0.0,0.0,0.0,0.0,0.0,0.0,0.0,0.0,0.0,0.0,0.0,0.0,0.0,0.0,0.0,0.0,0.0,0.0,0.0,0.0,0.0,0.0,1.138,1.3204,0.0,1.5353,1.5496,1.5122,1.4968,1.4968,1.4968,1.4968,1.4968,1.4968,0.0,0.0,0.0,0.0,0.0,0.0,0.0,0.0,0.0,0.0,0.0,0.0,1.4968,0.0,0.0,0.0,0.0,0.0,0.0,0.0,0.0,0.0,0.0,0.0,0.0,0.0,0.0,1.4968,1.4968,1.4992,1.513,1.5309,1.5512,1.5675,1.5837,1.5942,1.5966,1.5966,1.5966,1.5966,1.5966,1.5966,1.5966,1.5966,1.5966,1.6064,1.6137,1.63,1.6332,1.6438,1.66,1.6787,1.679,1.679,1.7055,1.7226,1.738,1.721,1.7242,1.7453,1.7778,1.7924,1.7957,1.8111,1.8176,1.8176,1.8176,1.8176,1.8176,1.8176,1.8176,1.8176,0.0,0.0,0.0,0.0,0.0,0.0,0.0,0.0,0.0,0.0,0.0,0.0,0.0,0.0,0.0,0.0,0.0,0.0,0.0,0.0,0.0,0.0,0.0,0.0,0.0,0.0,0.0,0.0,0.0,0.0,0.0,0.0,0.0,1.1363,0.0,1.4134,1.5496,1.5122,1.4968,1.4968,1.4968,1.4968,1.4968,1.4968,1.4968,0.0,0.0,0.0,0.0,0.0,0.0,0.0,1.4968,1.4968,1.4968,1.4968,1.4968,0.0,0.0,0.0,0.0,0.0,0.0,0.0,0.0,0.0,0.0,0.0,0.0,0.0,0.0,1.4968,1.5009,1.5155,1.5212,1.535,1.5675,1.5748,1.5837,1.5942,1.5966,1.5966,1.5966,1.5966,1.5966,1.5966,1.5966,1.5966,1.5966,1.6178,1.6267,1.63,1.6584,1.6669,1.6795,1.6966,1.7055,1.7055,1.7242,1.7348,1.7388,1.7348,1.7502,1.7811,1.7884,1.7997,1.8127,1.816,1.8176,1.8176,1.8176,1.8176,1.8176,1.8176,1.8176,1.8176,0.0,0.0,0.0,0.0,0.0,0.0,0.0,0.0,0.0,0.0,0.0,0.0,0.0,0.0,0.0,0.0,0.0,0.0,0.0,0.0,0.0,0.0,0.0,0.0,0.0,0.0,0.0,0.0,0.0,0.0,0.0,0.0,0.0,1.0782,0.0,1.3815,1.5496,1.5122,1.4968,1.4968,1.4968,1.4968,1.4968,1.4968,1.4968,1.4968,1.4968,0.0,0.0,0.0,0.0,0.0,0.0,0.0,1.4968,1.4968,1.4968,1.4968,0.0,0.0,0.0,0.0,0.0,0.0,0.0,0.0,0.0,0.0,0.0,0.0,1.4968,1.5033,1.513,1.5228,1.5382,1.5561,1.5748,1.5845,1.5943,1.595,1.5966,1.5966,1.5966,1.5966,1.5966,1.5966,1.5966,1.5966,1.5966,1.6211,1.6341,1.643,1.6706,1.6893,1.6974,1.7063,1.7153,1.7242,1.7339,1.7478,1.764,1.764,1.7746,1.7924,1.8005,1.8095,1.8176,1.8176,1.8176,1.8176,1.8176,1.8176,1.8176,1.8176,1.8176,1.8176,0.0,0.0,0.0,0.0,0.0,0.0,0.0,0.0,0.0,0.0,0.0,0.0,0.0,0.0,0.0,0.0,0.0,0.0,0.0,0.0,0.0,0.0,0.0,0.0,0.0,0.0,0.0,0.0,0.0,0.0,0.0,0.0,0.0,1.0284,0.0,0.0,1.5058,1.5125,1.5057,1.5057,1.5057,1.5057,1.5057,1.5057,1.5041,1.5009,1.5009,1.4992,1.4968,1.4968,0.0,0.0,0.0,0.0,1.4968,1.4968,1.4968,1.4968,0.0,0.0,0.0,0.0,0.0,0.0,0.0,0.0,0.0,0.0,0.0,0.0,1.5009,1.5139,1.526,1.5317,1.5577,1.578,1.5813,1.5951,1.5966,1.5966,1.5966,1.5966,1.5966,1.5966,1.5966,1.5966,1.5966,1.6056,1.6089,1.6259,1.6438,1.6625,1.6803,1.6966,1.7112,1.7145,1.7234,1.7388,1.7453,1.7648,1.7965,1.7965,1.7965,1.7973,1.8111,1.8176,1.8176,1.8176,1.8176,1.8176,1.8176,1.8176,1.8176,1.8176,1.8192,1.8225,0.0,0.0,0.0,0.0,0.0,0.0,0.0,0.0,0.0,0.0,0.0,0.0,0.0,0.0,0.0,0.0,0.0,0.0,0.0,0.0,0.0,0.0,0.0,0.0,0.0,0.0,0.0,0.0,0.0,0.0,0.0,0.0,0.0,0.8461,0.0,0.0,0.0,1.4882,1.5439,1.5439,1.5439,1.5439,1.5439,1.5439,1.5342,1.5204,1.5204,1.5098,1.4968,1.4968,1.4968,0.0,0.0,0.0,1.4968,1.4968,1.4968,0.0,0.0,0.0,0.0,0.0,0.0,0.0,0.0,0.0,0.0,0.0,0.0,1.5017,1.5171,1.522,1.5342,1.565,1.574,1.5829,1.5991,1.595,1.5966,1.5966,1.5966,1.5966,1.5966,1.5966,1.5966,1.5966,1.5966,1.6113,1.6259,1.6446,1.6625,1.6812,1.699,1.7088,1.7112,1.7266,1.7364,1.7388,1.7697,1.7949,1.8144,1.8144,1.8144,1.8144,1.8168,1.8176,1.8176,1.8176,1.8176,1.8176,1.8176,1.8176,1.8176,1.8176,1.8273,1.842,0.0,0.0,0.0,0.0,0.0,0.0,0.0,0.0,0.0,0.0,0.0,0.0,0.0,0.0,0.0,0.0,0.0,0.0,0.0,0.0,0.0,0.0,0.0,0.0,0.0,0.0,0.0,0.0,0.0,0.0,0.0,0.5384,0.6301,0.0,0.0,0.0,0.0,0.0,1.5512,1.5512,1.5512,1.5512,0.0,1.5512,1.5463,1.539,1.539,1.5342,1.526,1.5155,1.5122,1.5098,1.5,0.0,0.0,0.0,1.4968,0.0,0.0,0.0,0.0,0.0,0.0,0.0,0.0,0.0,0.0,0.0,1.5325,1.5301,1.5382,1.5472,1.5585,1.5748,1.5861,1.5951,1.595,1.5966,1.5966,1.5966,1.5966,1.5966,1.5966,1.5966,1.5966,1.5966,1.6137,1.6227,1.63,1.6576,1.6771,1.6766,1.7023,1.7112,1.7112,1.7291,1.7486,1.7689,1.794,1.8103,1.8176,1.8176,1.8176,1.8176,1.8176,1.8176,1.8176,1.8176,1.8176,1.8176,1.8176,1.8241,1.833,1.833,1.8444,1.8606,0.0,0.0,0.0,0.0,0.0,0.0,0.0,0.0,0.0,0.0,0.0,0.0,0.0,0.0,0.0,0.0,0.0,0.0,0.0,0.0,0.0,0.0,0.0,0.0,0.0,0.0,0.0,0.0,0.0,0.0,0.5384,0.5384,0.6137,0.0,0.9054,0.0,0.0,0.0,0.0,0.0,0.0,0.0,0.0,0.0,0.0,0.0,1.5577,1.5553,1.5496,1.5358,1.5309,1.5285,1.5147,1.5074,0.0,0.0,0.0,0.0,0.0,0.0,0.0,0.0,0.0,0.0,0.0,0.0,0.0,0.0,1.5577,1.5593,1.5642,1.5715,1.5788,1.5837,1.5959,1.5966,1.5966,1.5966,1.5966,1.5966,1.5966,1.5966,1.5966,1.5966,1.5982,1.6105,1.6227,1.6341,1.6438,1.662,1.6782,1.683,1.7047,1.7136,1.7177,1.7404,1.7681,1.7981,1.8111,1.8176,1.8176,1.8176,1.8176,1.8176,1.8176,1.8176,1.8176,1.8176,1.82,1.8249,1.8249,1.8355,1.8525,1.8525,1.8639,1.8793,0.0,0.0,0.0,0.0,0.0,0.0,0.0,0.0,0.0,0.0,0.0,0.0,0.0,0.0,0.0,0.0,0.0,0.0,0.0,0.0,0.0,0.0,0.0,0.0,0.0,0.0,0.0,0.0,0.0,0.0,0.5384,0.5384,0.5468,0.5636,0.7379,0.9124,1.0948,0.0,0.0,0.0,0.0,0.0,0.0,0.0,0.0,0.0,1.5756,1.5658,1.5512,1.5504,1.5504,1.5496,1.5488,1.5366,1.5228,0.0,0.0,0.0,0.0,0.0,0.0,0.0,0.0,0.0,0.0,0.0,0.0,0.0,1.5756,1.5813,1.5983,1.5886,1.5829,1.6008,1.604,1.5966,1.5966,1.5966,1.5966,1.5966,1.5966,1.5966,1.5966,1.5966,1.6113,1.6276,1.63,1.6454,1.6717,1.6758,1.6925,1.7088,1.7104,1.7193,1.7372,1.7713,1.7981,1.816,1.8168,1.8176,1.8176,1.8176,1.8176,1.8176,1.8176,1.8176,1.8176,1.8176,1.8282,1.8436,1.8436,1.855,1.8712,1.8712,1.8818,1.8972,0.0,0.0,0.0,0.0,0.0,0.0,0.0,0.0,0.0,0.0,0.0,0.0,0.0,0.0,0.0,0.0,0.0,0.0,0.0,0.0,0.0,0.0,0.0,0.0,0.0,0.0,0.0,0.0,0.0,0.5384,0.5384,0.5384,0.5384,0.5468,0.7219,0.8966,1.0793,1.2631,0.0,0.0,0.0,0.0,0.0,0.0,0.0,1.5951,1.5951,1.591,1.5837,1.5723,1.5683,1.5658,1.5553,1.5472,1.539,1.5277,0.0,0.0,0.0,0.0,0.0,0.0,0.0,0.0,0.0,0.0,0.0,0.0,1.5951,1.5967,1.595,1.5991,1.5967,1.595,1.5966,1.5966,1.5966,1.5966,1.5966,1.5966,1.5966,1.5966,1.5966,1.6146,1.6235,1.63,1.6519,1.6628,1.6758,1.6958,1.7047,1.7112,1.7226,1.7429,1.7721,1.7851,1.8005,1.8176,1.8176,1.8176,1.8176,1.8176,1.8176,1.8184,1.8298,1.8355,1.8355,1.8355,1.846,1.8623,1.8623,1.8736,1.8891,1.8891,1.9004,1.9159,0.0,0.0,0.0,0.0,0.0,0.0,0.0,0.0,0.0,0.0,0.0,0.0,0.0,0.0,0.0,0.0,0.0,0.0,0.0,0.0,0.0,0.0,0.0,0.0,0.0,0.0,0.0,0.0,0.0,0.0,0.0,0.5384,0.5384,0.5468,0.6637,0.8465,0.0,0.0,0.0,1.5966,0.0,0.0,1.5966,0.0,0.0,1.5966,1.5966,1.5966,1.6024,1.5902,1.5861,1.5845,1.5731,0.0,0.0,0.0,0.0,0.0,0.0,0.0,0.0,0.0,0.0,0.0,0.0,0.0,0.0,0.0,1.5966,1.5966,1.5966,1.5966,1.5966,1.5966,1.5966,1.5966,1.5966,1.5966,1.5966,1.5966,1.5966,1.5966,1.5966,1.6202,1.6332,1.6389,1.6682,1.679,1.6933,1.7047,1.7136,1.7201,1.7437,1.7681,1.7916,1.7973,1.8062,1.8176,1.8176,1.8176,1.8176,1.8176,1.8208,1.8273,1.8395,1.8547,1.8452,1.8517,1.8647,1.8809,1.8809,1.8923,1.9077,1.9077,1.9151,1.9256,0.0,0.0,0.0,0.0,0.0,0.0,0.0,0.0,0.0,0.0,0.0,0.0,0.0,0.0,0.0,0.0,0.0,0.0,0.0,0.0,0.0,0.0,0.0,0.0,0.0,0.0,0.0,0.0,0.0,0.0,0.0,0.0,0.5384,0.0,0.5384,0.7303,1.0627,0.0,1.2707,1.5966,0.0,1.5966,1.5966,0.0,1.5966,1.5966,1.5966,1.5966,1.5966,1.5966,1.5966,1.5966,0.0,0.0,0.0,0.0,0.0,0.0,0.0,0.0,0.0,0.0,0.0,0.0,0.0,0.0,0.0,0.0,1.5966,1.5966,1.5966,1.5966,1.5966,1.5966,1.5966,1.5966,1.5966,1.5966,1.5966,1.5966,1.5966,1.5966,1.5974,1.6211,1.6389,1.6576,1.6755,1.6846,1.7104,1.7112,1.7201,1.7388,1.7737,1.7916,1.7924,1.8095,1.8176,1.8176,1.8176,1.8176,1.8176,1.8184,1.8282,1.8547,1.846,1.8468,1.8485,1.8663,1.8834,1.8988,1.8988,1.9102,1.9256,1.9256,1.9256,1.9256,0.0,0.0,0.0,0.0,0.0,0.0,0.0,0.0,0.0,0.0,0.0,0.0,0.0,0.0,0.0,0.0,0.0,0.0,0.0,0.0,0.0,0.0,0.0,0.0,0.0,0.0,0.0,0.0,0.0,0.0,0.0,0.0,0.0,0.0,0.5384,0.6637,0.8799,1.0128,0.0,1.4217,1.5463,1.5966,0.0,0.0,1.5966,1.5966,1.5966,1.5966,1.5966,1.5966,1.5966,1.5966,0.0,0.0,0.0,0.0,0.0,0.0,1.5553,0.0,0.0,0.0,0.0,0.0,0.0,0.0,0.0,0.0,1.5966,1.5966,1.5966,1.5966,1.5966,1.5966,1.5966,1.5966,1.5966,1.5966,1.5966,1.5966,1.5966,1.6097,1.6219,1.6397,1.6576,0.0,1.6942,1.7063,1.7112,1.7242,1.7388,1.7567,1.7794,1.7981,1.8103,1.8152,1.8176,1.8176,1.8176,1.8176,1.8176,1.8314,1.8403,1.8468,1.872,1.8834,1.8842,1.8891,1.9021,1.9183,1.9183,1.9216,1.9256,1.9256,1.9256,1.9256,0.0,0.0,0.0,0.0,0.0,0.0,0.0,0.0,0.0,0.0,0.0,0.0,0.0,0.0,0.0,0.0,0.0,0.0,0.0,0.0,0.0,0.0,0.0,0.0,0.0,0.0,0.0,0.0,0.0,0.0,0.0,0.0,0.0,0.0,0.0,0.0,0.0,0.0,0.0,0.0,1.5298,0.0,0.0,1.5966,1.5966,1.5966,1.5966,1.5966,1.5966,1.5966,1.5966,1.5966,0.0,0.0,0.0,0.0,0.0,0.0,0.0,0.0,0.0,0.0,0.0,0.0,1.5966,1.5966,1.5966,0.0,1.5966,1.5966,1.5966,1.5966,1.5966,1.5966,1.5966,1.5966,1.5966,1.5966,1.5966,1.5966,1.6113,1.6194,1.6292,1.6544,1.6738,1.6758,1.7015,1.7145,1.7218,1.7396,1.7575,1.7754,1.7932,1.807,1.8176,1.8176,1.8176,1.8176,1.8176,1.8217,1.8298,1.8403,1.8533,1.8688,1.8891,1.9029,1.9094,1.9094,1.9159,1.9256,1.9256,1.9256,1.9256,1.9256,1.9256,1.9256,0.0,0.0,0.0,0.0,0.0,0.0,0.0,0.0,0.0,0.0,0.0,0.0,0.0,0.0,0.0,0.0,0.0,0.0,0.0,0.0,0.0,0.0,0.0,0.0,0.0,0.0,0.0,0.0,0.0,0.0,0.0,0.0,0.0,0.0,0.0,0.0,0.0,0.0,0.0,1.2969,1.5133,1.5966,0.0,0.0,1.5966,1.5966,1.5966,1.5966,1.5966,1.5966,1.5966,0.0,0.0,0.0,0.0,0.0,1.5966,0.0,0.0,0.0,0.0,0.0,0.0,0.0,1.5966,1.5966,1.5966,1.5966,1.5966,1.5966,1.5966,1.5966,1.5966,1.5966,1.5966,1.5966,1.5966,1.5966,1.5966,1.5966,1.6194,1.6308,1.6332,1.6649,1.6774,1.6798,1.7023,1.7193,1.738,1.7551,1.7729,1.7908,1.8087,1.8176,1.8176,1.8176,1.8176,1.8176,1.8192,1.829,1.8452,1.8588,1.868,1.8988,1.9004,1.9102,1.9256,1.9256,1.9256,1.9256,1.9256,1.9256,1.9256,1.9256,1.9256,1.9256,0.0,0.0,0.0,0.0,0.0,0.0,0.0,0.0,0.0,0.0,0.0,0.0,0.0,0.0,0.0,0.0,0.0,0.0,0.0,0.0,0.0,0.0,0.0,0.0,0.0,0.0,0.0,0.0,0.0,0.0,0.0,0.0,0.0,0.0,0.0,0.0,0.0,0.0,0.0,0.9466,1.4128,1.5966,1.5966,1.5966,1.5966,1.5966,1.5966,1.5966,1.5966,1.5966,1.5966,1.5966,0.0,0.0,0.0,1.5966,0.0,0.0,0.0,0.0,0.0,0.0,1.5966,0.0,1.5966,1.5966,1.5966,0.0,1.5966,0.0,1.5966,1.5966,1.5966,1.5966,1.5966,1.5966,1.5966,1.5966,1.5966,1.5966,1.6194,1.6365,1.6511,1.6722,1.6909,1.7047,1.7088,1.7193,1.738,1.7551,1.7729,1.7908,1.8087,1.8176,1.8176,1.8176,1.8176,1.8176,1.8322,1.842,1.846,1.8753,1.8915,1.8988,1.9142,1.9224,1.9256,1.9256,1.9256,1.9256,1.9256,1.9256,1.9256,1.9256,1.9256,1.9256,0.0,0.0,0.0,0.0,0.0,0.0,0.0,0.0,0.0,0.0,0.0,0.0,0.0,0.0,0.0,0.0,0.0,0.0,0.0,0.0,0.0,0.0,0.0,0.0,0.0,0.0,0.0,0.0,0.0,0.0,0.0,0.0,0.0,0.0,0.0,0.0,0.0,0.0,0.7968,0.8298,1.1878,0.0,1.4713,1.4713,1.5216,1.5966,1.5966,1.5966,1.5966,1.5966,1.5966,0.0,1.5966,1.5966,1.5966,0.0,1.5966,1.5966,0.0,0.0,0.0,1.5966,1.5966,0.0,0.0,1.5966,1.5966,1.5966,1.5966,0.0,0.0,0.0,1.5966,1.5966,1.5966,1.5966,1.5966,1.5966,1.6081,1.6162,1.6332,1.6511,1.6698,1.6877,1.7015,1.7104,1.7193,1.7323,1.7502,1.7681,1.7859,1.8038,1.8127,1.8176,1.8176,1.8176,1.8225,1.8314,1.8403,1.8541,1.872,1.8899,1.9037,1.9126,1.9216,1.9256,1.9256,1.9256,1.9256,1.9256,1.9256,1.9256,1.9256,1.9256,1.9256,1.9256,0.0,0.0,0.0,0.0,0.0,0.0,0.0,0.0,0.0,0.0,0.0,0.0,0.0,0.0,0.0,0.0,0.0,0.0,0.0,0.0,0.0,0.0,0.0,0.5741,0.0,0.0,0.0,0.0,0.0,0.0,0.0,0.0,0.0,0.0,0.0,0.0,0.0,0.0,0.0,0.7634,0.0,1.1131,1.3383,1.3045,1.3962,1.5463,1.5463,1.5711,1.5966,1.5966,1.5966,1.5966,1.5966,1.5966,0.0,0.0,0.0,0.0,0.0,0.0,0.0,0.0,0.0,1.5966,0.0,0.0,0.0,1.5966,0.0,0.0,0.0,0.0,0.0,0.0,0.0,0.0,0.0,1.5966,0.0,1.6284,1.647,1.6649,1.675,1.7006,1.7112,1.7112,1.7283,1.7461,1.7632,1.7819,1.7997,1.8168,1.8176,1.8176,1.8176,1.8208,1.8306,1.8547,1.862,1.8704,1.8988,1.9021,1.9118,1.9256,1.9256,1.9256,1.9256,1.9256,1.9256,1.9256,1.9256,1.9256,1.9256,1.9256,1.9256,1.9256,0.0,0.0,0.0,0.0,0.0,0.0,0.0,0.0,0.0,0.0,0.0,0.0,0.0,0.0,0.0,0.0,0.0,0.0,0.4933,0.0,0.0,0.0,0.0,0.0,0.5741,0.0,0.0,0.0,0.0,0.0,0.0,0.0,0.0,0.0,0.5384,0.0,0.0,0.0,0.5717,0.0,0.5885,0.8971,0.0,1.1629,1.2127,1.3714,1.3714,1.4713,1.5966,0.0,1.5966,1.5966,0.0,1.5966,1.5966,1.5966,0.0,0.0,0.0,0.0,0.0,0.0,1.5966,1.5966,1.5966,0.0,1.5966,1.5966,0.0,0.0,0.0,0.0,0.0,0.0,0.0,0.0,1.5966,1.5966,1.6113,1.6284,1.647,1.6649,1.675,1.7006,1.7112,1.7112,1.7283,1.7461,1.7632,1.7819,1.7997,1.8168,1.8176,1.8176,1.8176,1.8338,1.8522,1.8452,1.8769,1.8948,1.8988,1.9151,1.924,1.9256,1.9256,1.9256,1.9256,1.9256,1.9256,1.9256,1.9256,1.9256,1.9256,1.9256,1.9256,1.9256,0.0,0.0,0.0,0.0,0.0,0.0,0.0,0.0,0.0,0.0,0.0,0.0,0.0,0.0,0.3949,0.0,0.4128,0.4397,0.4576,0.4843,0.0,0.0,0.0,0.0,0.0,0.0,0.0,0.0,0.5442,0.0,0.0,0.0,0.0,0.0,0.5384,0.0,0.5384,0.0,0.5384,0.0,0.0,0.0,0.0,0.9407,1.0294,1.1961,1.3045,1.388,1.4631,1.5628,1.5966,0.0,0.0,0.0,0.0,1.5966,0.0,0.0,0.0,0.0,0.0,0.0,0.0,1.5966,1.5966,1.5966,1.5966,1.5966,0.0,0.0,0.0,0.0,0.0,0.0,1.5966,0.0,0.0,0.0,1.6259,0.0,0.0,0.0,1.6974,1.7071,1.7153,1.7266,1.7437,1.7607,1.7794,1.7973,1.8103,1.8176,1.8176,1.8176,1.8176,1.8355,1.8501,1.8615,1.8866,1.9037,1.9142,1.9224,1.9256,1.9256,1.9256,1.9256,1.9256,1.9256,1.9256,1.9256,1.9256,1.9256,1.9256,1.9256,1.9256,1.9256,0.0,0.0,0.0,0.0,0.0,0.0,0.0,0.0,0.0,0.0,0.0,0.0,0.3411,0.368,0.3769,0.3411,0.368,0.3949,0.4128,0.4574,0.4933,0.0,0.0,0.5652,0.547,0.0,0.0,0.0,0.0,0.0,0.0,0.0,0.0,0.0,0.0,0.5409,0.5412,0.0,0.5433,0.5436,0.548,0.6264,0.7451,0.7896,0.888,1.022,1.2077,1.3087,1.3756,1.5521,1.6194,1.6194,1.6194,1.6154,1.6113,0.0,0.0,0.0,1.5966,0.0,0.0,1.5966,1.5966,1.5966,1.5966,1.5966,1.5966,1.5966,1.5966,0.0,0.0,0.0,0.0,0.0,0.0,1.5982,0.0,0.0,0.0,0.0,0.0,0.0,0.0,1.7112,1.7185,1.7372,1.7543,1.7721,1.7908,1.8079,1.8176,1.8176,1.8176,1.82,1.8249,1.8436,1.8615,1.8801,1.8972,1.9126,1.9256,1.9256,1.9256,1.9256,1.9256,1.9256,1.9256,1.9256,1.9256,1.9256,1.9256,1.9289,1.9321,1.9272,1.9289,1.9329,0.2874,0.2874,0.0,0.0,0.0,0.0,0.0,0.0,0.0,0.0,0.0,0.2964,0.2964,0.2964,0.2964,0.2964,0.2964,0.3143,0.3588,0.4038,0.4307,0.4307,0.5204,0.547,0.5022,0.5501,0.0,0.0,0.0,0.0,0.0,0.0,0.0,0.0,0.0,0.5472,0.5477,0.5531,0.5553,0.5553,0.5556,0.5643,0.5903,0.0,0.8227,0.8572,1.0462,1.2264,1.3981,1.5957,1.656,1.656,1.656,1.6438,0.0,0.0,0.0,0.0,1.5966,1.5966,1.5966,1.5966,1.5966,1.5966,1.5966,1.5966,1.5966,1.5966,1.5966,0.0,0.0,0.0,0.0,0.0,0.0,0.0,0.0,0.0,0.0,0.0,0.0,0.0,0.0,1.7112,1.7185,1.7372,1.7543,1.7721,1.7908,1.8079,1.8176,1.8176,1.8176,1.8265,1.8539,1.8623,1.8801,1.8972,1.9159,1.9256,1.9256,1.9256,1.9256,1.9256,1.9256,1.9256,1.9256,1.9256,1.9256,1.9256,1.9256,1.9362,1.9484,1.9321,1.9362,1.95,0.0,0.0,0.0,0.0,0.0,0.0,0.0,0.2874,0.2874,0.2874,0.2874,0.2874,0.2874,0.2874,0.2874,0.2874,0.2874,0.3143,0.3588,0.4038,0.4307,0.4307,0.5204,0.547,0.5022,0.5504,0.574,0.0,0.0,0.0,0.0,0.0,0.0,0.0,0.0,0.5531,0.0,0.0,0.0,0.0,0.0,0.5643,0.5759,0.6286,0.6509,0.6682,0.8494,1.0386,1.2276,1.408,1.5546,1.6584,1.6584,1.6535,1.6487,1.6487,1.6446,1.6397,1.6397,1.6397,1.6397,1.6397,1.6397,1.6397,1.6397,1.6397,1.6397,1.6397,1.6397,1.6397,0.0,0.0,0.0,0.0,0.0,0.0,0.0,0.0,0.0,0.0,0.0,0.0,0.0,0.0,1.7364,1.7543,1.7721,1.79,1.8079,1.8144,1.8176,1.8176,1.8176,1.8265,1.8547,1.8631,1.8809,1.8988,1.9167,1.9256,1.9256,1.9256,1.9256,1.9256,1.9256,1.9256,1.9256,1.9256,1.9321,1.9427,1.9427,1.9532,1.9678,1.9492,1.954,1.9695,0.493,0.0,0.0,0.0,0.0,0.0,0.0,0.2874,0.2874,0.2874,0.2874,0.2874,0.2874,0.2874,0.2874,0.2874,0.2874,0.3053,0.3321,0.3769,0.3949,0.3769,0.4666,0.5025,0.4485,0.5167,0.5415,0.5415,0.0,0.5624,0.0,0.0,0.0,0.0,0.0,0.5679,0.5594,0.0,0.5624,0.0,0.0,0.5706,0.0,0.5654,0.5624,0.5887,0.772,0.9114,1.059,1.3108,1.4765,1.5894,1.6591,1.6722,1.6674,1.6674,1.6633,1.6584,1.6584,1.6584,1.6584,1.6584,1.6584,1.6584,1.6584,1.6584,1.6584,1.6584,1.6584,1.6584,0.0,0.0,0.0,0.0,0.0,0.0,0.0,1.6828,0.0,0.0,0.0,0.0,0.0,0.0,1.7486,1.7721,1.7851,1.7989,1.8168,1.8176,1.8176,1.8176,1.8241,1.8363,1.855,1.8728,1.8907,1.9086,1.9199,1.9256,1.9256,1.9256,1.9256,1.9256,1.9256,1.9256,1.9264,1.9321,1.941,1.9516,1.9581,1.9727,1.9865,1.9678,1.9727,1.9898,0.0,0.0,0.0,0.3769,0.3053,0.2874,0.2874,0.2874,0.2874,0.2874,0.2874,0.2874,0.2874,0.2874,0.2874,0.2874,0.2874,0.2874,0.2874,0.3321,0.3411,0.2964,0.3771,0.4038,0.3588,0.4485,0.5022,0.5022,0.0,0.0,0.0,0.0,0.0,0.0,0.5742,0.0,0.566,0.5717,0.5741,0.5741,0.5741,0.5741,0.5741,0.5741,0.5741,0.5918,0.7788,0.8498,0.921,1.2933,1.4177,1.4618,1.6489,1.6998,1.6782,1.6782,1.6738,1.6609,1.6609,1.6609,1.6609,1.6609,1.6609,1.6609,1.6609,1.6609,1.6609,1.6609,1.6609,1.6609,0.0,0.0,0.0,0.0,0.0,0.0,0.0,0.0,0.0,0.0,0.0,0.0,0.0,1.7396,1.7543,1.7892,1.7924,1.7997,0.0,1.8176,1.8176,1.8176,1.8355,1.8541,1.872,1.8899,1.9077,1.9256,1.9256,1.9256,1.9256,1.9256,1.9256,1.9256,1.9256,1.9264,1.9289,1.9443,1.9524,1.9557,1.9735,1.9914,2.006,1.9882,1.993,2.0101,0.8319,0.7427,0.6627,0.707,0.4751,0.2874,0.2874,0.2874,0.2874,0.2874,0.2874,0.2874,0.2874,0.2874,0.2874,0.2874,0.2874,0.2874,0.2874,0.3321,0.3411,0.2964,0.3771,0.4038,0.3588,0.4485,0.5022,0.5022,0.0,0.0,0.5741,0.0,0.0,0.0,0.0,0.0,0.5719,0.5736,0.5741,0.5741,0.5741,0.5741,0.5741,0.5741,0.5741,0.5741,0.6276,0.7342,0.8943,1.1339,1.311,1.4618,1.6489,1.708,1.7047,1.7047,1.7006,1.6974,1.6974,1.6974,1.6974,1.6974,1.6974,1.6974,1.6974,1.6974,1.6974,1.6974,1.6974,1.6974,1.6974,1.6974,0.0,0.0,0.0,0.0,0.0,0.0,0.0,1.7299,0.0,0.0,1.738,1.7502,1.7672,1.79,1.8038,1.8127,1.8176,1.8176,1.8176,1.8176,1.8355,1.8541,1.872,1.8899,1.9077,1.9256,1.9256,1.9256,1.9256,1.9256,1.9256,1.9256,1.9256,1.9329,1.9451,1.9492,1.9678,1.993,1.9979,2.0101,2.0247,2.0198,2.0214,2.0263,1.0905,0.9566,0.8319,0.8587,0.6091,0.4126,0.4126,0.3411,0.2874,0.2874,0.2874,0.2874,0.2874,0.2874,0.2874,0.2874,0.2874,0.2874,0.2874,0.3142,0.3142,0.2874,0.3412,0.359,0.3321,0.4037,0.4485,0.4664,0.5201,0.0,0.5741,0.0,0.0,0.0,0.0,0.5741,0.0,0.5769,0.5796,0.582,0.582,0.582,0.0,0.582,0.582,0.582,0.582,0.6413,0.761,0.9562,1.1427,1.3375,1.5242,1.6401,1.7112,1.7112,1.7112,1.7112,1.7112,1.7112,1.7112,1.7112,1.7112,1.7112,1.7112,1.7112,1.7112,1.7112,1.7112,1.7112,1.7112,1.7112,1.7136,0.0,0.0,0.0,0.0,0.0,0.0,0.0,1.7494,0.0,1.7616,1.7705,1.7835,1.8014,1.8119,1.8176,1.8176,1.8176,1.8176,1.8176,1.8436,1.8623,1.8728,1.898,1.9159,1.9256,1.9256,1.9256,1.9256,1.9256,1.9256,1.9264,1.9337,1.9427,1.9524,1.9687,1.9873,2.0076,2.015,2.0239,2.032,2.032,2.032,2.032,1.421,1.2692,1.0905,0.921,0.716,0.5733,0.5733,0.4126,0.2874,0.2874,0.2874,0.2874,0.2874,0.2874,0.2874,0.2874,0.2874,0.2874,0.2874,0.2874,0.2874,0.2874,0.2874,0.2874,0.2874,0.3321,0.3859,0.4307,0.4753,0.5201,0.0,0.0,0.0,0.0,0.0,0.0,0.0,0.582,0.5875,0.5924,0.5924,0.5924,0.5924,0.5924,0.5924,0.5924,0.5924,0.5856,0.6033,0.7997,0.9871,1.1827,1.3705,1.5661,1.7177,1.7177,1.7177,1.7177,1.7177,1.7177,1.7177,1.7177,1.7177,1.7177,1.7177,1.7177,1.7177,1.7177,1.7177,1.7177,1.7177,1.7177,0.0,0.0,0.0,0.0,0.0,0.0,0.0,0.0,0.0,0.0,1.7932,1.7932,1.7989,1.816,1.8176,1.8176,0.0,0.0,1.8184,1.8208,1.8541,1.8736,1.8761,1.9094,1.9256,1.9256,1.9256,1.9256,1.9256,1.9256,1.9256,1.9264,1.9435,1.9524,1.9573,1.9922,2.0076,2.0117,2.0263,2.032,2.032,2.032,2.032,2.032,1.4033,1.2692,1.1261,1.0994,0.8052,0.5733,0.5733,0.4126,0.2874,0.2874,0.2874,0.2874,0.2874,0.2874,0.2874,0.2874,0.2874,0.2874,0.2874,0.2874,0.2874,0.2874,0.2874,0.2874,0.2874,0.3321,0.3859,0.4307,0.4753,0.5201,0.0,0.0,0.0,0.0,0.0,0.0,0.5891,0.5902,0.0,0.5924,0.5924,0.5924,0.5924,0.5924,0.5924,0.5924,0.5924,0.5907,0.6164,0.8083,1.0086,1.209,1.3913,1.5911,1.7551,1.7551,1.7551,1.7551,1.7551,1.7551,1.7551,1.7551,1.7551,1.7551,1.7551,1.7551,1.7551,1.7551,1.7551,1.7551,1.7551,1.7551,1.7559,0.0,1.7599,1.7607,1.764,0.0,0.0,0.0,0.0,1.794,1.8111,1.7997,1.7989,1.816,0.0,1.8176,1.8176,0.0,1.8249,1.8395,1.8615,1.8793,1.8931,1.9151,1.9256,1.9256,1.9256,1.9256,1.9256,1.9256,1.9256,1.9264,1.9435,1.9597,1.976,1.9979,2.015,2.0279,2.0304,2.032,2.032,2.032,2.032,2.032,1.2865,0.0,0.0,0.8804,0.7003,0.5462,0.4464,0.3555,0.2913,0.2898,0.2896,0.2901,0.2917,0.2919,0.2919,0.2919,0.2919,0.2919,0.2919,0.2919,0.2919,0.2919,0.2919,0.2919,0.2919,0.3192,0.3648,0.4379,0.4559,0.5106,0.0,0.0,0.0,0.0,0.0,0.5541,0.0,0.0,0.5237,0.5263,0.5451,0.5547,0.5638,0.592,0.6014,0.6014,0.6014,0.6014,0.6096,0.7048,0.8584,1.0601,1.2523,1.4446,1.6272,1.7278,1.764,1.764,1.764,1.764,1.764,1.764,1.764,1.764,1.764,1.764,1.764,1.764,1.764,1.764,1.764,1.764,1.7672,1.777,1.7786,1.7819,1.7908,0.0,1.7949,0.0,0.0,0.0,0.0,0.0,0.0,0.0,0.0,1.8176,1.8176,1.8176,1.8257,1.8444,1.8631,1.8809,1.898,1.9167,1.9256,1.9256,1.9256,1.9256,1.9256,1.9256,1.9305,1.9402,1.9581,1.976,1.9946,2.0125,2.0247,2.032,2.032,2.032,2.032,2.032,2.032,2.032,1.1172,1.0921,0.9858,0.6359,0.5815,0.5172,0.3331,0.2961,0.2953,0.2928,0.2926,0.2935,0.2958,0.2961,0.2961,0.2961,0.2961,0.2961,0.2961,0.2961,0.2961,0.2961,0.2961,0.2961,0.2961,0.2961,0.3425,0.4259,0.4352,0.4803,0.5699,0.0,0.0,0.0,0.0,0.0,0.5089,0.471,0.4637,0.4766,0.5054,0.5244,0.553,0.5813,0.6003,0.6098,0.6098,0.6098,0.6085,0.5992,0.7253,0.9191,1.1223,1.3156,1.5089,1.7108,1.7754,1.7754,1.7754,1.7754,1.7754,1.7754,1.7754,1.7754,1.7754,1.7754,1.7754,1.7754,1.7754,1.7754,1.7754,1.7754,1.7802,1.7949,1.7973,1.8022,1.8152,1.8176,0.0,0.0,0.0,0.0,1.8176,0.0,0.0,0.0,0.0,1.8176,1.8176,1.8176,1.8273,1.8501,1.8647,1.8826,1.9037,1.9183,1.9256,1.9256,1.9256,1.9256,1.9264,1.9297,1.9386,1.9524,1.9752,1.9955,2.0133,2.0263,2.032,2.032,2.0361,2.0353,2.032,2.0361,2.0353,2.032,0.9015,0.8928,0.8289,0.6184,0.5815,0.5172,0.3331,0.2961,0.296,0.2957,0.2957,0.2958,0.2961,0.2961,0.2961,0.2961,0.2961,0.2961,0.2961,0.2961,0.2961,0.2961,0.2961,0.2961,0.2961,0.2961,0.3238,0.3795,0.4167,0.4676,0.5129,0.5686,0.0,0.0,0.5254,0.4999,0.4664,0.4569,0.4859,0.5244,0.4861,0.5242,0.6003,0.553,0.5718,0.6098,0.6098,0.6098,0.6096,0.6085,0.7403,0.938,1.1449,1.3521,1.5501,1.7561,1.8127,1.8127,1.8127,1.8127,1.8127,1.8127,1.8127,1.8127,1.8127,1.8127,1.8127,1.8127,1.8127,1.8127,1.8127,1.8127,1.8127,1.8144,1.8152,1.8152,1.8176,1.8176,1.8176,1.8176,0.0,0.0,0.0,1.8176,0.0,0.0,1.8176,1.8176,1.8176,1.8176,1.8338,1.8688,1.872,1.8891,1.9232,1.9248,1.9256,1.9256,1.9256,1.9256,1.9264,1.9419,1.95,1.9532,1.989,2.0141,2.0296,2.0312,2.032,2.0336,2.0507,2.0466,2.0344,2.0507,2.0466,2.032,0.7253,0.6981,0.6439,0.4512,0.4142,0.3956,0.3204,0.3016,0.3016,0.3016,0.3001,0.2995,0.3014,0.3016,0.3016,0.3016,0.3016,0.3016,0.3016,0.3016,0.3016,0.3016,0.3016,0.3016,0.3016,0.3016,0.3298,0.3771,0.424,0.4785,0.5213,0.5443,0.5287,0.4833,0.4551,0.4276,0.4101,0.3815,0.3815,0.4006,0.4385,0.4861,0.5242,0.5622,0.5908,0.6098,0.6098,0.6098,0.6098,0.6098,0.6666,0.7612,0.969,1.1673,1.3745,1.5823,1.7234,1.8176,1.8176,1.8176,1.8176,1.8176,1.8176,1.8176,1.8176,1.8176,1.8176,1.8176,1.8176,1.8176,1.8176,1.8176,1.8176,1.8176,1.8176,1.8176,1.8176,1.8176,0.0,1.8176,0.0,0.0,0.0,1.8176,0.0,0.0,0.0,1.8176,1.8176,1.8282,1.846,1.872,1.8826,1.9004,1.9256,1.9256,1.9256,1.9256,1.9256,1.9256,1.9264,1.9435,1.963,1.9857,2.0109,2.0255,2.032,2.032,2.032,2.0336,2.0523,2.0483,2.0344,2.0531,2.0483,2.032,0.5362,0.5087,0.4629,0.3334,0.3148,0.3148,0.3148,0.3148,0.3148,0.3148,0.3033,0.3028,0.305,0.3148,0.3148,0.3148,0.3148,0.3148,0.3148,0.3148,0.3148,0.3148,0.3148,0.3148,0.3148,0.3148,0.3243,0.3624,0.4101,0.4468,0.482,0.4916,0.4835,0.4385,0.4006,0.372,0.3529,0.3243,0.3148,0.3338,0.3909,0.4385,0.4861,0.5432,0.5813,0.6098,0.6098,0.6098,0.6098,0.6098,0.6098,0.6476,0.8463,1.0446,1.2522,1.4597,1.6572,1.8176,1.8176,1.8176,1.8176,1.8176,1.8176,1.8176,1.8176,1.8176,1.8176,1.8176,1.8176,1.8176,1.8176,1.8176,1.8176,1.8176,1.8176,1.8176,1.8176,1.8176,0.0,1.8176,1.8176,1.8176,1.8176,1.8176,0.0,0.0,0.0,1.8176,1.8176,1.8355,1.8533,1.872,1.8891,1.9069,1.9256,1.9256,1.9256,1.9256,1.9256,1.9289,1.9345,1.9573,1.9849,2.015,2.0263,2.032,2.032,2.032,2.0353,2.0418,2.0604,2.0564,2.0426,2.0604,2.0523,2.032,0.3146,0.3146,0.3146,0.3148,0.3148,0.3148,0.3148,0.3148,0.3148,0.3148,0.3052,0.3052,0.3148,0.3148,0.3148,0.3148,0.3148,0.3148,0.3148,0.3148,0.3148,0.3148,0.3148,0.3148,0.3148,0.3148,0.3148,0.3148,0.3624,0.3777,0.3612,0.4167,0.4213,0.3817,0.3817,0.3529,0.3148,0.3148,0.3338,0.3721,0.3338,0.4006,0.5244,0.4766,0.5242,0.6098,0.6098,0.6098,0.6098,0.6098,0.6098,0.6476,0.8463,1.0446,1.2522,1.4597,1.6572,1.8176,1.8176,1.8176,1.8176,1.8176,1.8176,1.8176,1.8176,1.8176,1.8176,1.8176,1.8176,1.8176,1.8176,1.8176,1.8176,1.8176,1.8176,1.8176,1.8176,1.8176,0.0,1.8176,1.8176,1.8176,1.8176,1.8176,0.0,0.0,1.8176,1.8176,1.8176,1.8355,1.8533,1.872,1.8891,1.9069,1.9256,1.9256,1.9256,1.9256,1.9256,1.9345,1.9524,1.989,2.015,2.032,2.032,2.032,2.032,2.032,2.0426,2.0612,2.0783,2.0742,2.0612,2.0791,2.0629,2.032,0.3148,0.3148,0.3148,0.3148,0.3148,0.3148,0.3148,0.3148,0.3148,0.3148,0.3148,0.3148,0.3148,0.3148,0.3148,0.3148,0.3148,0.3148,0.3148,0.3148,0.3148,0.3148,0.3148,0.3148,0.3148,0.3148,0.3148,0.3148,0.3529,0.3803,0.3779,0.3874,0.3793,0.3338,0.3338,0.3243,0.3148,0.3148,0.3148,0.3338,0.3529,0.3815,0.4291,0.448,0.4766,0.5147,0.5432,0.553,0.5622,0.6003,0.6098,0.6193,0.6856,0.8463,1.0446,1.2522,1.4503,1.6479,1.7795,1.8176,1.8176,1.8176,1.8176,1.8176,1.8176,1.8176,1.8176,1.8176,1.8176,1.8176,1.8176,1.8176,1.8176,1.8176,1.8176,1.8176,1.8176,1.8176,1.8176,1.8176,1.8176,1.8176,1.8176,1.8176,1.8176,0.0,0.0,1.8176,1.8176,1.8468,1.8663,1.872,1.9013,1.9199,1.9256,1.9256,1.9256,1.9256,1.9256,1.941,1.9711,1.9946,2.015,2.032,2.032,2.032,2.0328,2.0458,2.0539,2.0629,2.0921,2.0856,2.0621,2.0791,2.0629,2.032,0.3148,0.3148,0.3148,0.3148,0.3148,0.3148,0.3148,0.3148,0.3148,0.3148,0.3148,0.3148,0.3148,0.3148,0.3148,0.3148,0.3148,0.3148,0.3148,0.3148,0.3148,0.3148,0.3148,0.3148,0.3148,0.3148,0.3148,0.3148,0.3434,0.3529,0.3529,0.3529,0.3338,0.3148,0.3148,0.3148,0.3148,0.3148,0.3148,0.3148,0.3434,0.3624,0.3815,0.4385,0.4671,0.4956,0.5432,0.5622,0.5625,0.6003,0.6098,0.6098,0.6098,0.6951,0.8368,1.0351,1.2993,1.5448,1.6759,1.7608,1.8176,1.8176,1.8176,1.8176,1.8176,1.8176,1.8176,1.8176,1.8176,1.8176,1.8176,1.8176,1.8176,1.8176,1.8176,1.8176,1.8176,1.8176,1.8176,0.0,1.8176,1.8176,1.8176,1.8176,1.8176,1.8176,0.0,1.8282,1.8282,1.8566,1.8753,1.8818,1.9102,1.9256,1.9256,1.9256,1.9256,1.9264,1.9394,1.9573,1.98,2.0036,2.0214,2.032,2.032,2.032,2.0336,2.0523,2.0637,2.0718,2.0937,2.0889,2.0694,2.0742,2.0572,2.032,0.3148,0.3148,0.3148,0.3148,0.3148,0.3148,0.3148,0.3148,0.3148,0.3148,0.3148,0.3148,0.3148,0.3148,0.3148,0.3148,0.3148,0.3148,0.3148,0.3148,0.3148,0.3148,0.3148,0.3148,0.3148,0.3148,0.3148,0.3148,0.3148,0.3148,0.3148,0.3148,0.3148,0.3148,0.3148,0.3148,0.3148,0.3148,0.3148,0.3148,0.3148,0.3338,0.3815,0.429,0.4766,0.5244,0.5718,0.6003,0.6003,0.6003,0.6098,0.6098,0.6098,0.6098,0.6476,0.8557,1.1768,1.4879,1.5167,1.6572,1.7989,1.8176,1.8176,1.8176,1.8176,1.8176,1.8176,1.8176,1.8176,1.8176,1.8176,1.8176,1.8176,1.8176,1.8176,1.8176,1.8176,1.8176,1.8176,1.8176,1.8176,1.8176,1.8176,1.8176,1.8184,1.8192,0.0,1.846,1.8485,1.8647,1.8818,1.898,1.9167,1.9256,1.9256,1.9256,1.9264,1.9281,1.963,1.9792,1.9825,2.0166,2.032,2.032,2.032,2.0328,2.0353,2.0539,2.0718,2.0872,2.0872,2.0864,2.0832,2.0661,2.0483,2.032,0.3148,0.3148,0.3148,0.3148,0.3148,0.3148,0.3148,0.3148,0.3148,0.3148,0.3148,0.3148,0.3148,0.3148,0.3148,0.3148,0.3148,0.3148,0.3148,0.3148,0.3148,0.3148,0.3148,0.3148,0.3148,0.3148,0.3148,0.3148,0.3148,0.3148,0.3148,0.3148,0.3148,0.3148,0.3148,0.3148,0.3148,0.3148,0.3148,0.3148,0.3148,0.3148,0.3243,0.3434,0.3529,0.372,0.4196,0.4577,0.5051,0.5339,0.5718,0.6098,0.6098,0.6098,0.6476,0.8557,0.9784,1.1197,1.4315,1.5542,1.6292,1.7795,1.8176,1.8176,1.8176,1.8176,1.8176,1.8176,1.8176,1.8176,1.8176,1.8176,1.8176,1.8176,1.8176,1.8176,1.8176,1.8176,1.8176,1.8176,1.8176,1.8176,1.8176,1.8176,1.8233,1.8379,1.8428,1.8574,1.8842,1.8899,1.8939,1.898,1.9167,1.9256,1.9256,1.9256,1.9321,1.9459,1.9678,1.9865,2.0011,2.0223,2.032,2.032,2.032,2.0401,2.0547,2.0718,2.0897,2.1059,2.1059,2.0978,2.0832,2.0661,2.0483,2.032,0.3148,0.3148,0.3148,0.3148,0.3148,0.3148,0.3148,0.3148,0.3148,0.3148,0.3148,0.3148,0.3148,0.3148,0.3148,0.3148,0.3148,0.3148,0.3148,0.3148,0.3148,0.3148,0.3148,0.3148,0.3148,0.3148,0.3148,0.3148,0.3148,0.3148,0.3148,0.3148,0.3148,0.3148,0.3148,0.3148,0.3148,0.3148,0.3148,0.3148,0.3148,0.3148,0.3148,0.3338,0.3434,0.3529,0.4006,0.4385,0.4671,0.4861,0.5147,0.5432,0.5432,0.5432,0.5718,0.6948,0.8178,0.9595,1.1763,1.3087,1.4309,1.6292,1.686,1.7048,1.7981,1.8176,1.8176,1.8176,1.8176,1.8176,1.8176,1.8176,1.8176,1.8176,1.8176,1.8176,1.8176,1.8176,1.8176,1.8176,1.8176,1.8176,1.8176,1.8249,1.8347,1.8444,1.8606,1.8777,1.8972,1.9061,1.911,1.911,1.9207,1.9256,1.9256,1.9256,1.9345,1.9516,1.9703,1.989,2.0076,2.0239,2.032,2.032,2.032,2.0426,2.0612,2.0783,2.0962,2.1124,2.1124,2.1019,2.0832,2.0661,2.0483,2.0328,0.3148,0.3148,0.3148,0.3148,0.3148,0.3148,0.3148,0.3148,0.3148,0.3148,0.3148,0.3148,0.3148,0.3148,0.3148,0.3148,0.3148,0.3148,0.3148,0.3148,0.3148,0.3148,0.3148,0.3148,0.3148,0.3148,0.3148,0.3148,0.3148,0.3148,0.3148,0.3148,0.3148,0.3148,0.3148,0.3148,0.3148,0.3148,0.3148,0.3148,0.3148,0.3148,0.3148,0.3529,0.372,0.372,0.4196,0.4385,0.448,0.448,0.4575,0.4575,0.4575,0.4575,0.4671,0.5149,0.6856,0.8652,0.9027,1.0536,1.2522,1.4315,1.4691,1.5254,1.7328,1.7701,1.7795,1.8176,1.8176,1.8176,1.8176,1.8176,1.8176,1.8176,1.8176,1.8176,1.8176,1.8176,1.8176,1.8176,1.8176,1.8184,1.8217,1.8363,1.8476,1.8525,1.8809,1.8996,1.9021,1.9175,1.9256,1.9256,1.9256,1.9256,1.9256,1.9289,1.9386,1.9557,1.9743,1.9922,2.0109,2.0255,2.032,2.032,2.0353,2.0466,2.0645,2.0824,2.1002,2.1165,2.114,2.1035,2.0872,2.0702,2.0531,2.0426,0.3148,0.3148,0.3148,0.3148,0.3148,0.3148,0.3148,0.3148,0.3148,0.3148,0.3148,0.3148,0.3148,0.3148,0.3148,0.3148,0.3148,0.3148,0.3148,0.3148,0.3148,0.3148,0.3148,0.3148,0.3148,0.3148,0.3148,0.3148,0.3148,0.3148,0.3148,0.3148,0.3148,0.3148,0.3148,0.3148,0.3148,0.3148,0.3148,0.3148,0.3148,0.3148,0.3148,0.3148,0.3243,0.3243,0.3338,0.3624,0.391,0.391,0.4196,0.4575,0.4575,0.4575,0.4671,0.5149,0.5622,0.6381,0.8557,1.0536,1.214,1.2522,1.2616,1.3087,1.516,1.5636,1.6104,1.7888,1.8176,1.8176,1.8176,1.8176,1.8176,1.8176,1.8176,1.8176,1.8176,1.8176,1.8176,1.8176,1.8176,1.8233,1.8395,1.8436,1.8574,1.8874,1.8948,1.9053,1.9207,1.9248,1.9256,1.9256,1.9256,1.9256,1.9256,1.9402,1.9565,1.9752,1.9922,2.0101,2.0279,2.0304,2.032,2.0328,2.0483,2.0653,2.0832,2.101,2.1189,2.1319,2.1181,2.1108,2.1059,2.088,2.0799,2.0775,0.3148,0.3148,0.3148,0.3148,0.3148,0.3148,0.3148,0.3148,0.3148,0.3148,0.3148,0.3148,0.3148,0.3148,0.3148,0.3148,0.3148,0.3148,0.3148,0.3148,0.3148,0.3148,0.3148,0.3148,0.3148,0.3148,0.3148,0.3148,0.3148,0.3148,0.3148,0.3148,0.3148,0.3148,0.3148,0.3148,0.3148,0.3148,0.3148,0.3148,0.3148,0.3148,0.3148,0.3148,0.3148,0.3148,0.3148,0.3243,0.3434,0.3434,0.3624,0.3813,0.3813,0.4004,0.4291,0.4766,0.5337,0.6003,0.7138,0.8178,0.9122,1.0257,1.0446,1.1013,1.3087,1.3557,1.4121,1.6198,1.6572,1.6954,1.7989,1.8176,1.8176,1.8176,1.8176,1.8176,1.8176,1.8176,1.8176,1.8176,1.8265,1.8355,1.8444,1.8623,1.8809,1.8972,1.9077,1.9167,1.9256,1.9256,1.9256,1.9256,1.9256,1.9256,1.9256,1.9427,1.9605,1.9792,1.9971,2.015,2.032,2.032,2.032,2.0328,2.0515,2.0694,2.0872,2.1051,2.123,2.1384,2.1295,2.1205,2.1116,2.1035,2.0937,2.0872,0.3148,0.3148,0.3148,0.3148,0.3148,0.3148,0.3148,0.3148,0.3148,0.3148,0.3148,0.3148,0.3148,0.3148,0.3148,0.3148,0.3148,0.3148,0.3148,0.3148,0.3148,0.3148,0.3148,0.3148,0.3148,0.3148,0.3148,0.3148,0.3148,0.3148,0.3148,0.3148,0.3148,0.3148,0.3148,0.3148,0.3148,0.3148,0.3148,0.3148,0.3148,0.3148,0.3148,0.3148,0.3148,0.3148,0.3148,0.3148,0.3148,0.3148,0.3148,0.3148,0.3148,0.3338,0.372,0.4291,0.5051,0.5813,0.6003,0.6098,0.6476,0.7989,0.8368,0.8932,1.0913,1.1385,1.1956,1.4034,1.4879,1.5636,1.7234,1.7888,1.8176,1.8176,1.8176,1.8176,1.8176,1.8176,1.8192,1.8233,1.8363,1.8485,1.8566,1.8818,1.8996,1.9045,1.9175,1.9256,1.9256,1.9256,1.9256,1.9256,1.9256,1.9281,1.9321,1.9492,1.967,1.9857,2.0036,2.019,2.032,2.032,2.032,2.0328,2.0556,2.0734,2.0872,2.1092,2.1254,2.1384,2.1384,2.1295,2.1189,2.1189,2.11,2.0994,0.3148,0.3148,0.3148,0.3148,0.3148,0.3148,0.3148,0.3148,0.3148,0.3148,0.3148,0.3148,0.3148,0.3148,0.3148,0.3148,0.3148,0.3148,0.3148,0.3148,0.3148,0.3148,0.3148,0.3148,0.3148,0.3148,0.3148,0.3148,0.3148,0.3148,0.3148,0.3148,0.3148,0.3148,0.3148,0.3148,0.3148,0.3148,0.3148,0.3148,0.3148,0.3148,0.3148,0.3148,0.3148,0.3148,0.3148,0.3148,0.3148,0.3148,0.3148,0.3148,0.3148,0.3148,0.3243,0.372,0.4291,0.4956,0.5813,0.6098,0.6098,0.6288,0.6286,0.6856,0.8838,0.9311,0.9879,1.1956,1.3839,1.5261,1.5355,1.6954,1.8176,1.8176,1.8176,1.8176,1.8176,1.8176,1.8241,1.8506,1.8444,1.8582,1.8915,1.8964,1.9053,1.9224,1.9248,1.9256,1.9256,1.9256,1.9256,1.9256,1.9256,1.9337,1.9492,1.9678,1.9865,2.0044,2.0214,2.0304,2.032,2.032,2.032,2.0336,2.0686,2.084,2.088,2.1222,2.136,2.1384,2.1384,2.1384,2.136,2.136,2.136,2.1343,0.3148,0.3148,0.3148,0.3148,0.3148,0.3148,0.3148,0.3148,0.3148,0.3148,0.3148,0.3148,0.3148,0.3148,0.3148,0.3148,0.3148,0.3148,0.3148,0.3148,0.3148,0.3148,0.3148,0.3148,0.3148,0.3148,0.3148,0.3148,0.3148,0.3148,0.3148,0.3148,0.3148,0.3148,0.3148,0.3148,0.3148,0.3148,0.3148,0.3148,0.3148,0.3148,0.3148,0.3148,0.3148,0.3148,0.3148,0.3148,0.3148,0.3148,0.3148,0.3148,0.3148,0.3338,0.3624,0.4101,0.448,0.4671,0.5051,0.5147,0.5242,0.5527,0.5622,0.5908,0.6948,0.7233,0.7799,0.9784,1.1857,1.3651,1.4973,1.686,1.8176,1.8176,1.8176,1.8217,1.833,1.8347,1.8412,1.8598,1.872,1.8834,1.8972,1.9086,1.9183,1.9256,1.9256,1.9256,1.9256,1.9256,1.9256,1.9256,1.9362,1.9443,1.9516,1.9808,1.9995,2.0068,2.0239,2.032,2.032,2.032,2.0385,2.0507,2.0751,2.0921,2.1043,2.1278,2.1384,2.1384,2.1384,2.1384,2.1384,2.1384,2.1384,2.1384,0.3148,0.3148,0.3148,0.3148,0.3148,0.3148,0.3148,0.3148,0.3148,0.3148,0.3148,0.3148,0.3148,0.3148,0.3148,0.3148,0.3148,0.3148,0.3148,0.3148,0.3148,0.3148,0.3148,0.3148,0.3148,0.3148,0.3148,0.3148,0.3148,0.3148,0.3148,0.3148,0.3148,0.3148,0.3148,0.3148,0.3148,0.3148,0.3148,0.3148,0.3148,0.3148,0.3148,0.3148,0.3148,0.3148,0.3148,0.3148,0.3148,0.3148,0.3148,0.3148,0.3148,0.3338,0.3624,0.4004,0.4099,0.4099,0.4099,0.4194,0.4482,0.5149,0.5435,0.5625,0.6003,0.6098,0.6476,0.7894,0.9784,1.1574,1.2993,1.5442,1.725,1.7304,1.7882,1.8322,1.8509,1.8541,1.8606,1.8785,1.8907,1.9004,1.9061,1.9183,1.9256,1.9256,1.9256,1.9256,1.9256,1.9256,1.9289,1.9337,1.9508,1.963,1.9687,1.9938,2.0093,2.015,2.0263,2.032,2.032,2.032,2.0426,2.0604,2.0775,2.0954,2.114,2.1319,2.1384,2.1384,2.1384,2.1384,2.1384,2.1384,2.1384,2.1384,0.3148,0.3148,0.3148,0.3148,0.3148,0.3148,0.3148,0.3148,0.3148,0.3148,0.3148,0.3148,0.3148,0.3148,0.3148,0.3148,0.3148,0.3148,0.3148,0.3148,0.3148,0.3148,0.3148,0.3148,0.3148,0.3148,0.3148,0.3148,0.3148,0.3148,0.3148,0.3148,0.3148,0.3148,0.3148,0.3148,0.3148,0.3148,0.3148,0.3148,0.3148,0.3148,0.3148,0.3148,0.3148,0.3148,0.3148,0.3148,0.3148,0.3148,0.3148,0.3148,0.3148,0.3148,0.3148,0.3148,0.3148,0.3148,0.3052,0.3434,0.4007,0.5054,0.5718,0.6098,0.6098,0.6098,0.6098,0.6098,0.7707,0.9126,0.9126,1.2428,1.5215,1.5357,1.7109,1.8517,1.8704,1.8728,1.8793,1.8964,1.8988,1.9053,1.924,1.9256,1.9256,1.9256,1.9256,1.9256,1.9256,1.9256,1.9337,1.9508,1.9695,1.9882,2.0068,2.0068,2.015,2.032,2.032,2.032,2.032,2.032,2.0426,2.0604,2.0775,2.0962,2.114,2.1319,2.1384,2.1384,2.1384,2.1384,2.1384,2.1384,2.1384,2.1384,0.3148,0.3148,0.3148,0.3148,0.3148,0.3148,0.3148,0.3148,0.3148,0.3148,0.3148,0.3148,0.3148,0.3148,0.3148,0.3148,0.3148,0.3148,0.3148,0.3148,0.3148,0.3148,0.3148,0.3148,0.3148,0.3148,0.3148,0.3148,0.3148,0.3148,0.3148,0.3148,0.3148,0.3148,0.3148,0.3148,0.3148,0.3148,0.3148,0.3148,0.3148,0.3148,0.3148,0.3148,0.3148,0.3148,0.3148,0.3148,0.3148,0.3148,0.3148,0.3148,0.3148,0.3148,0.3148,0.3148,0.3148,0.3056,0.3078,0.3469,0.4038,0.4679,0.5147,0.5625,0.6003,0.6098,0.6098,0.6098,0.7749,0.9124,0.9124,1.1382,1.3662,1.5238,1.6021,1.6951,1.8681,1.8907,1.8972,1.9159,1.9175,1.9199,1.9256,1.9256,1.9256,1.9256,1.9256,1.9256,1.9256,1.9256,1.9337,1.9508,1.9695,1.9882,2.0068,2.0182,2.0271,2.032,2.032,2.032,2.032,2.032,2.0483,2.0783,2.0832,2.1027,2.1319,2.136,2.1384,2.1384,2.1384,2.1384,2.1384,2.1384,2.1384,2.1384,0.3148,0.3148,0.3148,0.3148,0.3148,0.3148,0.3148,0.3148,0.3148,0.3148,0.3148,0.3148,0.3148,0.3148,0.3148,0.3148,0.3148,0.3148,0.3148,0.3063,0.307,0.307,0.3081,0.3077,0.3052,0.3065,0.307,0.307,0.3082,0.3088,0.3088,0.3088,0.3088,0.3088,0.3088,0.3088,0.3088,0.3088,0.3088,0.3088,0.3088,0.3088,0.3088,0.3088,0.3088,0.3088,0.3088,0.3088,0.3088,0.3088,0.3088,0.3088,0.3088,0.3088,0.3088,0.3088,0.3088,0.3092,0.3111,0.3602,0.4275,0.454,0.5016,0.5498,0.6073,0.6169,0.6169,0.6169,0.7163,0.806,0.806,0.9743,1.1548,1.2948,1.4517,1.614,1.7674,1.8596,1.9134,1.9248,1.9256,1.9256,1.9256,1.9256,1.9256,1.9256,1.9256,1.9256,1.9256,1.9321,1.9443,1.9613,1.98,1.9987,2.0166,2.0271,2.032,2.032,2.032,2.032,2.032,2.0393,2.0588,2.0856,2.0929,2.1124,2.1384,2.1384,2.1384,2.1384,2.1384,2.1384,2.1384,2.1384,2.1384,2.1384,0.3148,0.3148,0.3148,0.3148,0.3148,0.3148,0.3148,0.3148,0.3148,0.3148,0.3148,0.3148,0.3148,0.3148,0.3054,0.3056,0.3059,0.3061,0.3061,0.3086,0.3101,0.3101,0.3129,0.3116,0.3062,0.3088,0.3101,0.3101,0.3129,0.3142,0.3142,0.3142,0.3142,0.3142,0.3142,0.3142,0.3142,0.3142,0.3142,0.3142,0.3142,0.3142,0.3142,0.3142,0.3142,0.3142,0.3142,0.3142,0.3142,0.3142,0.3142,0.3142,0.3142,0.3142,0.3142,0.3142,0.3142,0.3144,0.3146,0.3834,0.462,0.4624,0.502,0.5509,0.6185,0.6281,0.6281,0.6281,0.6284,0.6289,0.6289,0.7854,0.915,0.9522,1.299,1.5703,1.6029,1.7954,1.9256,1.9256,1.9256,1.9256,1.9256,1.9256,1.9256,1.9256,1.9256,1.9264,1.9281,1.9427,1.9605,1.9808,1.9979,2.015,2.032,2.032,2.032,2.032,2.032,2.032,2.0328,2.0515,2.0694,2.0864,2.1051,2.1222,2.1384,2.1384,2.1384,2.1384,2.1384,2.1384,2.1384,2.1384,2.1384,2.1384,0.3148,0.3148,0.3148,0.3148,0.3148,0.3148,0.3148,0.3148,0.3148,0.3148,0.3148,0.3148,0.3148,0.3148,0.3062,0.3085,0.311,0.3123,0.3123,0.3129,0.3133,0.3133,0.314,0.3137,0.3123,0.313,0.3133,0.3133,0.314,0.3142,0.3142,0.3142,0.3142,0.3142,0.3142,0.3142,0.3142,0.3142,0.3142,0.3142,0.3142,0.3142,0.3142,0.3142,0.3142,0.3142,0.3142,0.3142,0.3142,0.3142,0.3142,0.3142,0.3142,0.3142,0.3142,0.3142,0.3142,0.3148,0.3172,0.3376,0.3581,0.4008,0.4215,0.4698,0.6005,0.6281,0.6281,0.6281,0.6316,0.6352,0.6352,0.6786,0.7621,0.9428,1.1823,1.4123,1.5844,1.7954,1.9256,1.9256,1.9256,1.9256,1.9256,1.9256,1.9256,1.9256,1.9256,1.9321,1.9451,1.9492,1.9662,1.9995,2.0044,2.015,2.032,2.032,2.032,2.032,2.032,2.032,2.0328,2.0515,2.0694,2.0864,2.1051,2.1222,2.1384,2.1384,2.1384,2.1384,2.1384,2.1384,2.1384,2.1384,2.1384,2.1384,0.3148,0.3148,0.3148,0.3148,0.3148,0.3148,0.3148,0.3065,0.3074,0.3074,0.3086,0.3096,0.3096,0.3096,0.3101,0.3118,0.3134,0.3142,0.3142,0.3156,0.3164,0.3164,0.3178,0.3185,0.3185,0.3185,0.3178,0.3164,0.3178,0.3185,0.3185,0.3185,0.3185,0.3185,0.3185,0.3185,0.3185,0.3185,0.3185,0.3185,0.3185,0.3185,0.3185,0.3185,0.3185,0.3185,0.3185,0.3185,0.3185,0.3185,0.3185,0.3185,0.3185,0.3185,0.3185,0.3185,0.3185,0.3187,0.3204,0.3408,0.3613,0.3932,0.424,0.4634,0.5383,0.5571,0.5571,0.5571,0.5792,0.6111,0.6111,0.6338,0.6861,0.7961,0.9961,1.1759,1.2852,1.4856,1.6254,1.6254,1.6254,1.6658,1.765,1.8655,1.9256,1.9256,1.9337,1.9419,1.9508,1.9678,1.9865,2.006,2.0141,2.0231,2.032,2.032,2.032,2.032,2.032,2.0369,2.0458,2.0637,2.0815,2.0994,2.1173,2.1295,2.1384,2.1384,2.1384,2.1384,2.1384,2.1384,2.1384,2.1384,2.1384,2.1384,0.3148,0.3056,0.3059,0.3059,0.3065,0.3067,0.3067,0.3089,0.3106,0.3106,0.3127,0.3142,0.3142,0.3148,0.315,0.315,0.3155,0.3157,0.3157,0.3182,0.3195,0.3195,0.3217,0.323,0.323,0.323,0.3219,0.3195,0.3219,0.323,0.323,0.323,0.323,0.323,0.323,0.323,0.323,0.323,0.323,0.323,0.323,0.323,0.323,0.323,0.323,0.323,0.323,0.323,0.323,0.323,0.323,0.323,0.323,0.323,0.323,0.323,0.323,0.323,0.323,0.3534,0.3836,0.3836,0.424,0.4544,0.4544,0.4645,0.4847,0.4847,0.5251,0.5652,0.5652,0.6158,0.6461,0.6461,0.8263,0.9661,0.9661,1.1559,1.2863,1.2863,1.3256,1.4153,1.595,1.8053,1.9272,1.9297,1.9435,1.954,1.9605,1.9898,2.0076,2.0109,2.0247,2.032,2.032,2.032,2.032,2.032,2.0353,2.045,2.0604,2.0775,2.0954,2.1132,2.1319,2.1384,2.1384,2.1384,2.1384,2.1384,2.1384,2.1384,2.1384,2.1384,2.1384,2.1384,0.3148,0.3073,0.3092,0.3092,0.3114,0.313,0.313,0.3134,0.3137,0.3137,0.3141,0.3142,0.3142,0.3167,0.3182,0.3182,0.3204,0.3219,0.3219,0.3223,0.3224,0.3224,0.3228,0.323,0.323,0.323,0.3228,0.3224,0.3228,0.323,0.323,0.323,0.323,0.323,0.323,0.323,0.323,0.323,0.323,0.323,0.323,0.323,0.323,0.323,0.323,0.323,0.323,0.323,0.323,0.323,0.323,0.323,0.323,0.323,0.323,0.323,0.323,0.323,0.323,0.323,0.3332,0.3332,0.3332,0.3433,0.3433,0.4139,0.4847,0.4847,0.5251,0.5652,0.5652,0.6158,0.6461,0.6461,0.8263,0.9661,0.9661,1.1559,1.2863,1.2863,1.4551,1.5751,1.6049,1.8053,1.9321,1.9467,1.95,1.9654,1.9979,2.0036,2.0133,2.0279,2.0304,2.032,2.032,2.032,2.032,2.032,2.0483,2.0572,2.0604,2.0775,2.0954,2.1132,2.1319,2.1384,2.1384,2.1384,2.1384,2.1384,2.1384,2.1384,2.1384,2.1384,2.1384,2.1384,0.3103,0.3114,0.3123,0.3123,0.3134,0.3142,0.3142,0.3157,0.3168,0.3168,0.3182,0.3191,0.3191,0.3204,0.3212,0.3212,0.3223,0.323,0.323,0.323,0.323,0.323,0.323,0.323,0.323,0.323,0.323,0.323,0.323,0.323,0.323,0.323,0.323,0.323,0.323,0.323,0.323,0.323,0.323,0.323,0.323,0.323,0.323,0.323,0.323,0.323,0.323,0.323,0.323,0.323,0.323,0.323,0.323,0.323,0.323,0.323,0.323,0.323,0.323,0.323,0.323,0.323,0.323,0.323,0.323,0.3534,0.4038,0.4242,0.4847,0.5349,0.5652,0.6158,0.6461,0.6461,0.7264,0.7961,0.7961,0.8765,0.9364,0.9364,1.1259,1.2552,1.2552,1.5624,1.7621,1.7687,1.8987,1.9898,2.006,2.0158,2.0239,2.032,2.032,2.032,2.032,2.032,2.0369,2.0474,2.0556,2.0645,2.0751,2.0921,2.11,2.1278,2.1343,2.1384,2.1384,2.1384,2.1384,2.1384,2.1384,2.1384,2.1384,2.1384,2.1384,2.1384]}]]